[[{"header":{"parameterUnit":"m.s-1","parameterCategory":1,"la1":30.6,"la2":28.766,"lo1":-90.7593,"lo2":-88.6598,"dy":0.0162,"dx":0.0183,"nx":116,"ny":114,"refTime":"2024-02-17T06:00:00:Z","depth":0,"parameterNumber":2,"parameterNumberName":"U-component_of_WINDS"},"data":[0.0,0.0,0.0,0.0,0.0,0.0,0.0,0.0,0.0,0.0,0.0,0.0,0.0,0.0,0.0,0.0,0.0,0.0,0.0,0.0,0.0,0.0,0.0,0.0,0.0,0.0,0.0,0.0,0.0,0.0,0.0,0.0,0.0,0.0,0.0,0.0,0.0,0.0,0.0,0.0,0.0,0.0,0.0,0.0,0.0,0.0,0.0,0.0,0.0,0.0,0.0,0.0,0.0,0.0,0.0,0.0,0.0,0.0,0.0,0.0,0.0,0.0,0.0,0.0,0.0,0.0,0.0,0.0,0.0,0.0,0.0,0.0,0.0,0.0,0.0,0.0,0.0,0.0,0.0,0.0,0.0,0.0,0.0,0.0,0.0,0.0,0.0,0.0,0.0,0.0,0.0,0.0,0.0,0.0,0.0,0.0,0.0,0.0,0.0,0.0,0.0,0.0,0.0,0.0,0.0,0.0,0.0,0.0,0.0,0.0,0.0,0.0,0.0,0.0,0.0,0.0,0.0,0.0,0.0,0.0,0.0,0.0,0.0,0.0,0.0,0.0,0.0,0.0,0.0,0.0,0.0,0.0,0.0,0.0,0.0,0.0,0.0,0.0,0.0,0.0,0.0,0.0,0.0,0.0,0.0,0.0,0.0,0.0,0.0,0.0,0.0,0.0,0.0,0.0,0.0,0.0,0.0,0.0,0.0,0.0,0.0,0.0,0.0,0.0,0.0,0.0,0.0,0.0,0.0,0.0,0.0,0.0,0.0,0.0,0.0,0.0,0.0,0.0,0.0,0.0,0.0,0.0,0.0,0.0,0.0,0.0,0.0,0.0,0.0,0.0,0.0,0.0,0.0,0.0,0.0,0.0,0.0,0.0,0.0,0.0,0.0,0.0,0.0,0.0,0.0,0.0,0.0,0.0,0.0,0.0,0.0,0.0,0.0,0.0,0.0,0.0,0.0,0.0,0.0,0.0,0.0,0.0,0.0,0.0,0.0,0.0,0.0,0.0,0.0,0.0,0.0,0.0,0.0,0.0,0.0,0.0,0.0,0.0,0.0,0.0,0.0,0.0,0.0,0.0,0.0,0.0,0.0,0.0,0.0,0.0,0.0,0.0,0.0,0.0,0.0,0.0,0.0,0.0,0.0,0.0,0.0,0.0,0.0,0.0,0.0,0.0,0.0,0.0,0.0,0.0,0.0,0.0,0.0,0.0,0.0,0.0,0.0,0.0,0.0,0.0,0.0,0.0,0.0,0.0,0.0,0.0,0.0,0.0,0.0,0.0,0.0,0.0,0.0,0.0,0.0,0.0,0.0,0.0,0.0,0.0,0.0,0.0,0.0,0.0,0.0,0.0,0.0,0.0,0.0,0.0,0.0,0.0,0.0,0.0,0.0,0.0,0.0,0.0,0.0,0.0,0.0,0.0,0.0,0.0,0.0,0.0,0.0,0.0,0.0,0.0,0.0,0.0,0.0,0.0,0.0,0.0,0.0,0.0,0.0,0.0,0.0,0.0,0.0,0.0,0.0,0.0,0.0,0.0,0.0,0.0,0.0,0.0,0.0,0.0,0.0,0.0,0.0,0.0,0.0,0.0,0.0,0.0,0.0,0.0,0.0,0.0,0.0,0.0,0.0,0.0,0.0,0.0,0.0,0.0,0.0,0.0,0.0,0.0,0.0,0.0,0.0,0.0,0.0,0.0,0.0,0.0,0.0,0.0,0.0,0.0,0.0,0.0,0.0,0.0,0.0,0.0,0.0,0.0,0.0,0.0,0.0,0.0,0.0,0.0,0.0,0.0,0.0,0.0,0.0,0.0,0.0,0.0,0.0,0.0,0.0,0.0,0.0,0.0,0.0,0.0,0.0,0.0,0.0,0.0,0.0,0.0,0.0,0.0,0.0,0.0,0.0,0.0,0.0,0.0,0.0,0.0,0.0,0.0,0.0,0.0,0.0,0.0,0.0,0.0,0.0,0.0,0.0,0.0,0.0,0.0,0.0,0.0,0.0,0.0,0.0,0.0,0.0,0.0,0.0,0.0,0.0,0.0,0.0,0.0,0.0,0.0,0.0,0.0,0.0,0.0,0.0,0.0,0.0,0.0,0.0,0.0,0.0,0.0,0.0,0.0,0.0,0.0,0.0,0.0,0.0,0.0,0.0,0.0,0.0,0.0,0.0,0.0,0.0,0.0,0.0,0.0,0.0,0.0,0.0,0.0,0.0,0.0,0.0,0.0,0.0,0.0,0.0,0.0,0.0,0.0,0.0,0.0,0.0,0.0,0.0,0.0,0.0,0.0,0.0,0.0,0.0,0.0,0.0,0.0,0.0,0.0,0.0,0.0,0.0,0.0,0.0,0.0,0.0,0.0,0.0,0.0,0.0,0.0,0.0,0.0,0.0,0.0,0.0,0.0,0.0,0.0,0.0,0.0,0.0,0.0,0.0,0.0,0.0,0.0,0.0,0.0,0.0,0.0,0.0,0.0,0.0,0.0,0.0,0.0,0.0,0.0,0.0,0.0,0.0,0.0,0.0,0.0,0.0,0.0,0.0,0.0,0.0,0.0,0.0,0.0,0.0,0.0,0.0,0.0,0.0,0.0,0.0,0.0,0.0,0.0,0.0,0.0,0.0,0.0,0.0,0.0,0.0,0.0,0.0,0.0,0.0,0.0,0.0,0.0,0.0,0.0,0.0,0.0,0.0,0.0,0.0,0.0,0.0,0.0,0.0,0.0,0.0,0.0,0.0,0.0,0.0,0.0,0.0,0.0,0.0,0.0,0.0,0.0,0.0,0.0,0.0,0.0,0.0,0.0,0.0,0.0,0.0,0.0,0.0,0.0,0.0,0.0,0.0,0.0,0.0,0.0,0.0,0.0,0.0,0.0,0.0,0.0,0.0,0.0,0.0,0.0,0.0,0.0,0.0,0.0,0.0,0.0,0.0,0.0,0.0,0.0,0.0,0.0,0.0,0.0,0.0,0.0,0.0,0.0,0.0,0.0,0.0,0.0,0.0,0.0,0.0,0.0,0.0,0.0,0.0,0.0,0.0,0.0,0.0,0.0,0.0,0.0,0.0,0.0,0.0,0.0,0.0,0.0,0.0,0.0,0.0,0.0,0.0,0.0,0.0,0.0,0.0,0.0,0.0,0.0,0.0,0.0,0.0,0.0,0.0,0.0,0.0,0.0,0.0,0.0,0.0,0.0,0.0,0.0,0.0,0.0,0.0,0.0,0.0,0.0,0.0,0.0,0.0,0.0,0.0,0.0,0.0,0.0,0.0,0.0,0.0,0.0,0.0,0.0,0.0,0.0,0.0,0.0,0.0,0.0,0.0,0.0,0.0,0.0,0.0,0.0,0.0,0.0,0.0,0.0,0.0,0.0,0.0,0.0,0.0,0.0,0.0,0.0,0.0,0.0,0.0,0.0,0.0,0.0,0.0,0.0,0.0,0.0,0.0,0.0,0.0,0.0,0.0,0.0,0.0,0.0,0.0,0.0,0.0,0.0,0.0,0.0,0.0,0.0,0.0,0.0,0.0,0.0,0.0,0.0,0.0,0.0,0.0,0.0,0.0,0.0,0.0,0.0,0.0,0.0,0.0,0.0,0.0,0.0,0.0,0.0,0.0,0.0,0.0,0.0,0.0,0.0,0.0,0.0,0.0,0.0,0.0,0.0,0.0,0.0,0.0,0.0,0.0,0.0,0.0,0.0,0.0,0.0,0.0,0.0,0.0,0.0,0.0,0.0,0.0,0.0,0.0,0.0,0.0,0.0,0.0,0.0,0.0,0.0,0.0,0.0,0.0,0.0,0.0,0.0,0.0,0.0,0.0,0.0,0.0,0.0,0.0,0.0,0.0,0.0,0.0,0.0,0.0,0.0,0.0,0.0,0.0,0.0,0.0,0.0,0.0,0.0,0.0,0.0,0.0,0.0,0.0,0.0,0.0,0.0,0.0,0.0,0.0,0.0,0.0,0.0,0.0,0.0,0.0,0.0,0.0,0.0,0.0,0.0,0.0,0.0,0.0,0.0,0.0,0.0,0.0,0.0,0.0,0.0,0.0,0.0,0.0,0.0,0.0,0.0,0.0,0.0,0.0,0.0,0.0,0.0,0.0,0.0,0.0,0.0,0.0,0.0,0.0,0.0,0.0,0.0,0.0,0.0,0.0,0.0,0.0,0.0,0.0,0.0,0.0,0.0,0.0,0.0,0.0,0.0,0.0,0.0,0.0,0.0,0.0,0.0,0.0,0.0,0.0,0.0,0.0,0.0,0.0,0.0,0.0,0.0,0.0,0.0,0.0,0.0,0.0,0.0,0.0,0.0,0.0,0.0,0.0,0.0,0.0,0.0,0.0,0.0,0.0,0.0,0.0,0.0,0.0,0.0,0.0,0.0,0.0,0.0,0.0,0.0,0.0,0.0,0.0,0.0,0.0,0.0,0.0,0.0,0.0,0.0,0.0,0.0,0.0,0.0,0.0,0.0,0.0,0.0,0.0,0.0,0.0,0.0,0.0,0.0,0.0,0.0,0.0,0.0,0.0,0.0,0.0,0.0,0.0,0.0,0.0,0.0,0.0,0.0,0.0,0.0,0.0,0.0,0.0,0.0,0.0,0.0,0.0,0.0,0.0,0.0,0.0,0.0,0.0,0.0,0.0,0.0,0.0,0.0,0.0,0.0,0.0,0.0,0.0,0.0,0.0,0.0,0.0,0.0,0.0,0.0,0.0,0.0,0.0,0.0,0.0,0.0,0.0,0.0,0.0,0.0,0.0,0.0,0.0,0.0,0.0,0.0,0.0,0.0,0.0,0.0,0.0,0.0,0.0,0.0,0.0,0.0,0.0,0.0,0.0,0.0,0.0,0.0,0.0,0.0,0.0,0.0,0.0,0.0,0.0,0.0,0.0,0.0,0.0,0.0,0.0,0.0,0.0,0.0,0.0,0.0,0.0,0.0,0.0,0.0,0.0,0.0,0.0,0.0,0.0,0.0,0.0,0.0,0.0,0.0,0.0,0.0,0.0,0.0,0.0,0.0,0.0,0.0,0.0,0.0,0.0,0.0,0.0,0.0,0.0,0.0,0.0,0.0,0.0,0.0,0.0,0.0,0.0,0.0,0.0,0.0,0.0,0.0,0.0,0.0,0.0,0.0,0.0,0.0,0.0,0.0,0.0,0.0,0.0,0.0,0.0,0.0,0.0,0.0,0.0,0.0,0.0,0.0,0.0,0.0,0.0,0.0,0.0,0.0,0.0,0.0,0.0,0.0,0.0,0.0,0.0,0.0,0.0,0.0,0.0,0.0,0.0,0.0,0.0,0.0,0.0,0.0,0.0,0.0,0.0,0.0,0.0,0.0,0.0,0.0,0.0,0.0,0.0,0.0,0.0,0.0,0.0,0.0,0.0,0.0,0.0,0.0,0.0,0.0,0.0,0.0,0.0,0.0,0.0,0.0,0.0,0.0,0.0,0.0,0.0,0.0,0.0,0.0,0.0,0.0,0.0,0.0,0.0,0.0,0.0,0.0,0.0,0.0,0.0,0.0,0.0,0.0,0.0,0.0,0.0,0.0,0.0,0.0,0.0,0.0,0.0,0.0,0.0,0.0,0.0,0.0,0.0,0.0,0.0,0.0,0.0,0.0,0.0,0.0,0.0,0.0,0.0,0.0,0.0,0.0,0.0,0.0,0.0,0.0,0.0,0.0,0.0,0.0,0.0,0.0,0.0,0.0,0.0,0.0,0.0,0.0,0.0,0.0,0.0,0.0,0.0,0.0,0.0,0.0,0.0,0.0,0.0,0.0,0.0,0.0,0.0,0.0,0.0,0.0,0.0,0.0,0.0,0.0,0.0,0.0,0.0,0.0,0.0,0.0,0.0,0.0,0.0,0.0,0.0,0.0,0.0,0.0,0.0,0.0,0.0,0.0,0.0,0.0,0.0,0.0,0.0,0.0,0.0,0.0,0.0,0.0,0.0,0.0,0.0,0.0,0.0,0.0,0.0,0.0,0.0,0.0,0.0,0.0,0.0,0.0,0.0,0.0,0.0,0.0,0.0,0.0,0.0,0.0,0.0,0.0,0.0,0.0,0.0,0.0,0.0,0.0,0.0,0.0,0.0,0.0,0.0,0.0,6.6867,0.0,0.0,0.0,0.0,0.0,0.0,0.0,0.0,0.0,0.0,0.0,0.0,0.0,0.0,0.0,0.0,0.0,0.0,0.0,0.0,0.0,0.0,0.0,0.0,0.0,0.0,0.0,6.559,6.6361,6.7628,6.7319,6.7281,6.7705,6.7705,6.7705,6.7705,6.8587,6.9627,7.09,7.0514,7.0514,7.0938,0.0,0.0,0.0,0.0,0.0,0.0,0.0,0.0,0.0,0.0,0.0,0.0,0.0,0.0,0.0,0.0,0.0,0.0,0.0,0.0,0.0,0.0,0.0,0.0,0.0,0.0,0.0,0.0,0.0,0.0,0.0,0.0,0.0,0.0,0.0,0.0,0.0,0.0,0.0,0.0,0.0,0.0,0.0,0.0,0.0,0.0,0.0,0.0,0.0,0.0,0.0,0.0,0.0,0.0,0.0,0.0,0.0,0.0,0.0,0.0,0.0,0.0,0.0,0.0,0.0,0.0,0.0,0.0,0.0,0.0,0.0,0.0,0.0,0.0,6.8913,0.0,0.0,0.0,0.0,0.0,0.0,0.0,0.0,0.0,0.0,0.0,0.0,0.0,0.0,0.0,0.0,0.0,0.0,0.0,0.0,0.0,0.0,0.0,0.0,6.4663,6.6399,6.7287,6.8053,6.8778,6.8854,6.8854,6.8854,6.897,6.9048,6.9048,7.0049,7.1129,7.2211,7.1129,7.1591,7.3595,0.0,0.0,0.0,0.0,0.0,0.0,0.0,0.0,0.0,0.0,0.0,0.0,0.0,0.0,0.0,0.0,0.0,0.0,0.0,0.0,0.0,0.0,0.0,0.0,0.0,0.0,0.0,0.0,0.0,0.0,0.0,0.0,0.0,0.0,0.0,0.0,0.0,0.0,0.0,0.0,0.0,0.0,0.0,0.0,0.0,0.0,0.0,0.0,0.0,0.0,0.0,0.0,0.0,0.0,0.0,0.0,0.0,0.0,0.0,0.0,0.0,0.0,0.0,0.0,0.0,0.0,0.0,7.8293,8.0063,8.148,8.1531,8.1144,8.0255,7.7193,7.3717,7.0181,7.0331,0.0,0.0,0.0,0.0,0.0,0.0,0.0,0.0,0.0,0.0,0.0,0.0,0.0,0.0,0.0,0.0,0.0,0.0,0.0,0.0,0.0,6.5668,6.7285,6.9052,6.9937,7.0437,7.055,7.055,7.055,7.055,7.1285,7.171,7.171,7.3243,7.3435,7.2211,7.3435,7.5663,7.8859,8.1402,8.2406,8.1906,0.0,0.0,0.0,0.0,0.0,0.0,0.0,0.0,0.0,0.0,0.0,0.0,0.0,0.0,0.0,0.0,0.0,0.0,0.0,0.0,0.0,0.0,0.0,0.0,0.0,0.0,0.0,0.0,0.0,0.0,0.0,0.0,0.0,0.0,0.0,0.0,0.0,0.0,0.0,0.0,0.0,0.0,0.0,0.0,6.0822,6.1597,0.0,0.0,0.0,0.0,0.0,0.0,0.0,0.0,0.0,0.0,0.0,0.0,0.0,7.4843,7.8739,8.134,8.283,8.3296,8.7009,8.8574,8.8193,8.9547,9.0101,8.9913,8.875,0.0,7.4194,7.1484,0.0,0.0,0.0,0.0,0.0,0.0,0.0,0.0,0.0,0.0,0.0,0.0,0.0,0.0,0.0,0.0,0.0,0.0,0.0,0.0,0.0,6.7515,6.9436,7.1624,7.4782,7.5628,7.3205,7.482,7.4859,7.2472,7.2741,7.2935,7.2935,7.3665,7.459,7.5751,7.9323,8.1858,8.3397,8.5482,8.6213,8.5598,8.2477,8.1129,8.0975,7.7707,0.0,0.0,0.0,0.0,0.0,0.0,0.0,0.0,0.0,0.0,0.0,0.0,0.0,0.0,0.0,0.0,0.0,0.0,0.0,0.0,0.0,0.0,0.0,0.0,0.0,0.0,0.0,0.0,0.0,0.0,0.0,0.0,0.0,0.0,0.0,0.0,0.0,0.0,0.0,6.2878,6.4575,6.1776,6.5264,6.6229,0.0,0.0,0.0,0.0,0.0,0.0,0.0,0.0,0.0,7.6763,7.9606,8.2426,8.5233,8.8733,9.1024,9.2102,9.4777,9.5873,9.5538,9.6245,9.6318,9.5873,9.5034,9.1104,8.4818,7.8836,7.5564,7.3927,0.0,0.0,0.0,0.0,7.0194,7.2459,0.0,0.0,0.0,0.0,0.0,0.0,0.0,0.0,0.0,0.0,0.0,0.0,6.7941,7.0131,7.2589,7.5819,7.9554,8.0362,7.7205,7.8359,7.7859,7.4895,7.4355,7.424,7.4472,7.4894,7.6973,8.0791,8.5016,8.7628,8.8744,9.0488,9.0958,9.0265,8.9413,8.7266,8.3978,8.0137,7.7671,0.0,0.0,0.0,0.0,0.0,0.0,0.0,0.0,0.0,0.0,0.0,0.0,0.0,0.0,0.0,0.0,0.0,0.0,0.0,0.0,0.0,0.0,0.0,0.0,0.0,0.0,0.0,0.0,0.0,0.0,0.0,0.0,0.0,0.0,0.0,0.0,0.0,0.0,6.6303,6.7733,6.3337,6.8414,6.9716,0.0,0.0,0.0,0.0,0.0,0.0,7.5114,7.8053,8.0877,8.3553,8.7459,9.0468,9.2482,9.5713,9.8149,9.9774,10.1205,10.2018,10.2201,10.238,10.1893,10.0897,10.0099,9.7938,9.4299,8.5742,8.0915,7.8505,7.4212,7.3637,7.5002,7.3628,7.4773,7.7108,0.0,0.0,0.0,0.0,0.0,0.0,0.0,0.0,0.0,0.0,0.0,6.4597,7.1211,7.417,7.7671,8.2676,8.3332,8.337,8.3176,7.956,7.7673,7.8213,7.6709,7.6247,7.7096,7.8667,8.1937,8.6942,8.878,9.178,9.5812,9.7516,9.8263,9.8184,9.7374,9.4216,8.9049,8.1633,7.9365,8.0477,0.0,0.0,0.0,0.0,0.0,0.0,0.0,0.0,0.0,0.0,0.0,0.0,0.0,0.0,0.0,0.0,0.0,0.0,0.0,0.0,0.0,0.0,0.0,0.0,0.0,0.0,0.0,0.0,0.0,0.0,0.0,0.0,0.0,0.0,0.0,0.0,0.0,0.0,0.0,6.8968,7.4035,0.0,0.0,0.0,0.0,7.3433,7.6475,7.9498,8.2243,8.6182,8.9963,9.3465,9.6027,9.8831,10.2017,10.2196,10.3094,10.4703,10.5684,10.6502,10.7315,10.7996,10.7514,10.5983,10.5081,10.2915,9.9181,8.9532,8.5038,8.3741,7.8881,7.8766,8.1017,7.8082,7.8921,8.1185,0.0,0.0,0.0,0.0,0.0,0.0,0.0,0.0,6.1284,6.2703,6.5282,6.9363,7.5597,8.0481,8.4942,8.8983,9.0293,8.9983,8.7784,8.4245,8.1823,8.0981,7.8327,7.775,7.971,8.1402,8.5555,9.2283,9.5095,9.8365,10.1996,10.2611,10.2588,10.1984,10.0584,9.8405,9.5147,8.6893,8.2212,8.0031,7.5995,7.4938,0.0,0.0,0.0,0.0,0.0,0.0,0.0,0.0,0.0,0.0,0.0,0.0,0.0,0.0,0.0,0.0,0.0,0.0,0.0,0.0,0.0,0.0,0.0,0.0,0.0,0.0,0.0,0.0,0.0,0.0,0.0,0.0,0.0,0.0,0.0,0.0,0.0,7.808,8.227,0.0,7.5976,7.6068,7.7407,7.9566,8.2442,8.6146,9.0758,9.3848,9.7015,10.0408,10.239,10.4698,10.7414,10.7912,10.8714,10.979,11.0083,10.9911,10.9187,10.9391,10.8987,10.7886,10.7084,10.5385,10.2994,9.7975,9.3281,8.8876,8.4466,8.3733,8.4952,8.3345,8.4436,8.652,0.0,0.0,0.0,0.0,0.0,0.0,0.0,0.0,6.1592,6.3894,6.7896,7.3324,8.0714,8.6559,9.1558,9.5559,9.5638,9.4367,9.1785,8.6589,8.3206,8.2326,7.9904,7.9519,8.1477,8.5407,9.0348,9.6289,10.0287,10.3491,10.589,10.5897,10.5516,10.4579,10.3303,10.1407,9.8994,9.2932,8.7039,8.1352,7.7598,7.7252,7.8395,0.0,0.0,0.0,0.0,0.0,0.0,0.0,0.0,0.0,0.0,0.0,0.0,0.0,0.0,0.0,0.0,0.0,0.0,0.0,0.0,0.0,0.0,0.0,0.0,0.0,0.0,0.0,0.0,0.0,0.0,0.0,0.0,0.0,0.0,7.9251,8.3678,8.4596,8.9045,8.9641,8.3619,8.4083,8.5632,8.7813,9.041,9.3772,9.8107,10.0603,10.3188,10.5909,10.7598,10.9281,11.1201,11.1698,11.2097,11.2401,11.2401,11.1704,11.0419,11.0419,10.9984,10.9213,10.8589,10.7488,10.5789,10.3586,9.9989,9.552,9.1188,8.9784,9.0184,8.9353,9.0078,9.1308,0.0,0.0,0.0,0.0,0.0,0.0,0.0,6.0784,6.2053,6.5477,6.9749,7.6328,8.6442,9.2217,9.7333,10.2404,9.8863,9.598,9.5141,8.6288,8.1439,8.2249,8.1516,8.1595,8.2672,9.0814,9.6365,9.9087,10.3995,10.6811,10.7685,10.7684,10.7205,10.6414,10.56,10.3416,10.0406,9.9369,9.3709,8.5187,8.2468,8.0878,8.0098,0.0,0.0,0.0,0.0,0.0,0.0,0.0,0.0,0.0,0.0,0.0,0.0,0.0,0.0,0.0,0.0,0.0,0.0,0.0,0.0,0.0,0.0,0.0,0.0,0.0,0.0,0.0,0.0,0.0,0.0,0.0,0.0,0.0,7.5904,8.373,8.8911,8.8461,9.4154,9.625,9.1468,9.3886,9.6387,9.798,10.0309,10.2406,10.3995,10.6392,10.8406,11.01,11.1594,11.2805,11.3582,11.3618,11.3209,11.2511,11.239,11.1992,11.121,11.121,11.0781,11.0015,11.0015,10.9103,10.7488,10.5893,10.4714,10.3518,9.8704,9.6832,9.6722,9.5929,9.5589,9.5313,0.0,0.0,0.0,0.0,0.0,0.0,0.0,6.0398,6.2247,6.6248,7.371,8.1825,9.0173,9.7831,10.391,10.7795,10.1404,9.7057,9.6826,8.694,8.1208,8.1402,8.1208,8.4364,9.137,9.4374,9.8941,10.5211,10.7092,10.8511,10.9301,10.9305,10.8906,10.8097,10.7286,10.5681,10.3685,10.2211,9.9085,9.4488,8.7643,8.4118,8.258,0.0,0.0,0.0,0.0,0.0,0.0,0.0,0.0,0.0,0.0,0.0,0.0,0.0,0.0,0.0,0.0,0.0,0.0,0.0,0.0,0.0,0.0,0.0,0.0,0.0,0.0,0.0,0.0,0.0,0.0,0.0,7.6439,8.1589,8.3392,8.8939,9.4467,9.8959,10.1582,10.2412,10.0393,10.0498,10.1117,10.2201,10.3995,10.6014,10.8185,10.9496,11.0891,11.2596,11.2994,11.3692,11.4494,11.4494,11.4415,11.4115,11.3497,11.28,11.2108,11.1515,11.1106,11.0891,11.0891,11.0309,10.9292,10.8211,10.7005,10.5311,10.1609,9.981,9.9292,9.9076,9.786,9.6203,0.0,0.0,0.0,0.0,0.0,0.0,0.0,5.9935,6.2167,6.7476,7.6938,8.6091,9.3749,10.2217,10.7911,10.9485,10.2212,9.6747,9.4978,8.6865,8.1979,8.1631,0.0,8.9404,9.5908,9.8916,10.3005,10.8118,10.9315,10.991,11.0007,11.0288,11.0113,10.9281,10.8809,10.7708,10.6082,10.5091,10.3491,10.1009,9.5799,9.1675,8.8316,8.4424,8.3264,8.3352,8.0823,8.1062,8.2145,7.907,0.0,0.0,0.0,0.0,0.0,0.0,0.0,0.0,0.0,0.0,0.0,0.0,0.0,0.0,0.0,0.0,0.0,0.0,0.0,0.0,0.0,0.0,0.0,0.0,8.253,8.8691,9.3164,9.6688,10.0314,10.4514,10.6308,10.7105,10.7,10.6192,10.6418,10.7897,10.8589,10.969,11.1416,11.2003,11.291,11.4615,11.461,11.5008,11.5804,11.5798,11.551,11.4813,11.3985,11.3215,11.2401,11.1588,11.121,11.121,11.121,11.088,11.0414,10.9606,10.8809,0.0,0.0,0.0,0.0,0.0,9.9003,9.7094,0.0,0.0,0.0,0.0,0.0,0.0,0.0,5.9433,6.1972,6.8935,7.9167,8.8669,9.6132,10.4482,10.9411,10.8713,10.1709,9.5478,9.1054,8.6365,8.3751,8.371,9.0599,9.576,9.8572,10.3982,10.7608,10.9206,11.0783,11.1182,11.0388,11.1106,11.0995,11.0283,11.0283,10.9397,10.8007,10.7897,10.7011,10.5401,10.4609,10.0803,9.5268,9.2069,9.1051,9.1022,8.8601,8.653,8.4573,8.2701,0.0,0.0,0.0,0.0,0.0,0.0,0.0,0.0,0.0,0.0,0.0,0.0,0.0,0.0,0.0,0.0,0.0,0.0,0.0,0.0,0.0,0.0,0.0,0.0,8.8107,9.4614,10.3201,10.5385,10.6292,10.7115,10.9103,11.0718,11.1399,11.0781,11.1306,11.3587,11.3099,11.3099,11.3991,0.0,0.0,0.0,0.0,11.6617,11.7297,11.7187,11.6495,11.5112,11.4096,11.3288,11.2616,11.1614,11.1205,11.1284,11.121,11.121,11.1094,11.0414,11.0015,10.958,10.6486,10.431,10.281,10.1205,9.9627,9.8163,0.0,0.0,0.0,0.0,0.0,0.0,0.0,5.9085,6.2204,6.9706,7.8519,8.6482,9.2789,10.0983,10.6292,10.6782,10.0515,9.4131,8.8517,8.594,8.7017,9.2294,9.6603,10.0983,10.55,10.8702,11.0784,11.1796,11.2701,11.3101,11.2884,11.311,11.2695,11.1919,11.1919,11.1405,11.0493,10.9795,10.8993,10.7986,10.7194,10.3084,9.7265,9.5926,9.3084,8.9659,8.8504,8.9038,8.9735,8.6181,8.6205,8.6816,8.1977,0.0,0.0,0.0,0.0,0.0,0.0,0.0,0.0,0.0,0.0,0.0,0.0,0.0,0.0,0.0,0.0,0.0,0.0,0.0,0.0,8.8633,9.6096,10.2698,10.7184,11.0199,11.1998,11.2192,11.259,11.3,11.3099,11.2994,11.3404,11.4488,11.4409,11.5002,11.6385,11.6495,11.6899,11.7902,11.7896,11.8006,11.8195,11.7486,11.7003,11.6716,0.0,0.0,11.4305,11.2212,11.1588,11.2097,11.1515,11.121,11.1216,11.099,11.0188,10.8793,10.6895,10.549,10.4415,10.2805,10.1604,10.0586,0.0,0.0,0.0,0.0,0.0,0.0,0.0,5.8357,6.1318,6.8092,7.6401,8.3634,8.8748,9.4982,9.8447,9.7634,9.2866,8.8865,8.6322,8.8938,9.3247,9.9216,10.3095,10.7084,11.1281,11.2516,11.3688,11.4987,11.4914,11.461,11.42,11.4604,11.4211,11.2989,11.3387,11.3209,11.2286,11.1515,11.1012,11.0487,10.9679,10.7189,10.3701,10.1714,9.9135,9.6534,9.5763,9.5185,9.4414,9.1583,9.0363,8.9225,8.4792,8.1925,7.9649,0.0,0.0,0.0,0.0,0.0,0.0,0.0,0.0,0.0,0.0,0.0,0.0,0.0,0.0,7.493,7.9172,0.0,8.9211,9.6381,10.2082,10.7106,11.1203,11.3497,11.4689,11.4194,11.3796,11.3912,11.472,11.4415,11.4708,11.5908,11.5982,11.6495,11.7707,11.8195,11.8783,11.959,11.9994,12.011,11.9706,11.8814,11.8006,11.7193,11.5191,11.4415,11.4703,11.2684,11.1992,11.2401,11.1504,11.121,11.121,11.121,11.0487,10.9318,10.851,10.7189,10.56,10.4389,10.3403,10.2495,0.0,0.0,0.0,0.0,0.0,0.0,0.0,5.7857,6.0356,6.6094,7.3397,7.9512,8.3243,8.7476,8.9135,8.6908,8.5253,8.4905,8.6284,9.3516,10.0289,10.591,10.9783,11.3209,11.6189,11.6203,11.6712,11.78,11.7189,11.6617,11.5987,11.6611,11.6188,11.4793,11.5296,11.5081,11.42,11.3282,11.2915,11.28,11.1992,11.13,11.0388,10.7587,10.571,10.4509,10.3696,10.0907,9.7539,9.6529,9.3478,8.9698,8.7247,8.5591,8.3711,7.9286,7.7982,0.0,0.0,0.0,0.0,0.0,0.0,0.0,0.0,7.1697,7.2506,7.5709,7.7786,8.1025,8.7528,9.1375,9.5978,10.3487,10.7213,11.0682,11.4886,11.6281,11.669,11.6103,11.5112,11.5008,11.6287,11.5883,11.6097,11.7608,11.7817,11.83,11.9113,11.989,12.0618,12.1309,12.1982,12.1903,12.1095,12.011,11.8899,11.7413,11.5615,11.4886,11.5002,11.3392,11.2616,11.2585,11.1583,11.121,11.121,11.121,11.0707,10.9984,11.0204,10.8909,10.7011,10.6009,10.5018,10.388,0.0,0.0,0.0,0.0,0.0,0.0,0.0,0.0,6.0164,6.5362,6.9477,7.2666,7.4701,7.8704,8.0785,7.9713,8.4136,8.8327,9.1441,9.8829,10.6292,11.3681,11.6484,11.8687,12.0591,12.0404,12.0009,11.9398,11.9986,12.0288,12.0214,12.0288,11.9811,11.8899,11.8311,11.7608,11.6716,11.518,11.4519,11.4488,11.3692,11.3294,11.311,11.1998,10.9806,10.7095,10.6313,10.2008,9.7016,9.8296,9.602,9.2753,9.3088,9.1138,8.8189,8.5494,8.1101,7.6654,7.4362,7.1531,6.9937,7.2872,7.2622,7.3341,0.0,8.0621,8.0987,8.4268,8.6809,8.9449,9.2597,9.7573,10.2708,10.751,11.2095,11.5699,11.7712,11.9413,12.0288,12.0208,11.8814,11.7896,11.8085,11.8091,11.8385,11.9308,11.9988,12.0802,12.1615,12.2411,12.2888,12.2992,12.3108,12.2784,12.1988,12.041,11.9198,11.8184,11.5914,11.5191,11.5815,11.4206,11.3514,11.3404,11.1882,11.121,11.121,11.121,11.0707,11.01,11.0817,11.0493,10.9397,10.7897,10.6302,10.4708,0.0,0.0,0.0,0.0,0.0,0.0,0.0,0.0,0.0,6.3211,6.6208,6.8438,6.9629,7.0937,7.136,7.0477,7.809,8.5476,9.1362,10.1717,11.069,11.7794,11.99,12.1495,12.2586,12.1989,12.1697,12.1799,12.2117,12.2092,12.1615,12.2092,12.1609,12.041,12.0514,12.0104,11.9297,11.8085,11.7614,11.7504,11.6213,11.5699,11.5479,11.3203,11.0388,10.7383,10.6119,10.2406,0.0,0.0,9.5951,9.3864,9.4199,9.2056,8.8923,8.6522,8.1709,7.6275,7.2174,7.1634,7.2379,7.309,7.5459,7.885,8.3506,8.4617,8.5858,9.0077,9.2887,9.5922,10.0399,10.4292,10.8308,11.2881,11.581,11.8085,12.03,12.0294,12.0,11.948,11.841,11.8085,11.9009,11.9082,11.9407,12.0294,12.1095,12.1903,12.279,12.3597,12.3995,12.3995,12.4485,12.4111,12.2784,12.1211,11.9884,11.9088,11.6696,11.592,11.6605,11.4996,11.3796,11.28,11.1693,11.121,11.121,11.121,11.0995,11.0707,11.1106,11.0707,10.9916,10.8694,10.7886,10.6884,0.0,0.0,0.0,0.0,0.0,0.0,0.0,0.0,0.0,0.0,6.3209,6.4708,6.5287,6.4746,6.4265,6.4232,7.3126,8.2281,9.0669,10.2386,11.2617,12.0404,12.2309,12.3692,12.4791,12.4118,12.3995,12.4613,12.4613,12.4289,12.3793,12.4405,12.3995,12.29,12.331,12.301,12.2209,12.1101,12.052,12.019,11.8783,11.7817,11.6789,11.3093,10.9213,10.54,10.399,9.9979,0.0,0.0,9.2501,9.0817,9.1955,9.0656,8.8347,8.631,8.1476,7.5878,7.1591,7.2454,7.4783,7.5621,7.9611,8.4213,8.7684,8.9266,9.1248,9.5694,9.8379,10.1394,10.6198,10.9213,11.2407,11.6495,11.8404,12.0214,12.2386,12.1285,11.97,11.8184,11.6984,11.6617,11.7504,11.8605,11.97,12.0802,12.1915,12.279,12.3591,12.4405,12.4809,12.4809,12.5402,12.4882,12.3285,12.1903,12.0587,11.9187,11.7284,11.6501,11.6789,11.5394,11.4005,11.2695,11.1919,11.1399,11.121,11.121,11.121,11.121,11.121,11.0812,11.0199,10.9386,10.8688,10.7813,0.0,0.0,0.0,0.0,0.0,0.0,0.0,0.0,0.0,0.0,0.0,0.0,0.0,6.0571,6.1115,6.3171,7.1166,8.04,9.0554,10.0683,11.1198,12.2084,12.3886,12.5797,12.8197,12.7998,12.7892,12.8009,12.8009,12.7892,12.7892,12.7892,12.7892,12.7813,12.7115,12.6308,12.5488,12.3891,12.2704,12.1994,12.1095,11.9285,11.6685,11.1887,10.6093,10.0393,9.9575,0.0,0.0,0.0,8.4674,8.2068,8.5995,8.7165,8.6883,8.5814,8.0763,7.5368,7.4548,7.4409,7.6067,8.2585,8.5539,8.8301,9.3923,9.6428,9.8489,10.1788,10.3681,10.5705,10.8285,11.13,11.431,11.6789,11.989,12.2618,12.4185,12.301,12.0802,11.7596,11.5112,11.3392,11.2695,11.6097,11.9107,12.0802,12.2417,12.3585,12.4399,12.5219,12.5702,12.5702,12.5702,12.4882,12.3285,12.2496,12.0802,11.841,11.7602,11.6801,11.5999,11.5185,11.4305,11.3508,11.2695,11.1913,11.121,11.121,11.121,11.121,11.121,11.1216,11.1111,11.0314,10.8516,10.6308,0.0,0.0,0.0,0.0,0.0,0.0,0.0,0.0,0.0,0.0,0.0,0.0,0.0,0.0,0.0,0.0,6.881,7.6317,8.4978,9.6467,10.6116,11.3301,12.029,12.4284,12.499,12.6489,12.7599,12.8113,12.8113,12.8113,12.8113,12.8113,12.8113,12.8113,12.7813,12.7482,12.7195,12.6081,12.5206,12.4307,12.1909,12.011,11.8085,11.2218,10.4991,9.7236,0.0,0.0,0.0,0.0,7.8508,7.7366,7.9784,8.0192,7.9374,7.7445,7.6802,7.6663,7.6433,7.9516,8.3978,8.8993,9.2638,9.6382,10.1609,10.3193,10.4,10.5616,10.549,10.5411,10.6182,10.8615,11.1594,11.4991,11.8814,12.2098,12.4185,12.3084,12.0116,11.4708,11.3802,11.2407,10.9512,11.289,11.6806,12.0581,12.1909,12.3304,12.5182,12.5592,12.5702,12.5702,12.5702,12.4882,12.3285,12.2496,12.1101,11.9192,11.7817,11.7088,11.6801,11.54,11.4384,11.3587,11.2689,11.1913,11.121,11.121,11.121,11.121,11.121,11.0891,11.0388,11.0094,10.9098,10.7807,0.0,0.0,0.0,0.0,0.0,0.0,0.0,0.0,0.0,0.0,0.0,0.0,0.0,0.0,0.0,0.0,0.0,7.2653,7.9982,8.9903,9.8364,10.4802,11.1112,11.501,11.6298,11.7314,11.9082,12.1615,12.2203,12.3383,12.5109,12.5696,12.5996,12.599,12.632,12.6491,12.6718,12.531,12.4105,12.2716,11.8599,11.5301,11.2003,10.5212,9.7461,0.0,0.0,0.0,0.0,0.0,7.2753,7.2565,7.3879,7.4668,7.4934,7.3946,7.5972,7.8994,8.1272,8.5675,9.0808,9.5731,9.936,10.2705,10.6413,10.7304,10.7194,10.679,10.5385,10.4016,10.3094,10.3985,10.6486,11.1405,11.4714,11.8195,12.301,12.1205,11.7902,11.3796,11.2396,11.0907,10.8301,11.0608,11.4505,11.959,12.0985,12.2716,12.5102,12.5506,12.5702,12.5702,12.5702,12.5109,12.3695,12.3194,12.1988,11.9994,11.841,11.7492,11.7193,11.6092,11.5112,11.3985,11.3215,11.2401,11.1583,11.1284,11.121,11.121,11.121,11.0891,11.0414,11.0414,10.9905,10.8987,0.0,0.0,0.0,0.0,0.0,0.0,0.0,0.0,0.0,0.0,0.0,0.0,0.0,0.0,0.0,0.0,0.0,0.0,7.5609,8.1391,8.8337,9.6716,9.7497,9.9558,10.3403,10.2196,10.4184,10.969,11.119,11.431,11.8789,12.0489,12.1217,12.1217,12.2013,12.2784,12.3304,12.0991,11.9003,11.6905,11.1489,10.5505,9.9071,9.1996,0.0,0.0,0.0,0.0,6.8349,6.7837,6.7727,6.7954,6.8711,7.0993,7.3754,7.5438,7.8369,8.245,8.876,9.2607,9.636,10.2595,10.539,10.7011,10.8615,10.8793,10.7996,10.5406,10.3387,10.1415,9.8878,9.808,9.9852,10.6292,10.8406,11.2291,12.0918,11.8201,11.5185,11.4917,11.1588,10.9197,10.9087,10.9911,11.2585,11.8085,12.0,12.1903,12.4399,12.5292,12.5702,12.5702,12.5702,12.5292,12.4515,12.4399,12.3188,12.0912,11.9187,11.8006,11.7309,11.7193,11.6318,11.4782,11.3985,11.3215,11.2286,11.1583,11.121,11.121,11.121,11.121,11.121,11.121,11.0707,10.9795,0.0,0.0,0.0,0.0,0.0,0.0,0.0,0.0,0.0,0.0,0.0,0.0,0.0,0.0,0.0,0.0,0.0,0.0,6.8942,7.4538,7.9716,8.4256,9.1346,9.625,9.8484,10.109,10.3403,10.5505,10.5904,10.6712,10.7886,10.8982,10.9087,10.8589,10.938,10.9491,10.9103,10.7886,10.6119,10.3686,0.0,9.7084,9.3496,0.0,0.0,0.0,0.0,7.1537,6.7237,6.7329,6.8309,6.9526,6.9746,7.1575,7.4308,7.7739,8.2333,8.7445,9.2717,9.8147,10.3282,10.7409,10.8815,10.9501,11.1111,10.9213,10.6082,10.3083,9.8273,9.3538,8.9862,9.2973,9.764,10.2317,10.979,11.6899,12.219,12.1897,11.9988,11.7015,11.6208,11.5216,11.3418,11.4513,11.6685,11.9994,12.0116,12.1505,12.5182,12.5592,12.5702,12.5702,12.5702,12.5292,12.4515,12.3304,12.2392,12.1805,11.9486,11.8306,11.8085,11.6916,11.5815,11.4813,11.4598,11.3681,11.2401,11.2212,11.1693,11.121,11.121,11.121,11.121,11.121,11.1106,11.0702,0.0,0.0,0.0,0.0,0.0,0.0,0.0,0.0,0.0,0.0,0.0,0.0,0.0,0.0,0.0,0.0,0.0,0.0,0.0,6.8575,7.2162,7.4908,7.9588,8.3365,8.6036,8.7619,8.9858,9.2799,9.3492,9.4923,9.7016,9.7814,9.8144,9.8117,9.8924,9.9255,9.9071,9.7892,9.6203,0.0,0.0,0.0,0.0,0.0,0.0,7.4456,7.3137,7.1057,6.9243,7.1217,7.1556,7.1655,7.4518,7.6831,7.9511,8.4654,8.9133,9.3685,9.9306,10.421,10.8384,11.0896,11.1306,11.0603,10.8982,10.6717,10.2889,9.647,9.1996,8.7774,8.2953,8.7101,9.3015,9.8494,10.6701,11.4892,12.1793,12.1787,12.0691,11.9517,11.9113,11.8385,11.6984,11.8085,11.9805,12.2313,12.1401,12.1988,12.4992,12.5513,12.5702,12.5702,12.5702,12.5513,12.4992,12.3787,12.301,12.2606,12.0887,11.959,11.8899,11.7608,11.6611,11.5804,0.0,11.3802,11.2884,11.2218,11.1583,11.121,11.121,11.121,11.121,11.121,11.121,11.11,0.0,0.0,0.0,0.0,0.0,0.0,0.0,0.0,0.0,0.0,0.0,0.0,0.0,0.0,0.0,0.0,0.0,0.0,0.0,0.0,6.6012,6.8322,6.7283,6.8348,7.1941,7.0844,7.2642,7.7455,7.8883,8.1742,8.5963,8.6762,8.7532,8.8234,8.9096,8.9826,9.0257,8.8821,8.7284,8.5416,0.0,0.0,0.0,0.0,0.0,6.8641,6.885,6.9947,7.2086,7.6934,7.6572,7.5172,8.1379,8.4576,8.7252,9.3423,9.7062,10.0408,10.6386,10.9905,11.2212,11.3587,11.3104,11.0781,10.5311,10.2705,9.8552,8.8454,8.5302,8.2741,7.7472,8.1411,8.7954,9.5474,10.2412,11.0498,12.0808,12.0508,12.011,12.2502,12.1401,12.0483,12.0703,12.1285,12.26,12.4809,12.3604,12.3298,12.4693,12.5402,12.5702,12.5702,12.5702,12.5702,12.5702,12.4992,12.4295,12.3396,12.249,12.1217,11.9602,11.8715,11.7786,11.6899,11.4708,11.3692,11.3514,11.1992,11.1289,11.121,11.121,11.121,11.121,11.121,11.121,11.121,0.0,0.0,0.0,0.0,0.0,0.0,0.0,0.0,0.0,0.0,6.0583,0.0,0.0,0.0,0.0,0.0,0.0,0.0,0.0,0.0,0.0,6.5821,6.692,6.8134,6.9479,7.054,7.1241,7.1582,7.1838,7.2749,7.4247,7.5058,7.5502,7.5685,7.65,7.6574,7.6052,7.5759,7.4694,7.316,7.2316,0.0,0.0,0.0,0.0,0.0,6.9434,6.9473,7.0751,7.9657,8.2606,8.3283,8.7725,9.1184,9.446,9.8939,10.25,10.5799,10.9491,11.28,11.5185,11.5485,11.3503,11.0298,10.5888,9.9649,9.2533,8.4646,7.9686,7.5861,7.2885,7.8614,8.6656,9.529,10.3812,11.259,12.1793,12.3298,12.4105,12.591,12.5213,12.5188,12.6504,12.6204,12.6308,12.7415,12.6601,12.6197,12.6491,12.599,12.5702,12.5702,12.5702,12.5702,12.5702,12.5592,12.5109,12.4295,12.279,12.1217,11.9608,11.8085,11.6984,11.6097,11.5118,0.0,11.3508,11.2585,11.1808,11.121,11.121,11.121,11.121,11.121,11.121,11.121,0.0,0.0,0.0,0.0,0.0,0.0,0.0,0.0,0.0,0.0,6.7914,6.5972,0.0,0.0,0.0,0.0,0.0,0.0,0.0,0.0,0.0,0.0,0.0,0.0,6.6402,6.8385,6.9045,6.8241,0.0,6.9052,6.9412,6.9376,6.9596,7.0003,7.041,7.0377,7.0007,7.0007,6.9816,6.9446,6.9015,6.8648,0.0,0.0,0.0,0.0,7.0268,7.1362,7.3622,7.932,8.5191,9.096,9.5978,9.9186,10.2018,10.6502,10.8883,11.0896,11.4604,11.6984,11.8306,11.7504,11.4189,10.9312,10.1788,9.4483,8.6738,7.7749,7.4037,7.1795,6.9776,7.675,8.4862,9.1253,9.8709,10.7414,11.8012,11.948,12.1309,12.6301,12.6895,12.7318,12.8002,12.81,12.8283,12.8694,12.84,12.7806,12.6882,12.6094,12.5702,12.5702,12.5702,12.5702,12.5702,12.5702,12.5292,12.4515,12.3708,12.2502,12.0808,11.9187,11.8012,11.721,11.551,11.4598,11.4084,11.2915,11.2218,11.1808,11.1405,11.121,11.121,11.121,11.121,11.121,0.0,0.0,0.0,0.0,0.0,0.0,0.0,6.5254,6.6792,7.4968,7.5597,7.3529,6.8948,6.4681,6.2063,0.0,0.0,0.0,0.0,0.0,0.0,0.0,0.0,0.0,6.4353,0.0,0.0,6.6256,6.6883,0.0,0.0,0.0,0.0,0.0,6.77,6.77,6.77,6.77,6.8171,0.0,0.0,6.8351,0.0,0.0,0.0,0.0,0.0,7.2473,7.5366,7.8458,8.5275,9.3578,9.9851,10.4289,10.7886,11.1709,11.3587,11.5197,11.8905,12.0581,12.0991,11.9113,11.4782,10.8211,9.7654,8.9798,8.1937,7.1912,6.9563,6.9089,6.8358,7.4889,8.2084,8.7362,9.3093,10.1095,11.3288,11.529,11.83,12.58,12.7709,12.84,12.859,12.9018,12.9385,12.9488,12.9415,12.8607,12.7005,12.6094,12.5702,12.5702,12.5702,12.5702,12.5702,12.5702,12.5409,12.4815,12.4589,12.3714,12.1982,12.041,11.9088,11.8006,11.581,11.4813,11.4703,11.3203,11.259,11.2286,11.1693,11.1405,11.121,11.121,11.121,11.121,0.0,0.0,0.0,0.0,0.0,0.0,0.0,6.7525,7.1444,8.1418,8.0711,7.8218,7.543,7.1344,6.6694,0.0,0.0,0.0,0.0,0.0,0.0,0.0,0.0,0.0,0.0,0.0,0.0,6.5402,6.5475,0.0,0.0,0.0,0.0,0.0,0.0,6.77,6.77,6.77,0.0,0.0,0.0,0.0,0.0,0.0,0.0,0.0,0.0,7.0023,7.1409,7.8634,8.2223,8.5016,9.2736,10.1793,10.9806,11.0204,11.3387,11.7413,12.011,12.1897,12.2484,12.011,11.4793,10.7383,9.6805,8.7692,7.9099,7.0727,6.7834,6.747,6.9489,7.2393,7.7492,8.6701,9.1216,9.7782,10.9889,11.5406,11.9994,12.5182,12.7813,12.9495,13.0199,12.9715,12.9605,13.0302,12.9708,12.8607,12.7005,12.6094,12.5702,12.5702,12.5702,12.5702,12.5702,12.5702,12.5702,12.5592,12.4803,12.3714,12.1982,12.041,11.8789,11.7193,11.5504,11.4813,0.0,11.3918,11.311,11.2401,11.2286,11.1803,11.121,11.121,11.121,11.121,0.0,0.0,0.0,0.0,0.0,0.0,0.0,6.7705,7.1295,8.4878,8.5054,8.3231,8.1535,7.8022,7.2145,0.0,0.0,0.0,0.0,0.0,0.0,0.0,0.0,0.0,0.0,0.0,6.6846,6.6032,6.6516,0.0,0.0,0.0,0.0,0.0,0.0,6.77,6.77,6.77,0.0,0.0,0.0,0.0,0.0,0.0,0.0,0.0,0.0,0.0,7.1381,7.2642,7.6313,8.0552,8.1384,8.9,9.903,10.6386,11.0891,11.4886,12.0716,12.3194,12.3402,12.0991,11.4096,10.5317,9.5768,8.5527,7.6163,6.9526,6.6916,6.6506,6.8932,7.0554,7.4081,8.1868,8.2994,8.7105,9.9328,10.3119,10.8406,11.8605,12.29,12.6601,13.0792,13.0896,13.0719,13.0492,12.9795,12.9011,12.8394,12.7115,12.6381,12.6381,12.5996,12.5702,12.5702,12.5702,12.5702,12.5702,12.5409,12.4405,12.279,12.1095,11.948,11.7817,11.6213,11.5516,0.0,11.4096,11.3398,11.2989,11.2108,11.1515,11.121,11.121,11.121,11.121,0.0,0.0,0.0,0.0,0.0,0.0,6.8665,6.8738,7.2422,8.5815,8.6973,8.6018,8.4652,8.0113,7.4118,6.6573,0.0,0.0,0.0,0.0,0.0,0.0,0.0,0.0,0.0,0.0,6.7403,6.6846,6.7403,6.77,0.0,0.0,6.77,6.77,0.0,0.0,0.0,0.0,0.0,0.0,0.0,0.0,0.0,0.0,0.0,0.0,0.0,0.0,0.0,0.0,0.0,7.5944,7.3672,7.8472,8.7439,9.9985,10.6895,11.2097,11.9511,12.2814,12.3591,12.1383,11.3613,10.3995,9.4813,8.4095,7.4518,6.8872,6.6402,6.6099,6.8785,6.9926,7.2275,7.783,7.8042,8.1305,9.2069,9.53,10.0806,11.2192,11.6696,12.1505,12.8192,13.0615,13.1496,13.0902,13.0082,12.9715,12.9715,12.81,12.7109,12.6889,12.6394,12.591,12.5702,12.5702,12.5702,12.5702,12.5482,12.4589,12.3212,12.1395,11.9694,11.83,11.6696,11.5999,0.0,11.4793,11.4211,11.3796,11.239,11.1808,11.1504,11.1289,11.121,11.121,0.0,0.0,0.0,0.0,0.0,0.0,0.0,7.1369,7.6337,8.3953,8.5793,8.5675,8.382,7.6055,7.1283,7.2042,0.0,0.0,0.0,0.0,0.0,0.0,0.0,0.0,0.0,0.0,0.0,6.77,6.77,6.77,6.77,6.77,6.77,6.77,0.0,0.0,0.0,0.0,0.0,0.0,0.0,0.0,0.0,0.0,0.0,0.0,0.0,0.0,0.0,0.0,0.0,0.0,0.0,7.3286,7.7262,9.0548,10.1315,11.0089,11.5682,12.0202,12.2888,12.1316,11.3613,10.3812,9.4047,8.3654,7.4518,6.8872,6.6402,6.6282,6.9489,7.0763,7.2338,7.5612,7.8842,8.3508,9.0899,9.6025,10.12,10.7016,10.979,11.4194,12.1511,12.8009,13.1717,13.1717,13.0896,13.0492,13.0492,12.9,12.7702,12.6889,12.6889,12.6491,12.5702,12.5702,12.5702,12.5702,12.4888,12.4105,12.3212,12.0691,11.9192,11.83,11.6696,11.5999,0.0,11.6005,11.5479,11.4703,11.3912,11.3104,11.2291,11.1509,11.121,11.121,0.0,0.0,0.0,0.0,0.0,0.0,0.0,6.4692,6.8213,7.6805,7.7882,7.8661,8.0778,7.4976,7.1232,7.2104,0.0,0.0,0.0,0.0,0.0,0.0,0.0,0.0,0.0,0.0,0.0,0.0,0.0,6.9636,7.0139,6.9599,6.9049,6.8495,6.7954,6.77,0.0,0.0,0.0,0.0,0.0,0.0,6.9561,0.0,0.0,0.0,0.0,0.0,0.0,0.0,0.0,0.0,0.0,0.0,0.0,7.9754,8.9564,9.9066,10.3613,10.7797,11.0109,10.6806,10.0796,9.3786,8.6816,7.9661,7.3164,6.8618,6.6846,6.6766,6.8895,6.9045,7.1174,7.8291,7.9396,8.1713,8.8431,9.4997,10.119,10.6884,11.8483,12.7189,13.0015,13.1587,13.2291,13.171,13.1013,13.0492,13.0492,12.9495,12.8583,12.7702,12.6687,12.5996,12.5702,12.5702,12.5702,12.5702,12.4888,12.4105,12.3212,12.0691,11.9198,11.83,11.6696,11.5999,11.5889,11.4793,11.4206,11.3796,11.2506,11.1808,11.1504,11.1289,11.121,11.121,0.0,0.0,0.0,0.0,0.0,0.0,0.0,6.1686,6.4434,7.0962,7.1609,7.3074,7.7428,7.1706,6.8826,7.1942,0.0,0.0,0.0,0.0,0.0,0.0,0.0,0.0,0.0,0.0,0.0,0.0,0.0,0.0,0.0,0.0,7.1288,6.9335,6.8832,6.8288,0.0,0.0,0.0,0.0,0.0,0.0,6.8731,0.0,0.0,0.0,0.0,0.0,0.0,0.0,0.0,0.0,0.0,0.0,0.0,0.0,7.9723,8.7794,9.4914,9.9759,10.2213,9.9722,9.4584,8.8748,8.3402,7.7569,7.2206,6.8471,6.707,6.699,6.8598,6.8755,7.0631,7.6787,7.7708,7.9804,8.5967,9.2863,10.0204,10.8017,12.1016,12.9611,13.0389,13.1911,13.2688,13.2187,13.1116,13.0492,13.0492,12.9415,12.8614,12.8113,12.6791,12.599,12.5702,12.5702,12.5506,12.5213,12.4399,12.3487,12.2301,12.0104,11.8709,11.7902,11.6586,11.5999,0.0,11.4903,11.431,11.3906,11.2616,11.1913,11.1583,11.1284,11.121,11.121,0.0,0.0,0.0,0.0,0.0,0.0,0.0,0.0,0.0,0.0,6.6864,6.8746,7.3235,6.6708,6.4596,0.0,0.0,0.0,0.0,0.0,0.0,0.0,0.0,0.0,0.0,0.0,0.0,7.3604,7.3678,7.4555,7.6163,0.0,0.0,7.026,7.015,6.9202,0.0,0.0,0.0,0.0,6.8495,6.8451,0.0,0.0,0.0,0.0,0.0,0.0,0.0,0.0,0.0,0.0,0.0,0.0,0.0,0.0,0.0,0.0,0.0,9.4478,9.7483,9.7263,9.2671,8.6978,8.2374,7.668,0.0,6.8321,6.711,6.7063,6.8671,6.9556,7.066,7.2679,7.4955,7.8442,8.4127,9.1033,9.9659,11.0885,11.9181,12.4209,12.4882,12.9795,13.2908,13.2908,13.1403,13.0492,13.0419,12.8914,12.8119,12.8002,12.7182,12.6504,12.5702,12.5702,12.5292,12.4515,12.3701,12.249,12.0796,11.9187,11.8012,11.7199,11.6318,11.6005,11.5889,11.5894,11.5411,11.4519,11.3686,11.2994,11.2212,11.1515,11.121,11.121,0.0,0.0,0.0,0.0,0.0,0.0,0.0,0.0,0.0,0.0,6.2889,6.3516,6.4003,6.2286,6.2246,0.0,0.0,0.0,0.0,0.0,0.0,0.0,0.0,0.0,0.0,0.0,0.0,7.2789,7.338,7.4845,7.6991,7.6383,0.0,0.0,0.0,0.0,0.0,0.0,0.0,0.0,6.7917,6.7758,0.0,0.0,0.0,0.0,6.6266,6.6705,0.0,0.0,0.0,0.0,0.0,0.0,0.0,0.0,7.0143,7.1978,7.5498,0.0,8.184,7.9352,7.759,7.5832,0.0,7.1765,7.0113,6.8104,6.755,6.7917,6.9526,6.9486,7.1134,7.7092,7.9066,8.1811,8.7496,9.9208,11.1006,12.1107,12.7182,13.0186,12.9207,13.1403,13.2908,13.2908,13.1403,13.0192,12.9605,12.8614,12.7813,12.7189,12.6387,12.5916,12.5702,12.5702,12.5292,12.4515,12.3701,12.249,12.0796,11.9187,11.8012,11.7199,11.6318,11.5711,11.4996,11.4384,11.3692,11.2915,11.2102,11.1614,11.1515,11.1289,11.121,11.121,0.0,0.0,0.0,0.0,0.0,0.0,0.0,0.0,0.0,0.0,0.0,0.0,0.0,0.0,0.0,0.0,0.0,0.0,0.0,0.0,0.0,0.0,0.0,0.0,0.0,0.0,0.0,0.0,0.0,7.6423,0.0,0.0,0.0,0.0,0.0,0.0,0.0,0.0,0.0,0.0,6.8098,0.0,0.0,0.0,0.0,0.0,6.5422,6.577,0.0,6.8097,6.8723,6.9097,0.0,0.0,0.0,0.0,6.8648,6.9015,6.9075,7.2558,7.5784,7.4026,7.3336,7.2716,7.1468,7.033,6.9195,6.7954,6.77,6.8064,6.9302,6.9486,7.1248,7.668,7.8883,8.343,9.3524,10.399,11.4384,12.4485,12.8706,13.1079,13.2114,13.2908,13.3312,13.2902,13.1783,13.0486,12.9385,12.851,12.7702,12.6889,12.6094,12.5702,12.5702,12.5286,12.4693,12.3916,12.2784,12.1309,11.97,11.841,11.7382,11.6611,11.6219,11.551,11.4818,11.4305,11.3508,11.2401,11.1913,11.1504,11.121,11.121,11.121,11.121,0.0,0.0,0.0,0.0,0.0,0.0,0.0,0.0,0.0,0.0,0.0,0.0,0.0,0.0,0.0,0.0,0.0,0.0,0.0,0.0,0.0,0.0,0.0,0.0,0.0,0.0,0.0,0.0,0.0,0.0,0.0,0.0,7.8919,0.0,0.0,0.0,0.0,0.0,0.0,6.7737,6.8311,0.0,0.0,0.0,0.0,0.0,0.0,0.0,0.0,6.7899,6.8969,6.9246,7.0125,0.0,0.0,0.0,0.0,0.0,6.7283,7.0984,7.4687,7.3843,7.3377,7.2907,7.1982,7.0183,6.8531,6.7844,6.7811,6.8208,6.9262,7.0293,7.2165,7.5641,7.9095,8.6485,10.11,10.7703,11.4683,12.4417,12.7385,12.9911,13.3105,13.3619,13.3502,13.2902,13.1887,13.0719,12.9201,12.8406,12.7519,12.6705,12.61,12.5586,12.5513,12.4809,12.3995,12.3108,12.1609,12.0,11.8195,11.7486,11.6685,11.581,0.0,0.0,11.4409,11.4409,11.3607,11.2212,11.2212,11.1808,11.121,11.121,11.121,11.121,0.0,0.0,0.0,0.0,0.0,0.0,0.0,0.0,0.0,0.0,0.0,0.0,0.0,0.0,0.0,0.0,0.0,0.0,0.0,0.0,0.0,0.0,0.0,0.0,0.0,0.0,0.0,0.0,0.0,0.0,8.2227,8.4177,8.1342,0.0,0.0,0.0,0.0,0.0,6.7807,6.7664,6.7103,0.0,0.0,0.0,0.0,0.0,0.0,0.0,0.0,6.5522,6.6912,6.8331,6.6723,0.0,0.0,0.0,0.0,0.0,6.9842,7.2701,7.3769,6.8968,6.9232,7.0264,6.8762,6.8138,6.7844,6.7737,6.8241,6.9372,7.1538,7.3703,7.6717,8.133,8.8752,9.7865,10.9092,11.3785,11.8184,12.4001,12.8516,13.0909,13.0119,13.1306,13.2297,13.2915,13.0889,12.9318,12.829,12.7519,12.6711,12.5916,12.5812,12.5409,12.4699,12.4595,12.3787,12.2282,12.1316,11.97,11.7413,11.7309,11.6391,11.5002,0.0,11.4115,11.2805,11.2805,11.2207,11.1399,11.1399,11.1284,11.121,11.121,11.121,11.121,0.0,0.0,0.0,0.0,0.0,0.0,0.0,0.0,0.0,0.0,0.0,0.0,0.0,0.0,0.0,0.0,0.0,0.0,0.0,0.0,0.0,0.0,6.8485,6.8902,7.0076,0.0,0.0,0.0,0.0,8.4605,8.7329,8.4948,8.0869,7.5425,0.0,0.0,0.0,0.0,6.77,6.7624,0.0,0.0,0.0,0.0,0.0,0.0,0.0,0.0,0.0,0.0,6.7415,6.8476,6.7055,0.0,0.0,0.0,0.0,0.0,6.7133,6.9479,7.1057,6.8455,7.091,7.3333,7.0847,6.9603,6.9125,6.9559,7.029,7.1721,7.4577,7.8177,8.3434,9.1803,9.8851,10.5715,11.2684,11.5688,11.9316,12.5096,12.7782,12.9685,13.1103,13.1917,13.2101,13.158,13.0602,12.9201,12.7513,12.7115,12.6491,12.5696,12.5292,12.4888,12.4515,12.3194,12.2203,12.1389,12.0184,11.8703,11.7193,11.6312,11.551,11.4818,0.0,11.3503,11.2401,11.2401,11.1913,11.121,11.121,11.121,11.121,11.121,11.121,11.121,0.0,0.0,0.0,0.0,0.0,0.0,0.0,0.0,0.0,0.0,0.0,0.0,0.0,0.0,0.0,0.0,0.0,0.0,0.0,0.0,6.6572,6.9426,6.9508,7.0363,7.2319,0.0,7.7602,8.2696,8.6917,9.0335,9.2831,8.7114,8.168,0.0,0.0,0.0,0.0,0.0,6.77,6.7624,0.0,0.0,0.0,0.0,0.0,0.0,0.0,0.0,0.0,0.0,0.0,0.0,0.0,0.0,0.0,6.691,6.6029,6.5922,6.6262,6.7871,6.9585,7.0176,7.3105,7.5564,7.4217,7.2679,7.1945,7.3516,7.4324,7.5572,7.8243,8.3826,9.1253,10.1289,10.7482,11.2396,11.6202,11.8294,12.1487,12.7115,12.7696,12.9091,13.2615,13.2584,13.1807,13.0602,13.0205,12.8981,12.6999,12.6705,12.632,12.5396,12.4809,12.4215,12.3708,12.1793,12.0802,12.0587,11.8887,11.7602,11.6605,11.5589,11.4892,11.4488,11.3918,11.3099,11.2401,11.2212,11.1808,11.121,11.121,11.121,11.121,11.121,11.121,11.121,0.0,0.0,0.0,0.0,0.0,0.0,0.0,0.0,0.0,0.0,0.0,0.0,0.0,0.0,0.0,0.0,0.0,0.0,0.0,0.0,6.5175,6.6992,6.9684,7.3626,7.9004,7.9261,8.2084,8.7692,9.251,9.5373,9.6282,9.2804,8.6636,7.8299,0.0,0.0,0.0,0.0,6.77,6.7624,6.6809,0.0,0.0,0.0,0.0,0.0,0.0,0.0,0.0,0.0,0.0,0.0,0.0,0.0,6.9893,6.8932,6.8128,6.8321,7.2029,7.2088,7.1674,7.3916,7.3105,7.2848,7.7194,7.6868,0.0,8.0612,8.146,8.1782,8.2798,9.1244,10.0099,10.6213,11.3099,11.8893,12.219,12.4686,12.7182,12.9898,13.0192,13.0889,13.2718,13.1513,13.0596,13.0492,12.9097,12.7892,12.6882,12.6204,12.5402,12.4589,12.4509,12.3408,12.1211,12.0991,12.0514,11.9712,11.8085,11.6495,11.4996,11.5589,11.5081,11.3697,11.3582,11.3099,11.2286,11.1583,11.1289,11.121,11.121,11.121,11.121,11.121,11.121,11.121,0.0,0.0,0.0,0.0,0.0,0.0,0.0,0.0,0.0,0.0,0.0,0.0,0.0,0.0,0.0,0.0,0.0,0.0,0.0,0.0,6.4589,6.694,6.9297,7.2969,7.8141,8.3691,9.0041,9.7231,10.0618,10.0917,9.8075,9.1762,0.0,0.0,0.0,0.0,0.0,0.0,0.0,6.8979,6.6693,6.5882,0.0,0.0,0.0,0.0,0.0,0.0,0.0,0.0,6.6799,6.735,6.6259,6.8531,7.1138,6.8828,6.7954,6.8031,6.9573,7.062,7.1637,7.3035,7.5025,0.0,0.0,8.1122,8.2847,8.7949,8.9757,9.1193,9.3492,9.9255,10.55,11.119,11.7309,12.26,12.5794,12.7513,12.9091,13.1006,13.0389,13.0419,13.2004,13.0199,12.8994,12.8994,12.8002,12.7005,12.6204,12.5886,12.5286,12.4509,12.3487,12.2313,12.0912,11.9407,11.8404,11.8116,11.7486,11.6605,11.551,11.529,11.4598,11.3587,11.311,11.2401,11.1583,11.1284,11.121,11.121,11.121,11.121,11.121,11.121,11.121,11.121,0.0,0.0,0.0,0.0,0.0,0.0,0.0,0.0,0.0,0.0,0.0,0.0,0.0,0.0,0.0,0.0,0.0,0.0,0.0,6.2199,6.3605,6.5594,6.8291,7.2345,7.7953,8.7064,9.4992,10.1599,10.5783,10.4609,9.8185,0.0,0.0,0.0,0.0,0.0,0.0,0.0,0.0,0.0,6.6876,6.5995,0.0,0.0,0.0,0.0,0.0,0.0,0.0,0.0,6.6686,6.6946,6.6806,6.9049,7.1468,7.0007,6.9239,6.8792,6.8542,6.9306,7.0547,7.2125,0.0,0.0,8.4943,8.7068,8.9817,9.6025,9.7534,9.8677,10.1688,10.4908,10.8799,11.4011,12.0208,12.5317,12.7789,12.8987,13.0199,13.149,13.0309,12.9782,13.1196,12.9404,12.8002,12.7702,12.7189,12.6491,12.5696,12.5482,12.4809,12.3787,12.2386,12.1101,11.9694,11.7786,11.6685,11.6416,11.6416,11.5987,11.5191,11.4886,11.4194,11.3215,11.2616,11.2102,11.1588,11.1289,11.121,11.121,11.121,11.121,11.121,11.121,11.121,11.121,0.0,0.0,0.0,0.0,0.0,0.0,0.0,0.0,0.0,0.0,0.0,0.0,0.0,0.0,0.0,0.0,0.0,0.0,0.0,6.1654,6.1952,6.2361,6.6567,7.2246,7.9518,8.9243,9.5841,9.9172,10.7215,10.6108,9.6539,9.2459,0.0,0.0,0.0,0.0,0.0,0.0,0.0,0.0,6.747,6.6516,6.6516,0.0,0.0,0.0,0.0,0.0,0.0,0.0,6.6172,6.3967,7.0437,7.1394,7.0627,7.2976,7.2565,7.1127,7.033,6.8942,6.8505,7.1721,7.5014,8.0408,9.1771,9.4955,9.763,10.4991,10.4504,10.3586,10.6014,10.7813,11.0199,11.4194,12.1603,12.7189,12.8002,12.9508,13.0792,13.1606,13.0309,12.9605,13.0419,12.8987,12.7702,12.7005,12.6895,12.6491,12.5696,12.4882,12.3701,12.2092,12.1285,11.97,11.7193,11.6391,11.562,11.4801,11.479,11.4319,11.3582,11.4403,11.3915,11.2385,11.241,11.2405,11.2294,11.1487,11.1194,11.1182,11.1194,11.1194,11.1182,11.1194,11.1199,11.1199,0.0,0.0,0.0,0.0,0.0,0.0,0.0,0.0,0.0,0.0,0.0,0.0,0.0,0.0,0.0,0.0,0.0,0.0,0.0,6.0614,6.0709,6.0152,6.4475,6.8005,7.0381,8.2194,9.3832,10.5107,10.5207,10.0488,9.1496,0.0,0.0,7.7895,0.0,0.0,0.0,0.0,0.0,0.0,6.8318,6.733,6.733,0.0,0.0,0.0,0.0,0.0,0.0,0.0,0.0,0.0,6.8682,7.1512,7.4147,7.3156,7.2936,7.2569,7.0631,7.059,7.1831,7.5054,8.0881,8.8046,9.6575,9.8259,10.0897,11.1085,11.2097,11.1111,11.0713,11.2401,11.4316,11.5491,12.1505,12.6497,12.7892,12.8987,12.9708,13.0009,12.8614,12.7916,12.8694,12.7391,12.6497,12.6895,12.591,12.5102,12.4888,12.3604,12.2313,12.1285,11.9285,11.7712,11.6403,11.4018,11.2612,11.2388,11.139,11.1806,11.3596,11.3387,11.2388,11.0798,10.9796,10.9015,10.8506,10.9305,10.8989,10.8196,10.9209,10.9007,10.8215,10.9318,10.9685,10.981,0.0,0.0,0.0,0.0,0.0,0.0,0.0,0.0,0.0,0.0,5.9009,5.9164,0.0,0.0,0.0,0.0,0.0,0.0,0.0,0.0,6.0215,5.9987,6.3009,6.6619,7.0697,8.0351,8.9495,9.798,9.8594,9.4662,8.6546,0.0,8.4825,8.1048,0.0,8.3365,0.0,0.0,7.4948,7.2555,7.044,6.9599,6.9566,0.0,0.0,0.0,0.0,0.0,0.0,0.0,0.0,0.0,6.7657,7.0264,7.3153,7.2639,7.2162,7.1688,7.1174,7.1982,7.4147,7.8981,8.5587,9.3299,10.2517,10.6009,10.9612,11.7687,11.7718,11.6097,11.581,11.6219,11.6801,11.7798,12.2319,12.6216,12.7409,12.8283,12.8797,12.8797,12.7696,12.7115,12.7599,12.621,12.5396,12.5904,12.4485,12.3487,12.3487,12.1988,12.0587,11.9517,11.7718,11.5913,11.4192,11.1993,11.0596,11.0014,10.9087,10.951,11.0882,11.0797,11.0093,10.8803,10.7911,10.7199,10.6884,10.779,10.7597,10.6898,10.7803,10.7613,10.6918,10.7786,10.8511,10.9117,0.0,0.0,5.5707,5.5707,0.0,0.0,0.0,0.0,0.0,0.0,5.8164,5.8508,0.0,0.0,0.0,0.0,0.0,0.0,0.0,0.0,6.0273,6.1063,6.2603,6.7707,7.6771,8.1338,8.3173,8.228,8.8821,8.8536,0.0,0.0,8.9486,8.828,0.0,9.1216,8.6325,8.2957,7.8805,7.4357,7.3039,7.2419,7.2198,7.1567,0.0,0.0,0.0,0.0,0.0,0.0,0.0,0.0,6.733,6.8425,6.9552,7.1648,7.0837,6.9736,7.1978,7.3344,7.5913,8.3398,9.0147,9.7965,10.938,11.6182,12.0887,12.3708,12.1505,11.948,12.0918,11.9401,11.8703,12.0802,12.3787,12.61,12.6785,12.7519,12.8002,12.8002,12.7305,12.6785,12.6785,12.539,12.4515,12.4399,12.2906,12.1994,12.1884,12.0088,11.8499,11.7113,11.5888,11.3987,11.1283,11.0213,10.8982,10.7693,10.7603,10.7089,10.6405,10.7383,10.7299,10.6405,10.6405,10.6405,10.6384,10.6508,10.6487,10.6384,10.6515,10.6487,10.6384,10.6606,10.7404,10.8581,0.0,0.0,5.5707,5.5707,0.0,0.0,0.0,0.0,0.0,0.0,0.0,0.0,0.0,0.0,0.0,0.0,0.0,0.0,0.0,0.0,6.0381,6.1057,6.5877,7.0403,7.4404,7.5509,7.5355,7.3909,8.0416,8.2145,0.0,0.0,0.0,8.739,0.0,8.8349,8.2924,7.8398,7.4397,7.1211,7.2125,7.1721,7.066,7.1127,7.0316,0.0,0.0,0.0,0.0,0.0,0.0,0.0,6.8348,6.9626,7.076,7.0657,7.1134,7.1978,7.3123,7.5436,7.9584,8.8133,9.9815,11.0718,11.6518,12.0697,12.3304,12.2716,12.3414,12.3897,12.3004,12.3414,12.3591,12.2894,12.4986,12.6711,12.6895,12.6999,12.7189,12.7189,12.6381,12.5996,12.5996,12.5109,12.4215,12.3585,12.2092,12.0887,12.019,11.689,11.5408,11.6184,11.199,11.0011,11.0493,10.7407,10.5599,10.5292,10.4216,10.3597,10.35,10.5513,10.5316,10.3403,10.3403,10.3403,10.3512,10.4617,10.4393,10.3501,10.4605,10.4405,10.3616,10.4719,10.5316,10.5698,0.0,0.0,0.0,0.0,0.0,0.0,0.0,0.0,0.0,0.0,0.0,0.0,0.0,0.0,0.0,0.0,0.0,0.0,0.0,0.0,0.0,6.2792,6.7497,7.0337,7.0818,7.1214,7.0437,6.8444,7.1824,0.0,0.0,0.0,0.0,8.8895,0.0,9.0303,8.3695,8.038,7.6636,7.3087,7.4324,7.3846,7.2455,7.2848,7.131,6.8781,6.7991,0.0,0.0,0.0,0.0,0.0,0.0,0.0,6.9633,7.0003,7.0403,7.1538,7.5106,7.8997,8.4948,9.6942,10.7996,11.6702,11.9602,12.2417,12.4405,12.3897,12.4815,12.5402,12.4589,12.5102,12.5402,12.4589,12.5506,12.6308,12.6308,12.6308,12.6308,12.6308,12.558,12.5102,12.5102,12.3708,12.26,12.2196,11.9884,11.7984,11.6891,11.4216,11.2506,11.2189,10.9492,10.7806,10.7514,10.5591,10.4312,10.3594,10.2893,10.2494,10.2518,10.3688,10.3609,10.2494,10.2494,10.2494,10.2608,10.3312,10.3197,10.2591,10.3294,10.309,10.2607,10.3309,10.3982,10.4701,0.0,0.0,0.0,0.0,0.0,0.0,0.0,0.0,0.0,0.0,0.0,0.0,0.0,0.0,0.0,0.0,0.0,0.0,0.0,0.0,0.0,6.4759,6.8056,6.9271,6.8141,6.8495,6.7644,6.5512,6.5512,0.0,0.0,0.0,0.0,9.1395,0.0,9.2395,8.5425,8.2843,7.9058,7.4955,7.5894,7.5377,7.4063,0.0,0.0,6.8781,6.7991,6.77,6.7627,6.7103,0.0,0.0,0.0,0.0,6.8321,6.9382,6.9412,7.036,7.617,8.2594,9.1074,10.5317,11.3712,11.9003,12.0502,12.29,12.4888,12.5592,12.5702,12.5702,12.5702,12.5702,12.5709,12.5513,12.5513,12.5402,12.5292,12.5402,12.5402,12.5292,12.4809,12.4405,12.4111,12.2203,12.0691,12.0288,11.7608,11.521,11.3508,11.1796,10.9884,10.8082,10.7401,10.6291,10.459,10.4202,10.3508,10.2291,10.2291,10.2215,10.2114,10.2392,10.2494,10.2494,10.2494,10.2384,10.2291,10.241,10.2384,10.2291,10.2502,10.2494,10.2494,10.2494,10.32,10.4198,0.0,0.0,0.0,0.0,0.0,0.0,0.0,0.0,0.0,0.0,5.5707,5.6016,0.0,5.7782,5.8624,5.9433,6.0243,6.074,6.0781,0.0,0.0,6.5246,6.7422,6.8998,6.976,6.8505,6.7363,6.6329,0.0,0.0,0.0,0.0,0.0,9.3717,0.0,0.0,8.4315,7.7781,7.301,6.9993,7.149,7.1531,7.0737,0.0,0.0,0.0,0.0,6.77,6.7807,6.8385,6.9115,0.0,0.0,0.0,6.9566,6.8358,6.8942,7.059,7.3567,8.4576,9.7419,10.6486,11.42,11.9706,12.0697,12.3304,12.5592,12.5702,12.5702,12.5702,12.5702,12.5702,12.5482,12.4815,12.4705,12.4399,12.3695,12.4215,12.4399,12.3701,12.4099,12.4007,12.2618,12.1505,11.9988,11.7896,11.6611,11.4699,11.19,10.9592,10.8317,10.8005,10.4901,10.3708,10.461,10.2811,10.1684,10.1495,10.1495,10.1191,10.06,10.1911,10.2494,10.2494,10.2494,10.2088,10.1605,10.2189,10.2088,10.1605,10.2307,10.2494,10.2494,10.2494,10.2597,10.2805,0.0,0.0,0.0,0.0,0.0,0.0,0.0,0.0,0.0,0.0,0.0,5.5861,5.6247,5.7474,5.8432,5.8818,6.0051,6.0784,6.0784,6.1187,6.2213,6.3971,6.4845,6.5495,6.5999,6.5785,6.5054,6.3763,0.0,0.0,0.0,8.3136,8.8059,0.0,0.0,0.0,0.0,0.0,7.2609,7.0947,7.12,7.1351,0.0,0.0,0.0,0.0,0.0,0.0,0.0,0.0,6.8828,6.8758,6.8858,0.0,0.0,0.0,6.7841,7.0777,7.998,8.945,9.9071,10.8987,11.4898,11.8703,12.0508,12.271,12.4405,12.4405,12.4405,12.4515,12.4919,12.4705,12.4215,12.3885,12.3095,12.2689,12.3187,12.1708,12.0912,12.181,12.0312,11.9082,11.8803,11.8096,11.6592,11.4187,11.3686,11.1901,10.8482,10.6907,10.5689,10.4904,10.331,10.2584,10.2792,10.1884,10.1199,10.0701,10.0701,10.0482,10.0212,10.0896,10.1201,10.1193,10.169,10.1411,10.0785,10.1107,10.1284,10.1402,10.1284,10.17,10.241,10.1987,10.2088,10.2494,0.0,0.0,0.0,0.0,0.0,0.0,0.0,0.0,0.0,0.0,0.0,5.5784,5.6016,0.0,0.0,0.0,5.9936,6.0784,6.0784,6.0601,6.1056,6.2343,6.2169,6.2104,6.2172,6.2842,6.2664,0.0,0.0,0.0,8.2296,8.4898,9.0262,0.0,9.1299,0.0,0.0,0.0,0.0,0.0,0.0,0.0,0.0,0.0,0.0,0.0,0.0,0.0,0.0,0.0,0.0,6.8395,6.8785,6.8087,0.0,0.0,0.0,7.0153,8.2871,9.0032,9.6502,10.7183,11.2983,11.6685,11.9407,12.1493,12.3004,12.3004,12.2814,12.2814,12.3194,12.3114,12.2888,12.2704,12.1216,12.0395,12.1402,11.879,11.7394,11.8881,11.6698,11.5083,11.4983,11.4487,11.321,11.0908,11.0597,10.9088,10.5714,10.48,10.3791,10.25,10.2114,10.1708,10.1402,10.0996,10.0405,9.9645,9.9814,9.9814,9.9637,10.0001,10.0017,9.9712,10.0683,10.0592,9.9915,10.011,10.0389,10.08,10.0405,10.0896,10.1893,10.1495,10.169,10.2215,0.0,0.0,0.0,0.0,0.0,0.0,0.0,0.0,0.0,0.0,0.0,5.6016,5.6827,5.7742,5.8624,5.9356,6.0282,6.0784,6.0784,6.0374,6.0309,6.0728,6.0277,0.0,6.0535,6.056,0.0,0.0,0.0,0.0,8.5608,8.8789,9.6245,10.6617,9.937,9.3519,8.8666,0.0,0.0,0.0,0.0,0.0,0.0,0.0,0.0,0.0,0.0,0.0,0.0,0.0,0.0,0.0,0.0,6.8855,6.8491,0.0,0.0,0.0,7.5858,8.2068,8.8541,9.7598,10.6297,11.3497,11.6685,11.989,12.2209,12.2209,12.1585,12.0808,12.0,12.1101,12.1909,12.1089,11.9082,11.7309,11.6689,11.578,11.5006,11.4298,11.4808,11.419,11.2085,11.1787,11.0794,10.8409,10.8187,10.7105,10.479,10.4003,10.318,10.2508,10.1099,10.0709,10.1402,9.9939,9.8848,9.813,9.8815,9.8781,9.8156,9.9577,9.9442,9.8198,9.9645,9.9848,9.9221,9.9915,9.9822,9.9296,9.9949,10.0204,10.0389,10.1115,10.1394,10.1613,0.0,0.0,0.0,0.0,0.0,0.0,0.0,0.0,0.0,0.0,0.0,0.0,0.0,5.8243,5.9201,5.947,6.0282,6.066,6.0361,5.9908,5.9581,5.938,5.8914,5.8728,5.8844,5.9385,0.0,0.0,0.0,7.1582,8.2052,8.6811,9.3455,10.11,9.5924,9.2657,9.034,8.0175,0.0,0.0,0.0,0.0,0.0,0.0,0.0,0.0,0.0,0.0,0.0,0.0,0.0,0.0,0.0,0.0,0.0,6.6065,6.7173,6.993,7.5131,8.0306,8.6293,9.4694,10.1893,10.7881,11.1698,11.5883,11.9003,11.9003,11.9107,11.9187,11.8893,11.9297,11.959,11.9291,11.6889,11.5313,11.6091,11.2911,11.1011,11.2195,11.0415,10.9,10.8608,10.8583,10.7701,10.5405,10.6104,10.5486,10.2699,10.2307,10.1788,10.1006,10.049,10.0092,9.9939,9.8916,9.8266,9.7995,9.8266,9.8266,9.8029,9.8536,9.8495,9.8029,9.857,9.8638,9.8401,9.8664,9.8908,9.9093,9.8874,9.9374,10.0186,10.0007,10.0597,10.1394,0.0,0.0,0.0,0.0,0.0,5.5707,0.0,0.0,0.0,0.0,0.0,0.0,0.0,0.0,5.9625,5.9896,6.0475,6.061,6.0132,5.9646,5.918,5.8703,5.8499,5.8394,5.8394,0.0,0.0,0.0,0.0,0.0,0.0,8.5021,9.1441,9.8457,9.2762,9.1923,0.0,0.0,0.0,7.8658,0.0,0.0,7.5811,0.0,0.0,0.0,0.0,0.0,0.0,0.0,0.0,0.0,0.0,0.0,0.0,0.0,6.739,7.0293,7.2973,7.7443,8.3344,9.1753,9.646,10.0907,10.8002,11.1583,11.3889,11.529,11.669,11.7608,11.7608,11.7394,11.7217,11.7318,11.4684,11.29,11.3391,10.9706,10.7504,10.9014,10.6984,10.5513,10.58,10.579,10.5107,10.3411,10.4213,10.3795,10.1499,10.1115,10.0498,9.9476,9.9712,9.9483,9.8747,9.8232,9.7995,9.7995,9.7995,9.786,9.7631,9.7631,9.7495,9.7292,9.7529,9.7766,9.7995,9.7995,9.8299,9.8679,9.8198,9.8604,9.9476,9.9483,10.01,10.1097,0.0,5.6362,5.5784,5.5784,5.5784,5.5784,0.0,0.0,0.0,0.0,0.0,0.0,0.0,0.0,0.0,6.0883,6.0913,6.0652,6.0136,5.9655,5.9195,5.875,5.9033,5.923,5.923,0.0,0.0,0.0,0.0,0.0,0.0,0.0,9.0707,9.9512,9.0955,9.1872,9.9659,0.0,9.1982,8.8666,0.0,7.9111,8.0326,0.0,0.0,0.0,8.23,8.0273,0.0,7.392,0.0,0.0,0.0,0.0,0.0,0.0,0.0,6.9042,0.0,0.0,0.0,8.7977,8.9661,9.256,10.5311,10.6995,10.7105,11.1295,11.4011,11.5699,11.5883,11.5309,11.4685,11.4818,11.231,10.9805,10.8302,10.6093,10.4692,10.4692,10.4692,10.4413,10.3702,10.3593,10.3296,10.2486,10.2502,10.2088,10.141,10.0608,9.9476,9.8063,9.8679,9.8713,9.7995,9.7995,9.7995,9.7995,9.7995,9.7597,9.6909,9.6909,9.6529,9.5879,9.6597,9.7334,9.7995,9.7995,9.7995,9.7995,9.7995,9.7995,9.8164,9.9645,10.0186,10.0415,5.7896,5.7741,5.7587,5.7587,5.7587,5.7587,0.0,0.0,0.0,0.0,0.0,0.0,0.0,0.0,0.0,6.4834,6.3866,6.2331,6.0086,5.9847,5.9566,5.9068,5.9691,6.008,6.008,0.0,0.0,0.0,0.0,0.0,0.0,0.0,0.0,0.0,8.9922,9.0331,9.0996,8.2851,0.0,8.6228,7.9507,7.9731,0.0,0.0,0.0,0.0,0.0,8.4572,8.4009,0.0,7.9507,7.6566,0.0,0.0,0.0,0.0,0.0,0.0,7.022,0.0,0.0,0.0,0.0,0.0,9.2537,9.5846,9.9443,10.5815,10.7692,10.9601,11.4305,11.3591,11.2214,11.1686,11.0493,10.9001,10.7496,10.5794,10.4692,10.4692,10.4202,10.3787,10.3585,10.3103,10.2502,10.1808,10.1698,10.1089,9.9804,9.901,9.8427,9.8029,9.8198,9.8206,9.7995,9.7995,9.7995,9.7995,9.7995,9.7597,9.6909,9.7435,9.73,9.6631,9.7368,9.7792,9.7995,9.7995,9.7995,9.7995,9.7995,9.7995,9.8096,9.9051,9.9754,10.0305,5.8739,5.8547,5.8392,5.8739,5.9661,6.0277,0.0,0.0,0.0,0.0,0.0,0.0,0.0,0.0,0.0,0.0,6.5599,6.3744,6.1563,6.0757,6.0331,6.022,6.0636,6.137,0.0,0.0,0.0,0.0,0.0,0.0,0.0,0.0,0.0,0.0,8.321,8.3985,8.4173,0.0,0.0,0.0,8.2623,0.0,0.0,8.8655,8.9426,0.0,0.0,0.0,9.0138,8.7496,8.4123,0.0,0.0,0.0,0.0,0.0,0.0,0.0,0.0,0.0,7.6387,7.7631,0.0,0.0,8.7766,9.0262,9.3308,10.0608,10.3214,10.571,11.0817,11.0988,11.0109,10.9396,10.9201,10.8311,10.5903,10.4503,10.3804,10.3804,10.3382,10.3103,10.3103,10.251,10.1909,10.1394,10.1097,10.0412,9.9161,9.8112,9.7529,9.7529,9.7258,9.7225,9.7529,9.7529,9.7698,9.7995,9.7995,9.7597,9.6902,9.7334,9.6954,9.6014,9.6751,9.7082,9.7123,9.7394,9.7732,9.7995,9.7995,9.8198,9.8544,9.9288,9.9983,10.0803,0.0,5.9085,5.8933,6.001,6.2084,0.0,0.0,0.0,0.0,0.0,0.0,0.0,0.0,0.0,0.0,0.0,6.7079,6.5298,6.3784,6.2289,0.0,0.0,0.0,6.3135,0.0,0.0,0.0,0.0,0.0,0.0,0.0,0.0,0.0,0.0,7.4225,7.559,7.8674,0.0,0.0,8.4458,8.7491,9.0175,0.0,0.0,9.7608,9.7419,9.8951,9.807,9.5538,9.1345,8.6325,0.0,0.0,0.0,0.0,0.0,7.2712,0.0,0.0,0.0,0.0,0.0,7.8736,0.0,8.6986,8.7684,8.8454,9.5405,9.9113,10.2301,10.6208,10.7417,10.7518,10.6684,10.7591,10.7284,10.4108,10.3106,10.2711,10.251,10.2494,10.2494,10.2494,10.1901,10.1511,10.13,10.0514,9.9611,9.889,9.7612,9.6868,9.6774,9.615,9.6116,9.6766,9.6868,9.7232,9.786,9.7961,9.7597,9.6909,9.6969,9.6217,9.4849,9.5601,9.5879,9.5845,9.6597,9.7334,9.7995,9.7995,9.8435,9.9187,9.9915,10.0701,10.1503,6.0513,6.0438,6.1246,6.4129,6.5053,0.0,0.0,0.0,0.0,0.0,0.0,0.0,0.0,0.0,0.0,0.0,0.0,6.7988,6.5143,6.4048,0.0,0.0,0.0,6.5485,0.0,0.0,0.0,0.0,0.0,0.0,0.0,0.0,0.0,0.0,7.3156,7.3193,7.4074,7.6236,0.0,8.1884,8.3789,0.0,9.5914,9.7351,9.9008,10.0696,10.1714,10.1315,9.9595,9.4928,9.0445,8.5747,0.0,0.0,0.0,0.0,0.0,0.0,0.0,0.0,0.0,0.0,0.0,0.0,7.9503,8.1122,8.4466,8.9128,9.0592,9.3423,10.121,10.1799,10.0696,9.9271,10.2011,10.4296,10.4411,10.429,10.381,10.2613,10.2494,10.2494,10.2494,10.2401,10.1792,10.0482,9.9179,9.8104,9.7375,9.7078,9.6631,9.6048,9.5879,9.5879,9.6014,9.6597,9.6969,9.7105,9.7732,9.7597,9.6909,9.7495,9.6988,9.5635,9.636,9.636,9.5845,9.6597,9.7334,9.7995,9.7995,9.8435,9.9187,9.9915,10.0701,10.1503,6.0901,6.1133,6.2518,6.5902,0.0,0.0,0.0,0.0,0.0,0.0,0.0,0.0,0.0,0.0,0.0,0.0,0.0,0.0,0.0,0.0,0.0,0.0,6.6512,6.7247,6.8855,0.0,0.0,0.0,0.0,0.0,0.0,0.0,0.0,0.0,0.0,7.1244,7.0333,7.4004,7.7194,8.0314,8.6403,0.0,9.8222,10.11,10.3413,10.5207,10.5605,10.4687,10.2191,9.4923,9.2166,0.0,0.0,8.0567,8.144,0.0,7.7892,7.8687,0.0,0.0,0.0,7.8658,0.0,0.0,0.0,7.9466,8.1265,8.6513,8.6334,8.744,9.4703,9.5123,9.4775,9.599,9.8977,10.1492,10.2384,10.3713,10.4093,10.2703,10.2494,10.2494,10.2494,10.1809,10.0685,9.9205,9.8427,9.7698,9.6935,9.6563,9.5845,9.4736,9.4695,9.4695,9.4695,9.5785,9.6529,9.6902,9.7664,9.7597,9.6935,9.7664,9.698,9.5296,9.6048,9.615,9.5838,9.6184,9.6988,9.7995,9.7995,9.8672,9.9686,10.0092,10.0896,10.2003,6.0966,6.1364,6.2943,6.6481,0.0,0.0,0.0,0.0,0.0,0.0,0.0,0.0,0.0,0.0,0.0,0.0,0.0,0.0,0.0,0.0,0.0,0.0,6.7867,6.8565,7.1061,6.8044,0.0,0.0,0.0,0.0,0.0,0.0,0.0,0.0,0.0,0.0,6.9459,7.1578,7.5506,8.1012,0.0,9.5437,9.807,10.3586,10.6491,10.7692,10.8285,10.7294,10.42,9.5433,9.4038,9.418,8.4095,8.3944,0.0,0.0,0.0,0.0,0.0,0.0,0.0,0.0,0.0,8.0053,0.0,0.0,0.0,8.4417,8.3324,8.3108,8.8271,8.867,8.9216,9.2235,9.5648,9.7947,9.7959,10.0682,10.2393,10.1792,10.1702,10.1888,10.2412,10.0513,9.9012,9.8263,9.742,9.6845,9.6699,9.6116,9.506,9.3417,9.3383,9.3383,9.3383,9.4823,9.5879,9.6496,9.7495,9.7529,9.6699,9.7461,9.6642,9.4748,9.5466,9.5702,9.5601,9.5879,9.6717,9.7834,9.8096,9.9044,10.0212,10.0397,10.1302,10.2494,6.0884,6.0862,6.2247,6.6365,0.0,0.0,0.0,0.0,0.0,0.0,0.0,0.0,0.0,0.0,0.0,0.0,0.0,0.0,7.7308,0.0,0.0,0.0,6.9699,0.0,6.6172,6.9068,0.0,0.0,0.0,0.0,0.0,0.0,0.0,0.0,7.029,0.0,7.5028,7.3263,7.7741,8.6472,9.1285,9.257,0.0,10.0204,10.3209,10.3806,10.6685,10.7609,10.6502,0.0,9.8489,9.6653,0.0,8.9184,8.8739,8.6766,0.0,0.0,0.0,0.0,0.0,0.0,8.8266,0.0,0.0,0.0,8.2101,7.9984,0.0,8.0094,8.3569,0.0,0.0,8.2802,8.8899,9.2634,8.9271,9.2738,9.6435,9.8606,9.8871,9.9712,10.1789,9.8455,9.6901,9.8822,9.5289,9.3861,9.5811,9.5845,9.4789,9.2609,9.2542,9.2542,9.2542,9.4071,9.4883,9.4984,9.7014,9.7251,9.5947,9.6699,9.6184,9.4748,9.5466,9.5432,9.4917,9.6251,9.6868,9.7138,9.845,9.9483,10.0287,10.0988,10.18,10.2494,6.0428,6.0593,6.2016,6.6003,0.0,0.0,0.0,0.0,0.0,0.0,0.0,0.0,0.0,0.0,0.0,0.0,0.0,7.6317,0.0,0.0,0.0,0.0,0.0,0.0,0.0,7.116,7.12,0.0,7.0874,0.0,0.0,0.0,0.0,0.0,7.1872,7.334,7.613,7.6537,7.9621,8.4646,8.9633,9.095,0.0,10.2113,10.6811,10.7807,10.8705,10.8998,10.8002,0.0,10.0099,0.0,0.0,0.0,0.0,0.0,0.0,0.0,0.0,0.0,0.0,0.0,0.0,0.0,8.1089,0.0,7.9315,0.0,0.0,0.0,0.0,0.0,0.0,0.0,8.4242,8.6679,8.6466,8.858,9.1682,9.5782,9.4608,9.4432,9.6889,9.5921,9.5742,9.723,9.4049,9.2891,9.477,9.4636,9.3876,9.2433,9.2399,9.2399,9.2399,9.3928,9.4917,9.5364,9.7149,9.7461,9.6462,9.6774,9.6082,9.4748,9.5466,9.5601,9.5432,9.6462,9.7138,9.7631,9.8679,9.9551,10.0287,10.1089,10.1909,10.2494,6.0063,0.0,0.0,0.0,0.0,0.0,0.0,0.0,0.0,0.0,0.0,0.0,9.1134,8.9633,0.0,0.0,0.0,8.0869,0.0,0.0,7.516,0.0,0.0,0.0,0.0,0.0,7.1934,7.2492,7.1677,0.0,0.0,0.0,0.0,0.0,0.0,7.6537,7.9246,8.1489,8.4246,8.755,9.184,9.4185,9.5937,10.4284,10.9013,11.1106,11.0314,10.9984,10.9103,10.3109,10.2301,0.0,9.8122,0.0,0.0,0.0,0.0,0.0,8.9771,0.0,0.0,0.0,0.0,0.0,0.0,0.0,0.0,0.0,0.0,0.0,0.0,0.0,0.0,0.0,0.0,8.3255,8.4319,8.4792,8.6821,9.1695,9.1367,9.1492,9.3374,9.335,9.3829,9.5319,9.194,9.0898,9.3434,9.3089,9.2579,9.2109,9.2102,9.2203,9.2399,9.3733,9.4755,9.5499,9.6785,9.7022,9.6293,9.6293,9.5608,9.4443,9.5398,9.5811,9.5879,9.6792,9.7537,9.8063,9.8815,9.9551,10.0287,10.1089,10.1909,10.2494,5.9926,6.0282,0.0,0.0,0.0,0.0,0.0,0.0,0.0,0.0,0.0,0.0,0.0,0.0,0.0,0.0,0.0,8.5416,8.7692,0.0,7.5821,0.0,0.0,0.0,0.0,0.0,7.2455,7.2492,7.1677,0.0,0.0,0.0,0.0,0.0,7.8409,8.1485,8.6766,8.8413,9.3226,9.9805,10.0811,10.4404,10.8998,0.0,10.6995,11.1106,11.0314,0.0,0.0,10.7005,10.6198,0.0,0.0,0.0,0.0,0.0,0.0,0.0,0.0,0.0,0.0,8.9372,0.0,0.0,0.0,0.0,8.3911,0.0,0.0,0.0,0.0,0.0,0.0,0.0,0.0,0.0,0.0,8.0506,8.1546,8.5616,9.0186,9.3124,9.3379,9.0836,9.0469,9.3548,8.8159,8.6849,9.1725,9.1215,9.0959,9.1314,9.1346,9.1669,9.2399,9.3206,9.4018,9.4748,9.5499,9.5466,9.4781,9.4781,9.4349,9.3721,9.5169,9.5811,9.5905,9.736,9.7995,9.8063,9.8815,9.9551,10.0287,10.1089,10.1909,10.2494,6.219,0.0,0.0,0.0,0.0,0.0,0.0,7.667,0.0,0.0,0.0,0.0,0.0,0.0,10.0194,0.0,0.0,9.4194,9.2359,8.7904,0.0,0.0,0.0,7.98,0.0,0.0,7.628,7.41,7.3263,0.0,0.0,0.0,0.0,0.0,0.0,8.3316,8.8776,9.1505,9.4662,9.8154,10.109,10.6009,11.1416,0.0,10.979,11.1216,11.0891,11.0817,0.0,10.9905,10.851,10.7011,10.6203,10.3707,10.0995,10.0398,10.0298,0.0,0.0,0.0,10.2789,9.4639,0.0,0.0,0.0,0.0,0.0,0.0,0.0,0.0,0.0,0.0,0.0,0.0,0.0,0.0,0.0,7.9026,7.9242,8.226,8.6436,8.8675,8.7664,8.7163,8.7782,8.9911,8.5373,8.487,9.0291,8.9733,9.0008,9.1644,9.1428,9.1921,9.3165,9.3451,9.3984,9.4714,9.5466,9.5669,9.5398,9.4917,9.4545,9.4383,9.5364,9.5811,9.5905,9.7386,9.7995,9.8029,9.8266,9.9111,10.0287,10.1089,10.1909,10.2494,6.3738,0.0,0.0,0.0,0.0,0.0,0.0,0.0,0.0,0.0,9.3932,0.0,10.571,0.0,10.6114,0.0,10.4582,10.0985,9.5515,9.3964,0.0,8.8009,8.7133,0.0,0.0,0.0,0.0,7.5747,0.0,7.584,0.0,0.0,0.0,0.0,0.0,8.5624,9.0175,9.5763,9.9071,10.0917,10.431,10.82,0.0,0.0,11.1399,11.1583,0.0,11.121,11.121,11.121,11.0199,10.8804,10.8516,10.6287,10.3607,10.3009,10.2784,10.2715,10.2086,10.3885,0.0,9.8305,9.5988,0.0,8.6701,0.0,0.0,0.0,0.0,0.0,0.0,0.0,0.0,0.0,0.0,0.0,0.0,7.799,7.8096,8.0314,8.3361,8.5119,8.4641,8.4792,8.5123,8.56,8.27,8.2517,8.6292,8.6575,8.7772,9.0175,9.0685,9.1785,9.3586,9.3586,9.4086,9.5086,9.5033,9.5169,9.5364,9.4654,9.4315,9.4349,9.5372,9.5811,9.5905,9.7386,9.7995,9.8029,9.8299,9.9137,10.0295,10.0811,10.1581,10.2494,6.4577,0.0,0.0,0.0,6.8135,0.0,0.0,0.0,8.5669,0.0,9.6539,10.1998,10.85,10.8594,10.8987,11.1289,11.0109,0.0,9.8043,9.9622,0.0,0.0,9.0877,9.0032,8.7537,0.0,0.0,0.0,0.0,0.0,0.0,0.0,0.0,0.0,8.5151,8.8307,9.117,10.0892,10.6119,10.8012,11.0304,11.121,11.1289,11.121,11.1693,11.2291,11.1509,11.121,11.121,11.121,11.121,11.1111,11.0314,10.9004,10.7383,10.5705,10.5301,10.5002,10.3392,10.42,10.4493,10.0493,0.0,0.0,0.0,0.0,9.7429,0.0,0.0,0.0,0.0,0.0,0.0,0.0,0.0,0.0,7.7982,7.7285,7.7917,7.9592,8.1056,8.2557,8.4205,8.3609,8.2468,8.093,8.0024,7.9778,8.0252,8.2267,8.4604,8.7235,8.924,9.1376,9.362,9.362,9.4323,9.5744,9.4296,9.3951,9.4612,9.3917,9.3586,9.3687,9.5169,9.5811,9.5905,9.7386,9.7995,9.8063,9.8781,9.9517,10.0212,10.0287,10.1193,10.2494,6.696,6.8482,6.9948,0.0,6.9955,7.1403,7.57,0.0,0.0,0.0,10.2517,10.8494,11.4403,11.5406,11.5584,11.5694,11.5798,0.0,0.0,0.0,0.0,10.2191,10.0503,9.7892,9.4295,9.2056,0.0,8.6276,0.0,0.0,8.1497,7.821,7.7248,7.8496,8.4376,8.8018,9.0344,10.0104,10.6601,11.0298,11.1001,11.1588,11.1986,0.0,11.1693,11.2291,11.1509,11.121,11.121,11.121,11.121,11.1111,11.0314,10.969,10.9114,10.7409,10.7818,10.8505,10.7514,10.8384,10.9019,10.6088,10.3591,10.0897,0.0,0.0,0.0,0.0,0.0,0.0,0.0,0.0,0.0,0.0,0.0,0.0,0.0,7.7285,7.7917,7.9592,7.8523,7.8556,8.0803,7.9719,7.868,7.8276,7.6962,7.7262,7.9791,8.2928,8.5578,8.7691,9.0215,9.2459,9.439,9.3857,9.4052,9.4984,9.4052,9.3687,9.3883,9.3687,9.3586,9.3687,9.5169,9.5811,9.5905,9.7386,9.7995,9.8029,9.8206,9.9077,10.0305,10.1505,10.2198,10.2494,6.9376,0.0,0.0,7.3406,7.5098,7.7488,8.0563,8.4413,0.0,9.8034,10.4095,0.0,11.3088,11.6092,11.8006,11.819,11.83,0.0,11.3288,0.0,0.0,10.7587,10.6119,10.3801,10.0419,9.6979,0.0,8.9918,0.0,0.0,8.2659,7.9014,7.7693,7.8618,8.4058,8.7362,8.9569,9.9989,10.6811,11.0707,11.1111,11.1515,0.0,11.1399,11.1515,11.1803,11.1405,11.121,11.121,11.121,11.121,11.11,11.0713,11.0487,11.0304,10.9386,10.9795,11.0414,11.001,11.0518,11.0891,10.9501,10.7807,10.5783,10.3408,10.389,10.4105,0.0,0.0,0.0,0.0,0.0,0.0,0.0,0.0,0.0,0.0,0.0,7.7004,7.7936,7.7005,7.6727,7.7935,7.6648,7.5861,7.6221,7.5751,7.6089,7.7565,8.2078,8.5244,8.6635,9.0439,9.3139,9.4501,9.4546,9.4627,9.468,9.3951,9.3586,9.3586,9.3586,9.3586,9.3687,9.5169,9.5811,9.5905,9.7386,9.7995,9.8063,9.8698,9.9881,10.1302,10.2189,10.2494,10.2494,0.0,0.0,0.0,0.0,0.0,0.0,0.0,8.8536,0.0,9.9539,0.0,10.8804,11.0188,11.4818,11.83,11.9786,0.0,11.7388,11.3906,11.5411,11.4494,11.012,10.9606,10.8316,10.5998,10.0985,0.0,0.0,0.0,0.0,8.3165,7.9271,7.8288,7.9963,8.3997,8.7183,9.0156,10.0309,10.6517,10.9612,11.0592,11.1106,11.121,11.121,11.121,11.121,11.121,11.121,11.121,11.121,11.121,11.121,11.121,11.121,11.121,11.121,11.121,11.121,11.121,11.121,11.121,11.121,11.121,11.0707,10.851,10.8086,10.7598,10.5888,10.4389,10.2699,0.0,0.0,0.0,8.1069,0.0,0.0,0.0,0.0,7.5983,7.6051,7.6298,0.0,7.6125,7.4791,7.4201,7.4859,7.5535,7.5645,7.4944,8.0541,8.4143,8.496,9.0025,9.3305,9.4468,9.5166,9.533,9.4984,9.4052,9.3586,9.3586,9.3586,9.3586,9.3687,9.5169,9.5811,9.5905,9.7386,9.8063,9.8266,9.9678,10.1099,10.2401,10.2502,10.2494,10.2494,0.0,0.0,0.0,0.0,0.0,8.9422,9.4933,9.9287,10.3392,10.7514,11.409,11.8495,11.8703,11.9706,12.0618,12.1591,12.1505,0.0,0.0,0.0,0.0,11.5798,11.3791,11.1882,11.0188,10.399,9.9485,0.0,0.0,0.0,0.0,7.9653,7.8887,7.9963,8.3997,8.9683,9.6475,10.0398,10.3995,10.7189,10.9402,11.0597,11.121,11.121,11.121,11.121,11.121,11.121,11.121,11.121,11.121,11.121,11.121,11.121,11.121,11.121,11.121,11.121,11.121,11.121,11.121,11.121,11.121,11.1106,11.0707,11.0597,11.0115,10.8505,10.7409,10.4493,9.7196,0.0,0.0,0.0,0.0,0.0,0.0,0.0,0.0,0.0,7.6844,7.6787,7.7692,7.6248,7.5164,7.4924,7.5017,7.5054,7.4907,7.9747,8.3112,8.4389,8.8555,9.2301,0.0,0.0,9.4838,9.6496,9.4533,9.3586,9.3586,9.3586,9.3586,9.3687,9.5169,9.5811,9.5905,9.7386,9.8367,9.8984,9.9848,10.0811,10.1714,10.2299,10.2494,10.2494,0.0,0.0,0.0,0.0,0.0,0.0,0.0,10.711,11.0408,10.9501,11.2805,11.5411,11.5804,11.8495,12.0697,12.1988,12.1689,12.1511,12.1511,11.989,11.841,11.7309,11.4898,0.0,11.2517,10.6093,10.1619,9.915,0.0,0.0,0.0,0.0,7.8365,7.9294,8.208,8.8064,9.6144,9.8158,10.1604,10.6009,10.8804,11.0493,11.121,11.121,11.121,11.121,11.121,11.121,11.121,11.121,11.121,11.121,11.121,11.121,11.121,11.121,11.121,11.121,11.121,11.121,11.121,11.121,11.121,11.121,11.121,11.121,11.0891,10.969,10.8186,10.4691,9.6762,8.8756,0.0,0.0,0.0,0.0,0.0,0.0,7.867,0.0,0.0,0.0,7.6134,7.5775,7.5486,7.5506,7.5535,7.5535,7.5535,7.9764,8.3079,8.5028,8.9507,0.0,9.5812,0.0,9.6587,9.6167,9.4708,9.3886,9.3586,9.3586,9.3586,9.3687,9.5548,9.615,9.5947,9.78,9.9018,9.9754,10.0498,10.1284,10.1995,10.2401,10.2494,10.2494,0.0,8.6334,0.0,0.0,9.6805,0.0,10.5983,11.2297,11.5112,11.1289,11.1704,11.259,11.3198,11.7204,12.0508,12.2203,12.1505,12.0979,12.1389,11.97,11.83,11.7486,11.5301,11.3906,11.3587,10.7703,10.3004,0.0,0.0,0.0,0.0,0.0,7.8218,7.8964,8.1265,8.6366,9.3455,0.0,10.0309,10.5112,10.8584,11.0493,11.121,11.121,11.121,11.121,11.121,11.121,11.121,11.121,11.121,11.121,11.121,11.121,11.121,11.121,11.121,11.121,11.121,11.121,11.121,11.121,11.121,11.121,11.121,11.121,11.1001,11.0204,10.7819,10.4003,9.7399,9.0895,0.0,0.0,0.0,0.0,0.0,0.0,0.0,0.0,0.0,0.0,7.4525,7.5496,7.6101,7.5865,7.6016,7.6093,7.6093,7.9323,8.2235,8.455,8.9447,9.3145,9.5416,0.0,9.7738,9.597,9.4805,9.4009,9.3586,9.3586,9.3687,9.3958,9.5853,9.659,9.6657,9.8383,9.9627,10.049,10.1207,10.1909,10.2494,10.2494,10.2494,10.2494,0.0,0.0,0.0,0.0,0.0,10.6911,10.7388,11.3582,11.8006,11.7614,11.8893,11.9884,11.9994,12.0514,12.1383,12.2992,12.1793,12.1499,12.2998,12.0802,11.9113,11.83,11.6696,11.5087,11.3582,10.9402,10.389,0.0,0.0,0.0,0.0,0.0,0.0,7.9886,8.4421,0.0,0.0,9.7084,10.1494,10.4404,10.8406,11.0493,11.121,11.121,11.121,11.121,11.121,11.121,11.121,11.121,11.121,11.121,11.121,11.121,11.121,11.121,11.121,11.121,11.121,11.121,11.121,11.121,11.121,11.121,11.121,11.121,11.1001,11.0204,10.6486,10.2301,9.8263,9.6076,9.4073,0.0,0.0,0.0,0.0,0.0,8.3812,7.9352,0.0,0.0,7.5195,7.7168,7.778,7.5195,7.5685,7.6093,7.6093,7.7146,7.869,8.0744,8.5464,8.9917,9.3952,9.4542,9.5733,9.7557,9.4915,9.3665,9.3586,9.3586,9.3951,9.4646,9.5533,9.6995,9.8822,9.9025,9.9973,10.13,10.141,10.1909,10.2494,10.2494,10.2494,10.2494,0.0,0.0,0.0,0.0,0.0,0.0,0.0,11.6208,11.8599,11.9088,12.0184,12.1101,12.1585,12.1211,12.1493,12.3188,12.1787,12.1395,12.2496,12.0294,11.8709,11.8416,11.6397,11.5002,11.4305,11.0907,10.6203,0.0,0.0,0.0,0.0,0.0,0.0,0.0,0.0,8.7174,9.2648,9.6984,10.1394,10.5689,10.8815,11.0493,11.121,11.121,11.121,11.121,11.121,11.121,11.121,11.121,11.121,11.121,11.121,11.121,11.121,11.121,11.121,11.121,11.121,11.121,11.121,11.121,11.121,11.121,11.121,11.121,11.0911,10.9591,10.6193,10.2982,10.1914,9.8569,9.647,0.0,0.0,0.0,0.0,0.0,0.0,8.0952,0.0,7.7416,7.4861,7.5315,7.6133,7.7055,7.6926,7.6599,7.613,0.0,0.0,8.1352,8.5614,8.9273,9.2219,9.5207,9.6378,9.5756,9.5054,9.4566,9.4282,9.4729,9.5567,9.6676,9.6522,9.7198,9.8476,9.8924,9.9728,10.0701,10.1191,10.1909,10.2494,10.2494,10.2494,10.2494,10.1714,0.0,10.3691,0.0,10.969,11.0891,11.6103,11.7712,11.8599,11.9192,12.0404,12.1511,12.1982,12.1799,12.2196,12.3512,12.2411,12.1793,12.2386,12.0587,11.9192,11.841,11.6801,0.0,11.4813,11.2286,10.8699,10.3806,9.9071,0.0,0.0,0.0,0.0,0.0,8.4976,8.9316,9.5594,9.8971,10.3009,10.7299,10.9501,11.0707,11.121,11.121,11.121,11.121,11.121,11.121,11.121,11.121,11.121,11.121,11.121,11.121,11.121,11.121,11.121,11.121,11.121,11.121,11.121,11.121,11.121,11.121,11.121,11.121,11.0706,10.8694,10.6385,10.4719,10.4401,10.139,9.9773,10.1998,0.0,0.0,0.0,9.1266,0.0,8.2372,7.8924,7.6294,7.474,7.4412,7.5276,7.7665,7.7297,7.6926,0.0,0.0,0.0,0.0,0.0,0.0,9.2094,9.5593,9.6678,9.5319,9.5275,9.5078,9.474,9.5702,9.6691,9.7664,9.7578,9.7977,9.8705,9.9457,10.0194,10.0888,10.1495,10.1987,10.2494,10.2494,10.2494,10.2494,10.55,10.7593,10.9679,11.3,11.4787,11.5889,11.5999,11.7394,11.8416,11.8416,12.0593,12.2098,12.2098,12.2784,12.3585,12.4399,12.3695,12.3292,12.3292,12.2496,12.0997,0.0,0.0,11.7199,11.4892,11.3985,11.1201,10.6392,0.0,0.0,9.1661,0.0,8.6559,8.828,9.2359,9.552,9.8237,10.389,10.7304,10.8909,11.0513,11.121,11.121,11.121,11.121,11.121,11.121,11.121,11.121,11.121,11.121,11.121,11.121,11.121,11.121,11.121,11.121,11.121,11.121,11.121,11.121,11.121,11.121,11.121,11.121,11.121,11.0392,10.7384,10.7301,10.709,10.4784,10.539,10.5212,10.2013,0.0,0.0,0.0,9.2475,0.0,8.3736,8.3188,8.1013,7.5165,7.5473,7.6082,7.613,7.613,7.6827,0.0,0.0,0.0,8.0893,8.4931,0.0,9.4212,9.4862,9.5915,9.743,9.5573,9.4695,9.474,9.6217,9.6909,9.7003,9.845,9.9483,10.0204,10.1014,10.18,10.2502,10.2494,10.2494,10.2494,10.2494,10.2494,10.2494,10.8589,11.0608,11.2407,11.3398,11.4898,11.6219,11.6716,11.7712,11.8599,11.9113,12.0887,12.2098,12.2098,12.2784,12.3805,0.0,12.3604,12.271,0.0,12.0991,11.9187,11.841,11.7309,11.6397,11.5589,11.4818,11.2585,10.8888,0.0,0.0,0.0,9.218,9.2143,9.3322,9.6245,9.9842,10.389,10.6785,10.8987,11.0482,11.0995,11.121,11.121,11.121,11.121,11.121,11.121,11.121,11.121,11.121,11.121,11.121,11.121,11.121,11.1284,11.1882,11.1583,11.1284,11.1882,11.1583,11.121,11.121,11.121,11.121,11.121,11.0396,10.9702,10.9792,10.8387,10.7207,10.7398,10.6496,10.498,10.2687,10.0806,0.0,9.3024,0.0,8.662,8.1933,7.9633,7.7673,7.5789,7.59,7.657,7.7712,7.726,0.0,0.0,0.0,0.0,0.0,8.6541,0.0,9.1607,9.3929,9.5012,9.4852,9.5263,9.5973,9.698,9.7428,9.7901,9.8424,9.889,9.9517,10.0212,10.0498,10.0998,10.1816,10.1816,10.2104,10.2494,10.2494,10.2494,10.2494,11.0896,11.2585,11.4096,11.4096,11.5411,11.6611,11.7113,11.8116,11.9003,11.9486,12.1285,12.2612,12.2612,12.3518,0.0,12.5182,12.3897,12.3084,12.3292,12.0796,11.9113,11.841,11.7088,11.6287,11.5999,11.518,0.0,11.1814,10.8516,10.3885,9.8337,9.775,9.8232,9.9673,10.1499,10.4284,10.7813,10.9087,11.0298,11.121,11.1504,11.1515,11.1289,11.1882,11.1693,11.121,11.1504,11.1515,11.121,11.121,11.121,11.121,11.121,11.1399,11.1698,11.1919,11.1583,11.1284,11.1808,11.1583,11.121,11.121,11.121,11.121,11.121,11.0106,10.9318,11.0211,10.8915,10.7704,10.7901,10.7292,10.5792,10.309,10.1305,9.8114,9.1884,0.0,8.483,0.0,0.0,0.0,0.0,7.7452,7.8295,7.8145,7.9014,0.0,0.0,0.0,0.0,8.4238,8.7445,9.0227,9.2427,9.4026,9.4805,9.4784,9.5757,9.6826,9.7995,9.7995,9.8232,9.8713,9.9288,9.978,10.0204,10.0787,10.1386,10.18,10.18,10.2096,10.2494,10.2494,10.2494,10.2494,11.2517,11.3712,11.4813,0.0,11.6208,11.7187,11.7309,11.8599,11.9602,11.9602,12.1719,12.3212,12.3212,12.4705,12.5292,12.4595,0.0,0.0,12.3298,12.1719,12.0104,11.8605,11.7712,11.6905,11.6182,11.529,11.4813,11.4703,11.0094,10.7005,10.5406,10.3917,10.4389,10.679,10.7488,10.8699,11.0314,11.0995,11.1284,11.1284,11.2102,11.1913,11.1399,11.2915,11.2585,11.1399,11.2212,11.1992,11.1405,11.1289,11.1289,11.1289,11.1289,11.1808,11.2212,11.1588,11.1284,11.1289,11.1405,11.1289,11.121,11.121,11.1113,11.1015,11.1015,10.9898,10.8902,10.8989,10.9007,10.8508,10.7004,10.781,10.7409,10.3214,10.1113,9.761,9.088,8.7441,8.3716,7.8594,0.0,0.0,0.0,7.9858,8.0934,0.0,8.1146,0.0,0.0,0.0,8.2809,8.5935,8.8,9.1268,9.5878,9.4887,9.5169,9.6719,9.688,9.7334,9.7995,9.7995,9.8029,9.8164,9.9543,10.0194,10.0313,10.1809,10.2384,10.2384,10.2494,10.2494,10.2494,10.2494,10.2494,10.2494,0.0,0.0,11.5002,11.5589,11.6495,11.7413,11.8006,11.9009,11.9602,11.9602,12.1211,12.2392,12.2392,12.3818,12.4699,12.4509,12.3916,12.3181,12.2386,12.0808,11.9706,11.9303,11.8012,11.7413,11.7792,11.6397,11.5118,11.3912,11.1515,10.979,10.8804,10.7807,10.8316,11.012,11.0304,11.1184,11.2816,11.3,11.2701,11.2097,11.2286,11.1913,11.1284,11.2286,11.239,11.2212,11.2989,11.3215,11.2915,11.2286,11.2097,11.2097,11.2097,11.1803,11.1698,11.2695,11.2585,11.2207,11.2884,11.2097,11.121,11.121,11.0386,10.9493,10.9493,10.8403,10.7594,10.8797,10.9007,10.8908,10.8392,10.8106,10.6308,10.1599,9.8327,9.4052,8.7476,8.4886,8.2509,0.0,8.058,8.1636,8.1608,8.1408,8.1742,0.0,0.0,8.1493,8.3361,8.4459,8.6109,8.846,9.102,9.3569,9.6108,9.552,9.5769,9.6875,9.7476,9.7834,9.7995,9.7995,9.8299,9.8848,9.9221,9.9686,10.0287,10.13,10.1714,10.1698,10.2299,10.2494,10.2494,10.2494,10.2494,10.2494,11.4494,11.529,11.6287,11.7388,11.8012,11.8599,11.9401,11.989,12.0294,12.0703,12.1915,12.279,12.32,12.4301,12.4888,12.4509,12.4105,12.3518,12.271,12.1101,12.0,11.9596,11.8416,11.7786,11.7817,11.7015,11.5815,11.4084,11.3313,11.239,11.1599,11.119,11.1489,11.2286,11.2286,11.2805,11.3587,11.3587,11.3282,11.2994,11.3308,11.2983,11.2396,11.3613,11.3618,11.2994,11.3392,11.3404,11.2994,11.2506,11.2401,11.2517,11.2805,11.291,11.3014,11.3906,11.3313,11.2396,11.2511,11.2097,11.1698,11.1289,11.0093,10.9007,10.9007,10.841,10.8,10.8817,10.9505,10.9789,10.8894,10.7807,10.5285,10.0109,9.5961,9.1184,8.4716,8.2727,8.1336,7.9653,8.1737,8.3471,8.3903,8.4821,8.5004,8.4123,8.4833,0.0,8.5669,8.7847,8.9264,8.9626,9.169,9.3787,9.5849,9.6048,9.6567,9.7401,9.7792,9.7995,9.8029,9.8341,9.8544,9.8645,9.9314,9.9822,10.0295,10.1097,10.1605,10.1885,10.2283,10.2494,10.2494,10.2494,10.2494,10.2494,11.581,11.6605,11.7712,11.9198,11.9486,11.9896,12.0808,12.0991,12.1285,12.1988,12.2894,12.3695,12.4399,12.5219,12.5402,12.4693,12.4699,12.4295,12.3408,12.1903,12.0814,12.0,11.9082,11.8306,11.7602,11.7297,11.6385,11.4813,11.4813,11.4415,11.3587,11.3587,11.3697,11.3802,11.3802,11.3796,11.3991,11.3991,11.3918,11.3796,11.4482,11.4305,11.3808,11.5307,11.5013,11.3802,11.3912,11.3503,11.291,11.28,11.2805,11.2915,11.3587,11.42,11.4592,11.4818,11.3785,11.2616,11.1808,11.1992,11.2215,11.1103,10.9908,10.8899,10.8403,10.8388,10.8517,10.8581,10.9797,11.0413,10.9102,10.7409,10.4394,9.8737,9.382,8.8689,8.2863,0.0,8.0555,8.0305,8.3373,8.5596,8.5853,8.8748,8.9042,8.5335,8.9009,9.0514,8.8413,9.0802,9.186,9.0877,9.1818,9.3435,9.5682,9.6609,9.7368,9.7995,9.8096,9.8096,9.8029,9.8882,9.8848,9.8232,9.9611,10.0212,10.0295,10.1097,10.1808,10.2283,10.2502,10.2494,10.2494,10.2494,10.2494,10.2486,11.581,11.6605,11.7486,11.841,11.9113,11.9896,12.0808,12.1511,12.1994,12.2105,12.3414,12.4405,12.4515,12.5219,12.5586,12.5513,12.5513,12.4888,12.3402,12.2417,12.1884,12.1695,12.0184,11.9382,11.9187,11.7896,11.6385,11.4813,11.4813,11.4415,11.3587,11.3587,11.3985,11.4592,11.4592,11.5002,11.5595,11.5595,11.5185,11.4592,11.4697,11.4305,11.3692,11.4592,11.4813,11.4708,11.5411,11.5479,11.5296,11.4708,11.4409,11.4403,11.4598,11.4194,11.3906,11.4592,11.4592,11.431,11.3392,11.2805,11.1903,10.9915,10.9212,10.841,10.5905,10.5811,10.6502,10.6997,10.8304,10.9188,10.8912,10.6884,10.3604,9.8235,9.1622,8.6081,8.3068,0.0,8.1236,8.3543,8.7279,9.022,9.1652,9.1065,9.1175,9.2505,9.084,9.1056,9.4028,9.2619,9.2801,9.5159,9.4376,9.4805,9.6647,9.7441,9.7894,9.7995,9.8612,9.8612,9.8063,9.9408,9.9619,9.8984,9.9814,10.0212,10.0295,10.1097,10.1511,10.1589,10.2307,10.2494,10.2494,10.2494,10.2494,10.2595,11.7015,11.7608,11.8416,12.011,12.0703,12.1211,12.2092,12.249,12.29,12.3298,12.3995,12.4699,12.5109,12.5513,12.5702,12.5702,12.5702,12.5409,12.4582,12.3812,12.301,12.2098,12.1407,12.0294,11.9009,11.7786,11.6605,11.54,11.54,11.5301,11.4903,11.4903,11.5296,11.6097,11.6097,11.6318,11.6605,11.6605,11.6213,11.54,11.54,11.5191,11.4898,11.5296,11.54,11.5406,11.5411,11.5411,11.5296,11.4886,11.4813,11.4886,11.5296,11.5191,11.5013,11.5296,11.4818,11.42,11.4194,11.2814,11.1093,11.0401,10.8382,10.639,10.5496,10.5801,10.6388,10.6695,10.8599,10.9904,10.8994,10.5915,10.2097,9.7872,9.0262,0.0,0.0,8.197,8.2281,8.5286,8.8961,9.2097,9.418,9.3703,9.3703,9.4845,9.3923,9.3847,9.5003,9.3678,9.38,9.577,9.5744,9.6266,9.7477,9.7834,9.8198,9.8612,9.8958,9.9119,9.9205,10.0287,10.0397,9.9754,10.0498,10.0803,10.0886,10.1183,10.1589,10.1987,10.2401,10.2494,10.2494,10.2494,10.2494,10.2595,11.7786,11.8306,11.9082,12.1187,12.1799,12.2313,12.2894,12.3292,12.3805,12.4399,12.4705,12.4992,12.5586,12.5702,12.5702,12.5702,12.5702,12.5702,12.5702,12.5102,12.4118,12.2386,12.1799,12.0587,11.8709,11.7896,11.7199,11.6592,11.6592,11.6592,11.6592,11.6403,11.6611,11.7193,11.7009,11.6899,11.6899,11.6899,11.6617,11.5999,11.5999,11.5999,11.5999,11.5999,11.5999,11.5889,11.5296,11.5112,11.5112,11.5112,11.5112,11.5185,11.581,11.5999,11.5999,11.5999,11.5081,11.4101,11.3985,11.2401,11.0714,11.0405,10.8,10.5593,10.5283,10.6095,10.6801,10.6805,10.892,11.0185,10.8618,10.4982,10.0999,9.6894,0.0,0.0,0.0,8.3437,8.4232,8.7224,9.0643,9.3554,9.5679,9.616,9.6345,9.6345,9.7084,9.7042,9.5861,9.5354,9.5312,9.5798,9.6511,9.7266,9.7995,9.7995,9.8273,9.8856,9.9025,9.939,9.9983,10.0785,10.0886,10.049,10.1115,10.1503,10.1714,10.1714,10.2003,10.2494,10.2494,10.2494,10.2494,10.2494,10.2494,10.2587,11.7083,11.7896,11.8709,11.9596,12.1113,12.2098,12.2209,12.3493,12.4399,12.4515,12.5102,12.5586,12.5702,12.5702,12.5702,12.5702,12.5702,12.5702,12.5702,12.5586,12.4888,12.3292,12.0991,11.9706,11.9486,11.8709,11.8306,11.8195,11.8195,11.8195,11.8195,11.7492,11.7113,11.7193,11.6391,11.6109,11.6109,11.6109,11.6115,11.5999,11.5999,11.5999,11.5999,11.5999,11.5999,11.5999,11.5883,11.5889,11.5889,11.5889,11.5889,11.5889,11.6005,11.5999,11.5999,11.5999,11.5889,11.52,11.2301,11.1914,11.1485,10.8109,10.7992,10.8013,10.4509,10.5411,10.6883,10.6798,10.811,10.8684,10.71,10.4788,10.099,9.4699,0.0,0.0,8.5853,8.6249,8.7732,9.0434,9.3604,9.5959,9.6889,9.8103,9.8841,9.8841,9.9585,9.9749,9.9083,9.8615,9.7892,9.6828,9.6861,9.7266,9.7995,9.7995,9.8029,9.8096,9.8781,9.9127,9.9221,9.9957,10.0717,10.1292,10.141,10.18,10.2384,10.2384,10.2502,10.2494,10.2494,10.2494,10.2494,10.2494,10.2494,10.2697,11.7786,11.8997,12.0214,12.0997,12.2496,12.3597,12.3597,12.4515,12.5213,12.5213,12.5513,12.5702,12.5702,12.5702,12.5702,12.5702,12.5702,12.5702,12.5702,12.5219,12.4515,12.3285,12.1383,12.019,11.9602,11.9303,11.8893,11.8416,11.8416,11.8416,11.8416,11.8116,11.819,11.8715,11.7786,11.7498,11.7504,11.6984,11.6513,11.5999,11.5999,11.5999,11.5999,11.5999,11.5999,11.5999,11.5999,11.5999,11.5999,11.5999,11.5999,11.5999,11.5999,11.5999,11.5999,11.5999,11.5296,11.4113,11.1989,11.1291,11.0712,10.881,10.7002,10.5505,10.4493,10.5616,10.6796,10.6793,10.799,10.8682,10.7587,10.4395,10.13,9.9207,0.0,9.1334,9.2347,9.2396,9.2811,9.4112,9.6832,9.8927,9.9745,10.0308,10.0985,10.2008,10.238,10.1716,9.9806,9.8791,9.7839,9.6947,9.7781,9.8383,9.8679,9.824,9.8469,9.9374,9.9653,9.9991,10.0597,10.1318,10.1784,10.2104,10.2104,10.2215,10.2494,10.2494,10.2494,10.2494,10.2494,10.2494,10.2494,10.2494,10.2494,10.2587,11.8184,11.9694,12.1217,12.1994,12.3414,12.4515,12.4515,12.5182,12.5702,12.5702,12.5702,12.5702,12.5702,12.5702,12.5702,12.5702,12.5702,12.5702,12.5702,12.4919,12.4099,12.3285,12.2013,12.0991,12.041,12.011,11.97,11.9187,11.9187,11.9187,11.9187,11.8893,11.8893,11.9192,11.8593,11.8085,11.7602,11.7602,11.6984,11.5999,11.6292,11.6213,11.5999,11.5999,11.5999,11.5999,11.5999,11.5999,11.5999,11.5999,11.5999,11.5999,11.5999,11.5999,11.5999,11.5999,11.4911,11.3412,11.189,11.0801,10.9815,10.8693,10.6501,10.4599,10.4692,10.5397,10.6114,10.6114,10.6883,10.7396,10.6605,10.3795,10.1403,10.071,9.734,9.5347,9.6707,9.6647,9.6783,9.7532,9.9133,10.0615,10.1497,10.2002,10.2715,10.3812,10.3698,10.2707,10.0387,9.9073,9.8206,9.7943,9.8679,9.933,9.9804,9.8848,9.8976,10.0212,10.0212,10.0592,10.1402,10.1698,10.2004,10.2494,10.2307,10.2299,10.2494,10.2494,10.2494,10.2494,10.2494,10.2494,10.2494,10.2494,10.2494,10.2587,11.8306,11.9816,12.1211,12.1988,12.3414,12.4509,12.4503,12.5206,12.5684,12.5714,12.5714,12.5714,12.569,12.5714,12.572,12.5702,12.569,12.569,12.5702,12.4919,12.4185,12.3285,12.249,12.2098,12.2098,12.1285,12.0912,12.0912,12.0912,12.0912,12.0918,12.0,11.9192,11.841,11.8416,11.7498,11.6103,11.7718,11.7504,11.6115,11.6905,11.6685,11.5999,11.5999,11.5999,11.5999,11.5999,11.5999,11.5999,11.5999,11.5999,11.5999,11.5999,11.5999,11.5999,11.5999,11.4911,11.3406,11.189,11.04,10.881,10.7283,10.6908,10.6502,10.5014,10.47,10.4714,10.4599,10.4582,10.4389,10.3615,10.2909,10.1201,9.7552,9.8604,9.9312,9.7776,9.8236,9.9222,10.0587,10.03,10.05,10.181,10.3091,10.3885,10.388,10.3386,10.2505,10.1296,9.986,9.9457,10.0186,9.9483,9.9845,10.141,9.9871,9.9483,10.0212,10.0212,10.0592,10.141,10.0608,10.1107,10.2502,10.169,10.1792,10.2494,10.2494,10.2494,10.2494,10.2494,10.2494,10.2494,10.2494,10.2494,10.2697,11.9082,12.1016,12.2814,12.3591,12.4589,12.4893,12.3808,12.3799,12.3505,12.2414,12.2313,12.2686,12.38,12.2913,12.3209,12.5497,12.4595,12.4189,12.4783,12.5188,12.4999,12.4185,12.279,12.2098,12.2098,12.1285,12.0912,12.0912,12.0912,12.0912,12.0912,12.0618,12.0404,12.0104,11.8887,11.8116,11.7602,11.699,11.6397,11.5999,11.6292,11.6213,11.5999,11.5999,11.5999,11.5999,11.5999,11.5999,11.5999,11.5999,11.5999,11.5999,11.5999,11.5999,11.5999,11.5999,11.4189,11.2093,11.1603,10.9586,10.7507,10.7,10.6494,10.6012,10.5589,10.5507,10.5501,10.5385,10.5006,10.4513,10.4285,10.4085,10.3694,10.3106,10.3908,10.4404,10.401,10.319,10.279,10.3115,10.2615,10.2687,10.3999,10.4483,10.5013,10.561,10.3698,10.2095,10.119,9.986,9.9457,10.0186,9.9983,10.0412,10.141,9.9871,9.977,10.1014,10.1014,10.1207,10.1402,10.169,10.2096,10.2494,10.2307,10.2299,10.2494,10.2494,10.2494,10.2494,10.2494,10.2494,10.2494,10.2494,10.279,10.3296,11.9407,12.1609,12.3591,12.4405,12.4589,12.4391,12.3403,12.3186,12.2899,12.1891,12.2299,12.2885,12.3194,12.2906,12.3292,12.4612,12.4404,12.4406,12.49,12.5402,12.5513,12.4992,12.3708,12.29,12.2606,12.1799,12.1205,12.0912,12.0912,12.0912,12.0912,12.1205,12.0991,12.0404,11.9994,11.9297,11.8416,11.8091,11.7583,11.699,11.7284,11.6984,11.6507,11.6507,11.6292,11.5999,11.5999,11.5999,11.5999,11.5999,11.5999,11.5999,11.5999,11.5999,11.5906,11.5297,11.3399,11.139,11.0805,10.8794,10.6908,10.6908,10.6604,10.6198,10.5885,10.5806,10.5614,10.5096,10.4481,10.4104,10.3795,10.419,10.4712,10.5095,10.6491,10.7187,10.6311,10.5217,10.4489,10.4684,10.3496,10.3492,10.5405,10.5595,10.538,10.4816,10.3203,10.1796,10.0886,9.9986,9.9991,10.1107,10.0795,10.0998,10.1792,10.0615,10.0615,10.1792,10.1792,10.1792,10.1909,10.2299,10.2494,10.2494,10.2494,10.2494,10.2494,10.2494,10.2494,10.2494,10.2494,10.2494,10.2494,10.2494,10.2984,10.3509,11.9718,12.1683,12.3512,12.4287,12.3693,12.3095,12.2785,12.2899,12.2891,12.28,12.4102,12.4497,12.3109,12.4095,12.4391,12.3305,12.4686,12.5702,12.5702,12.5702,12.5702,12.5702,12.4992,12.4215,12.3402,12.2606,12.1793,12.1095,12.0979,12.0985,12.0985,12.1695,12.1181,11.9786,12.1211,12.0587,11.8599,12.011,11.9811,11.8495,11.9192,11.8599,11.7193,11.7193,11.6685,11.5999,11.6115,11.6115,11.5999,11.5999,11.5999,11.5999,11.5999,11.5999,11.5719,11.4195,11.2687,11.1183,10.9601,10.8108,10.6908,10.6908,10.6908,10.6697,10.6096,10.5801,10.5403,10.41,10.372,10.3491,10.2689,10.3898,10.4901,10.4797,10.7316,10.8414,10.5986,10.5108,10.4904,10.5391,10.3596,10.3505,10.6304,10.6396,10.5189,10.2604,10.2209,10.1604,10.0393,10.0204,10.0896,10.2502,10.1808,10.1808,10.2494,10.1792,10.1792,10.2494,10.2494,10.2494,10.2494,10.2494,10.2494,10.2494,10.2494,10.2494,10.2494,10.2494,10.2494,10.2494,10.2494,10.2494,10.2494,10.2494,10.2984,10.3585,12.1297,12.249,12.3287,12.3493,12.3285,12.2299,11.9784,12.0508,12.0792,11.9501,11.9696,12.0297,12.1192,11.9302,11.9391,12.2906,12.4686,12.5702,12.5702,12.5702,12.5702,12.5702,12.5513,12.5109,12.4295,12.3487,12.3004,12.2784,12.2086,12.1799,12.1799,12.1395,12.0991,12.0581,12.03,11.9816,11.9303,11.9082,11.8703,11.841,11.8599,11.8085,11.7193,11.7193,11.6685,11.6115,11.6685,11.6501,11.5999,11.5999,11.5999,11.5999,11.5999,11.5999,11.5719,11.4195,11.2687,11.1183,10.9601,10.8108,10.6908,10.6908,10.6908,10.6917,10.6705,10.6215,10.5707,10.5411,10.4887,10.4202,10.3491,10.5492,10.6992,10.6393,10.8809,10.9689,10.6905,10.5909,10.5498,10.5504,10.4603,10.5109,10.7989,10.6702,10.52,10.4087,10.2383,10.1289,10.1083,10.0482,10.0896,10.2502,10.1808,10.1808,10.2494,10.2283,10.2283,10.2494,10.2494,10.2494,10.2494,10.2494,10.2494,10.2494,10.2494,10.2494,10.2494,10.2494,10.2494,10.2494,10.2494,10.2494,10.2494,10.2494,10.2984,10.3804,12.1884,12.309,12.3711,12.3297,12.2593,12.1506,11.9803,12.02,12.0786,12.0701,12.1285,12.1588,12.0886,11.9908,12.0403,12.3012,12.3998,12.4814,12.5616,12.5702,12.5702,12.5702,12.5702,12.5513,12.5109,12.4705,12.4105,12.3292,12.29,12.2716,12.2716,12.219,12.1793,12.1511,12.0997,12.0593,12.0184,11.9816,11.959,11.959,11.959,11.9113,11.83,11.789,11.7492,11.71,11.6806,11.6403,11.5999,11.5999,11.5999,11.5999,11.5999,11.5999,11.5607,11.3298,11.2098,11.0981,10.8716,10.7506,10.6908,10.6908,10.6908,10.6908,10.6908,10.6595,10.6215,10.5885,10.5208,10.4489,10.3686,10.511,10.6402,10.6687,10.8093,10.8597,10.6984,10.6199,10.569,10.5587,10.559,10.6389,10.8594,10.709,10.559,10.4592,10.2819,10.1616,10.1388,10.0988,10.131,10.2502,10.2088,10.2096,10.2494,10.2494,10.2494,10.2494,10.2494,10.2494,10.2494,10.2494,10.2494,10.2494,10.2494,10.2494,10.2494,10.2494,10.2494,10.2494,10.2494,10.2494,10.2494,10.2494,10.2689,10.3204,12.2398,12.3597,12.4193,12.3412,12.2096,12.1086,12.0804,12.1003,12.1699,12.3018,12.4212,12.3809,12.1099,12.1715,12.2515,12.2814,12.2996,12.3917,12.5615,12.5702,12.5702,12.5702,12.5702,12.5702,12.5702,12.5702,12.4992,12.3695,12.3591,12.3512,12.3512,12.3181,12.2704,12.2098,12.1994,12.1505,12.0912,12.0912,12.0912,12.0912,12.0912,12.0404,11.9486,11.8899,11.8483,11.819,11.6984,11.6513,11.6403,11.6115,11.5999,11.6007,11.5713,11.5606,11.4996,11.2016,11.1082,11.0498,10.7695,10.6908,10.6908,10.6908,10.6908,10.6908,10.6908,10.6908,10.6697,10.6113,10.5487,10.4785,10.3889,10.441,10.5288,10.6303,10.6604,10.6686,10.651,10.6101,10.5903,10.5807,10.679,10.7906,10.911,10.7492,10.6003,10.4998,10.32,10.1991,10.1609,10.1605,10.1909,10.2494,10.2494,10.2494,10.2494,10.2494,10.2494,10.2494,10.2494,10.2494,10.2494,10.2494,10.2494,10.2494,10.2494,10.2494,10.2494,10.2494,10.2494,10.2494,10.2494,10.2494,10.2494,10.2494,10.2494,10.2595,12.3995,12.4411,12.4193,12.3412,12.3011,12.24,12.0987,12.1994,12.2998,12.3201,12.2219,12.1296,12.0804,11.9704,11.9501,12.1015,12.2393,12.3917,12.5615,12.5702,12.5702,12.5702,12.5702,12.5702,12.5702,12.5702,12.5592,12.5409,12.4699,12.4289,12.4295,12.29,12.2209,12.2105,12.1395,12.0991,12.0912,12.0912,12.0912,12.0912,12.0912,12.0404,11.9602,11.9492,11.9009,11.8495,11.8893,11.8715,11.7908,11.6513,11.5999,11.5814,11.4397,11.3991,11.3409,11.0409,10.9487,10.9112,10.7391,10.6908,10.6908,10.6908,10.6908,10.6908,10.6908,10.6908,10.6917,10.6815,10.6714,10.6206,10.4785,10.5686,10.6214,10.5114,10.6008,10.6406,10.5105,10.5889,10.659,10.6584,10.9016,11.0719,11.0911,10.7811,10.6004,10.6511,10.3402,10.181,10.2299,10.2409,10.2392,10.2494,10.2494,10.2494,10.2494,10.2494,10.2494,10.2494,10.2494,10.2494,10.2494,10.2494,10.2494,10.2494,10.2494,10.2494,10.2494,10.2494,10.2494,10.2494,10.2494,10.2494,10.2494,10.2494,10.2494,10.2595,12.4399,12.4888,12.4798,12.3398,12.3186,12.2998,12.2205,12.2714,12.3512,12.4513,12.3209,12.1802,12.0909,11.851,11.7988,12.0585,12.1418,12.3006,12.5485,12.5702,12.5702,12.5702,12.5702,12.5702,12.5702,12.5702,12.5702,12.5702,12.5286,12.4919,12.4515,12.3298,12.249,12.2105,12.1291,12.0912,12.0912,12.0912,12.0912,12.0912,12.0912,12.0697,12.0294,11.9786,11.9706,11.97,11.9107,11.8085,11.699,11.6213,11.5385,11.4612,11.3908,11.3104,11.2001,10.981,10.919,10.8908,10.7317,10.6908,10.6908,10.6908,10.6908,10.6908,10.6908,10.6908,10.6908,10.6908,10.6604,10.6088,10.5411,10.5194,10.5108,10.5194,10.5407,10.5612,10.5797,10.7106,10.831,10.9208,11.0385,11.121,11.121,10.9004,10.7296,10.68,10.4585,10.2999,10.2508,10.2494,10.2494,10.2494,10.2494,10.2494,10.2494,10.2494,10.2494,10.2494,10.2494,10.2494,10.2494,10.2494,10.2494,10.2494,10.2494,10.2494,10.2494,10.2494,10.2494,10.2494,10.2494,10.2494,10.2494,10.2494,10.2494,10.2512]},{"header":{"parameterUnit":"m.s-1","parameterCategory":1,"la1":30.6,"la2":28.766,"lo1":-90.7593,"lo2":-88.6598,"dy":0.0162,"dx":0.0183,"nx":116,"ny":114,"refTime":"2024-02-17T06:00:00:Z","depth":0,"parameterNumber":3,"parameterNumberName":"V-component_of_WINDS"},"data":[0.0,0.0,0.0,0.0,0.0,0.0,0.0,0.0,0.0,0.0,0.0,0.0,0.0,0.0,0.0,0.0,0.0,0.0,0.0,0.0,0.0,0.0,0.0,0.0,0.0,0.0,0.0,0.0,0.0,0.0,0.0,0.0,0.0,0.0,0.0,0.0,0.0,0.0,0.0,0.0,0.0,0.0,0.0,0.0,0.0,0.0,0.0,0.0,0.0,0.0,0.0,0.0,0.0,0.0,0.0,0.0,0.0,0.0,0.0,0.0,0.0,0.0,0.0,0.0,0.0,0.0,0.0,0.0,0.0,0.0,0.0,0.0,0.0,0.0,0.0,0.0,0.0,0.0,0.0,0.0,0.0,0.0,0.0,0.0,0.0,0.0,0.0,0.0,0.0,0.0,0.0,0.0,0.0,0.0,0.0,0.0,0.0,0.0,0.0,0.0,0.0,0.0,0.0,0.0,0.0,0.0,0.0,0.0,0.0,0.0,0.0,0.0,0.0,0.0,0.0,0.0,0.0,0.0,0.0,0.0,0.0,0.0,0.0,0.0,0.0,0.0,0.0,0.0,0.0,0.0,0.0,0.0,0.0,0.0,0.0,0.0,0.0,0.0,0.0,0.0,0.0,0.0,0.0,0.0,0.0,0.0,0.0,0.0,0.0,0.0,0.0,0.0,0.0,0.0,0.0,0.0,0.0,0.0,0.0,0.0,0.0,0.0,0.0,0.0,0.0,0.0,0.0,0.0,0.0,0.0,0.0,0.0,0.0,0.0,0.0,0.0,0.0,0.0,0.0,0.0,0.0,0.0,0.0,0.0,0.0,0.0,0.0,0.0,0.0,0.0,0.0,0.0,0.0,0.0,0.0,0.0,0.0,0.0,0.0,0.0,0.0,0.0,0.0,0.0,0.0,0.0,0.0,0.0,0.0,0.0,0.0,0.0,0.0,0.0,0.0,0.0,0.0,0.0,0.0,0.0,0.0,0.0,0.0,0.0,0.0,0.0,0.0,0.0,0.0,0.0,0.0,0.0,0.0,0.0,0.0,0.0,0.0,0.0,0.0,0.0,0.0,0.0,0.0,0.0,0.0,0.0,0.0,0.0,0.0,0.0,0.0,0.0,0.0,0.0,0.0,0.0,0.0,0.0,0.0,0.0,0.0,0.0,0.0,0.0,0.0,0.0,0.0,0.0,0.0,0.0,0.0,0.0,0.0,0.0,0.0,0.0,0.0,0.0,0.0,0.0,0.0,0.0,0.0,0.0,0.0,0.0,0.0,0.0,0.0,0.0,0.0,0.0,0.0,0.0,0.0,0.0,0.0,0.0,0.0,0.0,0.0,0.0,0.0,0.0,0.0,0.0,0.0,0.0,0.0,0.0,0.0,0.0,0.0,0.0,0.0,0.0,0.0,0.0,0.0,0.0,0.0,0.0,0.0,0.0,0.0,0.0,0.0,0.0,0.0,0.0,0.0,0.0,0.0,0.0,0.0,0.0,0.0,0.0,0.0,0.0,0.0,0.0,0.0,0.0,0.0,0.0,0.0,0.0,0.0,0.0,0.0,0.0,0.0,0.0,0.0,0.0,0.0,0.0,0.0,0.0,0.0,0.0,0.0,0.0,0.0,0.0,0.0,0.0,0.0,0.0,0.0,0.0,0.0,0.0,0.0,0.0,0.0,0.0,0.0,0.0,0.0,0.0,0.0,0.0,0.0,0.0,0.0,0.0,0.0,0.0,0.0,0.0,0.0,0.0,0.0,0.0,0.0,0.0,0.0,0.0,0.0,0.0,0.0,0.0,0.0,0.0,0.0,0.0,0.0,0.0,0.0,0.0,0.0,0.0,0.0,0.0,0.0,0.0,0.0,0.0,0.0,0.0,0.0,0.0,0.0,0.0,0.0,0.0,0.0,0.0,0.0,0.0,0.0,0.0,0.0,0.0,0.0,0.0,0.0,0.0,0.0,0.0,0.0,0.0,0.0,0.0,0.0,0.0,0.0,0.0,0.0,0.0,0.0,0.0,0.0,0.0,0.0,0.0,0.0,0.0,0.0,0.0,0.0,0.0,0.0,0.0,0.0,0.0,0.0,0.0,0.0,0.0,0.0,0.0,0.0,0.0,0.0,0.0,0.0,0.0,0.0,0.0,0.0,0.0,0.0,0.0,0.0,0.0,0.0,0.0,0.0,0.0,0.0,0.0,0.0,0.0,0.0,0.0,0.0,0.0,0.0,0.0,0.0,0.0,0.0,0.0,0.0,0.0,0.0,0.0,0.0,0.0,0.0,0.0,0.0,0.0,0.0,0.0,0.0,0.0,0.0,0.0,0.0,0.0,0.0,0.0,0.0,0.0,0.0,0.0,0.0,0.0,0.0,0.0,0.0,0.0,0.0,0.0,0.0,0.0,0.0,0.0,0.0,0.0,0.0,0.0,0.0,0.0,0.0,0.0,0.0,0.0,0.0,0.0,0.0,0.0,0.0,0.0,0.0,0.0,0.0,0.0,0.0,0.0,0.0,0.0,0.0,0.0,0.0,0.0,0.0,0.0,0.0,0.0,0.0,0.0,0.0,0.0,0.0,0.0,0.0,0.0,0.0,0.0,0.0,0.0,0.0,0.0,0.0,0.0,0.0,0.0,0.0,0.0,0.0,0.0,0.0,0.0,0.0,0.0,0.0,0.0,0.0,0.0,0.0,0.0,0.0,0.0,0.0,0.0,0.0,0.0,0.0,0.0,0.0,0.0,0.0,0.0,0.0,0.0,0.0,0.0,0.0,0.0,0.0,0.0,0.0,0.0,0.0,0.0,0.0,0.0,0.0,0.0,0.0,0.0,0.0,0.0,0.0,0.0,0.0,0.0,0.0,0.0,0.0,0.0,0.0,0.0,0.0,0.0,0.0,0.0,0.0,0.0,0.0,0.0,0.0,0.0,0.0,0.0,0.0,0.0,0.0,0.0,0.0,0.0,0.0,0.0,0.0,0.0,0.0,0.0,0.0,0.0,0.0,0.0,0.0,0.0,0.0,0.0,0.0,0.0,0.0,0.0,0.0,0.0,0.0,0.0,0.0,0.0,0.0,0.0,0.0,0.0,0.0,0.0,0.0,0.0,0.0,0.0,0.0,0.0,0.0,0.0,0.0,0.0,0.0,0.0,0.0,0.0,0.0,0.0,0.0,0.0,0.0,0.0,0.0,0.0,0.0,0.0,0.0,0.0,0.0,0.0,0.0,0.0,0.0,0.0,0.0,0.0,0.0,0.0,0.0,0.0,0.0,0.0,0.0,0.0,0.0,0.0,0.0,0.0,0.0,0.0,0.0,0.0,0.0,0.0,0.0,0.0,0.0,0.0,0.0,0.0,0.0,0.0,0.0,0.0,0.0,0.0,0.0,0.0,0.0,0.0,0.0,0.0,0.0,0.0,0.0,0.0,0.0,0.0,0.0,0.0,0.0,0.0,0.0,0.0,0.0,0.0,0.0,0.0,0.0,0.0,0.0,0.0,0.0,0.0,0.0,0.0,0.0,0.0,0.0,0.0,0.0,0.0,0.0,0.0,0.0,0.0,0.0,0.0,0.0,0.0,0.0,0.0,0.0,0.0,0.0,0.0,0.0,0.0,0.0,0.0,0.0,0.0,0.0,0.0,0.0,0.0,0.0,0.0,0.0,0.0,0.0,0.0,0.0,0.0,0.0,0.0,0.0,0.0,0.0,0.0,0.0,0.0,0.0,0.0,0.0,0.0,0.0,0.0,0.0,0.0,0.0,0.0,0.0,0.0,0.0,0.0,0.0,0.0,0.0,0.0,0.0,0.0,0.0,0.0,0.0,0.0,0.0,0.0,0.0,0.0,0.0,0.0,0.0,0.0,0.0,0.0,0.0,0.0,0.0,0.0,0.0,0.0,0.0,0.0,0.0,0.0,0.0,0.0,0.0,0.0,0.0,0.0,0.0,0.0,0.0,0.0,0.0,0.0,0.0,0.0,0.0,0.0,0.0,0.0,0.0,0.0,0.0,0.0,0.0,0.0,0.0,0.0,0.0,0.0,0.0,0.0,0.0,0.0,0.0,0.0,0.0,0.0,0.0,0.0,0.0,0.0,0.0,0.0,0.0,0.0,0.0,0.0,0.0,0.0,0.0,0.0,0.0,0.0,0.0,0.0,0.0,0.0,0.0,0.0,0.0,0.0,0.0,0.0,0.0,0.0,0.0,0.0,0.0,0.0,0.0,0.0,0.0,0.0,0.0,0.0,0.0,0.0,0.0,0.0,0.0,0.0,0.0,0.0,0.0,0.0,0.0,0.0,0.0,0.0,0.0,0.0,0.0,0.0,0.0,0.0,0.0,0.0,0.0,0.0,0.0,0.0,0.0,0.0,0.0,0.0,0.0,0.0,0.0,0.0,0.0,0.0,0.0,0.0,0.0,0.0,0.0,0.0,0.0,0.0,0.0,0.0,0.0,0.0,0.0,0.0,0.0,0.0,0.0,0.0,0.0,0.0,0.0,0.0,0.0,0.0,0.0,0.0,0.0,0.0,0.0,0.0,0.0,0.0,0.0,0.0,0.0,0.0,0.0,0.0,0.0,0.0,0.0,0.0,0.0,0.0,0.0,0.0,0.0,0.0,0.0,0.0,0.0,0.0,0.0,0.0,0.0,0.0,0.0,0.0,0.0,0.0,0.0,0.0,0.0,0.0,0.0,0.0,0.0,0.0,0.0,0.0,0.0,0.0,0.0,0.0,0.0,0.0,0.0,0.0,0.0,0.0,0.0,0.0,0.0,0.0,0.0,0.0,0.0,0.0,0.0,0.0,0.0,0.0,0.0,0.0,0.0,0.0,0.0,0.0,0.0,0.0,0.0,0.0,0.0,0.0,0.0,0.0,0.0,0.0,0.0,0.0,0.0,0.0,0.0,0.0,0.0,0.0,0.0,0.0,0.0,0.0,0.0,0.0,0.0,0.0,0.0,0.0,0.0,0.0,0.0,0.0,0.0,0.0,0.0,0.0,0.0,0.0,0.0,0.0,0.0,0.0,0.0,0.0,0.0,0.0,0.0,0.0,0.0,0.0,0.0,0.0,0.0,0.0,0.0,0.0,0.0,0.0,0.0,0.0,0.0,0.0,0.0,0.0,0.0,0.0,0.0,0.0,0.0,0.0,0.0,0.0,0.0,0.0,0.0,0.0,0.0,0.0,0.0,0.0,0.0,0.0,0.0,0.0,0.0,0.0,0.0,0.0,0.0,0.0,0.0,0.0,0.0,0.0,0.0,0.0,0.0,0.0,0.0,0.0,0.0,0.0,0.0,0.0,0.0,0.0,0.0,0.0,0.0,0.0,0.0,0.0,0.0,0.0,0.0,0.0,0.0,0.0,0.0,0.0,0.0,0.0,0.0,0.0,0.0,0.0,0.0,0.0,0.0,0.0,0.0,0.0,0.0,0.0,0.0,0.0,0.0,0.0,0.0,0.0,0.0,0.0,0.0,0.0,0.0,0.0,0.0,0.0,0.0,0.0,0.0,0.0,0.0,0.0,0.0,0.0,0.0,0.0,0.0,0.0,0.0,0.0,0.0,0.0,0.0,0.0,0.0,0.0,0.0,0.0,0.0,0.0,0.0,0.0,0.0,0.0,0.0,0.0,0.0,0.0,0.0,0.0,0.0,0.0,0.0,0.0,0.0,0.0,0.0,0.0,0.0,0.0,0.0,0.0,0.0,0.0,0.0,0.0,0.0,0.0,0.0,0.0,0.0,0.0,0.0,0.0,0.0,0.0,0.0,0.0,0.0,0.0,0.0,0.0,0.0,0.0,0.0,0.0,0.0,0.0,0.0,0.0,0.0,0.0,0.0,0.0,0.0,0.0,0.0,0.0,0.0,0.0,0.0,0.0,0.0,0.0,0.0,0.0,0.0,0.0,0.0,0.0,0.0,0.0,0.0,0.0,0.0,0.0,0.0,0.0,0.0,0.0,0.0,0.0,0.0,0.0,0.0,0.0,0.0,0.0,0.0,0.0,0.0,0.0,0.0,0.0,0.0,0.0,0.0,0.0,0.0,0.0,0.0,0.0,0.0,0.0,0.0,0.0,0.0,0.0,0.0,0.0,0.0,0.0,0.0,0.0,0.0,0.0,0.0,0.0,0.0,0.0,1.4204,0.0,0.0,0.0,0.0,0.0,0.0,0.0,0.0,0.0,0.0,0.0,0.0,0.0,0.0,0.0,0.0,0.0,0.0,0.0,0.0,0.0,0.0,0.0,0.0,0.0,0.0,0.0,1.1565,1.1692,1.1925,1.188,1.1873,1.1938,1.1938,1.1938,1.1938,1.2113,1.2287,1.2492,1.2433,1.2433,1.2498,0.0,0.0,0.0,0.0,0.0,0.0,0.0,0.0,0.0,0.0,0.0,0.0,0.0,0.0,0.0,0.0,0.0,0.0,0.0,0.0,0.0,0.0,0.0,0.0,0.0,0.0,0.0,0.0,0.0,0.0,0.0,0.0,0.0,0.0,0.0,0.0,0.0,0.0,0.0,0.0,0.0,0.0,0.0,0.0,0.0,0.0,0.0,0.0,0.0,0.0,0.0,0.0,0.0,0.0,0.0,0.0,0.0,0.0,0.0,0.0,0.0,0.0,0.0,0.0,0.0,0.0,0.0,0.0,0.0,0.0,0.0,0.0,0.0,0.0,1.5633,0.0,0.0,0.0,0.0,0.0,0.0,0.0,0.0,0.0,0.0,0.0,0.0,0.0,0.0,0.0,0.0,0.0,0.0,0.0,0.0,0.0,0.0,0.0,0.0,1.142,1.1699,1.1836,1.199,1.2156,1.217,1.217,1.217,1.219,1.2195,1.2195,1.2371,1.2542,1.2702,1.2542,1.2623,1.2956,0.0,0.0,0.0,0.0,0.0,0.0,0.0,0.0,0.0,0.0,0.0,0.0,0.0,0.0,0.0,0.0,0.0,0.0,0.0,0.0,0.0,0.0,0.0,0.0,0.0,0.0,0.0,0.0,0.0,0.0,0.0,0.0,0.0,0.0,0.0,0.0,0.0,0.0,0.0,0.0,0.0,0.0,0.0,0.0,0.0,0.0,0.0,0.0,0.0,0.0,0.0,0.0,0.0,0.0,0.0,0.0,0.0,0.0,0.0,0.0,0.0,0.0,0.0,0.0,0.0,0.0,0.0,2.6007,2.7482,2.9568,2.7775,2.6966,2.6792,2.3808,2.1389,1.9545,1.9442,0.0,0.0,0.0,0.0,0.0,0.0,0.0,0.0,0.0,0.0,0.0,0.0,0.0,0.0,0.0,0.0,0.0,0.0,0.0,0.0,0.0,1.157,1.1845,1.2176,1.2332,1.242,1.245,1.245,1.245,1.245,1.2559,1.2624,1.2624,1.2925,1.2959,1.2702,1.2959,1.3373,1.3916,1.4342,1.4496,1.4408,0.0,0.0,0.0,0.0,0.0,0.0,0.0,0.0,0.0,0.0,0.0,0.0,0.0,0.0,0.0,0.0,0.0,0.0,0.0,0.0,0.0,0.0,0.0,0.0,0.0,0.0,0.0,0.0,0.0,0.0,0.0,0.0,0.0,0.0,0.0,0.0,0.0,0.0,0.0,0.0,0.0,0.0,0.0,0.0,1.3867,1.3982,0.0,0.0,0.0,0.0,0.0,0.0,0.0,0.0,0.0,0.0,0.0,0.0,0.0,2.1715,2.4756,2.5988,2.7715,2.9945,3.128,3.2006,3.214,3.2302,3.2377,3.2324,3.1632,0.0,2.0859,1.9814,0.0,0.0,0.0,0.0,0.0,0.0,0.0,0.0,0.0,0.0,0.0,0.0,0.0,0.0,0.0,0.0,0.0,0.0,0.0,0.0,0.0,1.1895,1.2244,1.2659,1.3197,1.3346,1.2918,1.3203,1.321,1.2799,1.2847,1.2871,1.2871,1.301,1.3163,1.3325,1.3987,1.4457,1.4729,1.5049,1.5177,1.5069,1.4543,1.4317,1.429,1.3702,0.0,0.0,0.0,0.0,0.0,0.0,0.0,0.0,0.0,0.0,0.0,0.0,0.0,0.0,0.0,0.0,0.0,0.0,0.0,0.0,0.0,0.0,0.0,0.0,0.0,0.0,0.0,0.0,0.0,0.0,0.0,0.0,0.0,0.0,0.0,0.0,0.0,0.0,0.0,1.4336,1.6775,1.5582,1.6765,1.7089,0.0,0.0,0.0,0.0,0.0,0.0,0.0,0.0,0.0,2.1966,2.4065,2.6051,2.7913,3.0377,3.2233,3.3508,3.4496,3.491,3.4802,3.503,3.5057,3.491,3.4589,3.2122,2.8174,2.5984,2.4552,2.352,0.0,0.0,0.0,0.0,1.8603,1.8897,0.0,0.0,0.0,0.0,0.0,0.0,0.0,0.0,0.0,0.0,0.0,0.0,1.1951,1.2356,1.281,1.339,1.4027,1.417,1.3624,1.3828,1.374,1.3227,1.3142,1.3122,1.3152,1.3237,1.3594,1.4211,1.4991,1.5476,1.5673,1.6784,1.7243,1.7125,1.7001,1.6161,1.4808,1.4096,1.3685,0.0,0.0,0.0,0.0,0.0,0.0,0.0,0.0,0.0,0.0,0.0,0.0,0.0,0.0,0.0,0.0,0.0,0.0,0.0,0.0,0.0,0.0,0.0,0.0,0.0,0.0,0.0,0.0,0.0,0.0,0.0,0.0,0.0,0.0,0.0,0.0,0.0,0.0,1.5985,1.9013,1.7175,1.9476,2.032,0.0,0.0,0.0,0.0,0.0,0.0,2.2317,2.3259,2.445,2.5982,2.8773,3.0614,3.1365,3.4085,3.5738,3.6299,3.682,3.71,3.7167,3.7247,3.7102,3.6755,3.6433,3.5631,3.4322,3.1221,2.848,2.6113,2.4662,2.314,2.1728,2.1832,2.2093,2.2738,0.0,0.0,0.0,0.0,0.0,0.0,0.0,0.0,0.0,0.0,0.0,1.1345,1.2526,1.3068,1.3685,1.4543,1.4647,1.4654,1.4631,1.3995,1.3674,1.3758,1.3515,1.3434,1.3572,1.3882,1.4459,1.5318,1.5692,1.6222,1.6975,2.0311,2.1855,2.1851,2.1713,1.949,1.5739,1.4383,1.3972,1.419,0.0,0.0,0.0,0.0,0.0,0.0,0.0,0.0,0.0,0.0,0.0,0.0,0.0,0.0,0.0,0.0,0.0,0.0,0.0,0.0,0.0,0.0,0.0,0.0,0.0,0.0,0.0,0.0,0.0,0.0,0.0,0.0,0.0,0.0,0.0,0.0,0.0,0.0,0.0,1.8651,2.2513,0.0,0.0,0.0,0.0,2.0678,2.1692,2.3607,2.6623,2.8028,3.0279,3.3644,3.4714,3.5804,3.6989,3.7181,3.7571,3.8174,3.8449,3.8714,3.8993,3.9291,3.9132,3.8542,3.8279,3.749,3.6099,3.2573,3.0873,3.0324,2.8601,2.7169,2.6226,2.7351,2.7078,2.6342,0.0,0.0,0.0,0.0,0.0,0.0,0.0,0.0,1.0789,1.1065,1.1511,1.2211,1.3298,1.4168,1.4966,1.5665,1.5883,1.5841,1.5491,1.4867,1.4428,1.4256,1.3789,1.3687,1.4044,1.4342,1.5086,1.6298,1.6768,1.8439,2.1215,2.2455,2.4142,2.6108,2.575,2.4649,2.2678,1.7075,1.5562,1.6715,1.4171,1.3214,0.0,0.0,0.0,0.0,0.0,0.0,0.0,0.0,0.0,0.0,0.0,0.0,0.0,0.0,0.0,0.0,0.0,0.0,0.0,0.0,0.0,0.0,0.0,0.0,0.0,0.0,0.0,0.0,0.0,0.0,0.0,0.0,0.0,0.0,0.0,0.0,0.0,2.3848,2.6285,0.0,2.4801,2.4133,2.4174,2.4992,2.7148,2.9492,3.193,3.3032,3.4504,3.6499,3.722,3.8075,3.9062,3.9293,3.9602,3.996,4.0067,3.997,3.9673,3.9798,3.9651,3.9251,3.8942,3.8357,3.7503,3.5645,3.3923,3.2321,3.073,2.9999,2.9836,3.004,3.0238,3.0439,0.0,0.0,0.0,0.0,0.0,0.0,0.0,0.0,1.0843,1.1284,1.1981,1.2919,1.4198,1.5238,1.6131,1.6836,1.6837,1.6626,1.6197,1.5292,1.4683,1.4505,1.4067,1.3999,1.4367,1.5024,1.6465,1.8689,1.9409,2.1703,2.5452,2.6572,2.8196,3.0111,2.9744,2.9828,2.972,2.2365,1.906,1.8536,1.5942,1.5082,1.5139,0.0,0.0,0.0,0.0,0.0,0.0,0.0,0.0,0.0,0.0,0.0,0.0,0.0,0.0,0.0,0.0,0.0,0.0,0.0,0.0,0.0,0.0,0.0,0.0,0.0,0.0,0.0,0.0,0.0,0.0,0.0,0.0,0.0,0.0,2.3205,2.7391,2.7219,2.9699,3.062,2.855,2.8645,2.9185,3.0049,3.221,3.4173,3.5738,3.6648,3.7541,3.8515,3.9129,3.9758,4.0422,4.0655,4.0817,4.0893,4.0893,4.064,4.0172,4.0172,3.9997,3.9717,3.949,3.9089,3.8504,3.7702,3.6393,3.4737,3.3162,3.2679,3.2838,3.2494,3.2786,3.329,0.0,0.0,0.0,0.0,0.0,0.0,0.0,1.0701,1.0924,1.1527,1.2269,1.3426,1.523,1.6221,1.7121,1.8057,1.7446,1.6924,1.6736,1.5203,1.436,1.4491,1.4373,1.4376,1.4566,1.6077,1.8704,2.2464,2.3606,2.5967,2.9453,3.2698,3.4107,3.3887,3.3739,3.4759,3.6158,3.0099,2.4562,1.9814,1.9087,1.8684,1.8239,0.0,0.0,0.0,0.0,0.0,0.0,0.0,0.0,0.0,0.0,0.0,0.0,0.0,0.0,0.0,0.0,0.0,0.0,0.0,0.0,0.0,0.0,0.0,0.0,0.0,0.0,0.0,0.0,0.0,0.0,0.0,0.0,0.0,1.8497,2.4864,2.9359,2.8596,3.275,3.5017,3.3306,3.4201,3.5097,3.5631,3.6541,3.7289,3.7835,3.8674,3.9423,4.0022,4.06,4.104,4.1305,4.1319,4.1187,4.0933,4.0924,4.0762,4.0512,4.0512,4.0321,4.0025,4.0025,3.9677,3.9089,3.8558,3.8145,3.7661,3.5925,3.5244,3.5204,3.4871,3.4777,3.4735,0.0,0.0,0.0,0.0,0.0,0.0,0.0,1.0641,1.095,1.1653,1.2976,1.4417,1.5887,1.7223,1.8293,1.8977,1.788,1.7114,1.7073,1.533,1.4319,1.4342,1.4319,1.4864,1.6073,1.9107,2.168,2.3716,2.6623,2.9838,3.3286,3.4202,3.5829,3.7964,3.768,3.7651,3.7658,3.5506,3.218,2.8017,2.4254,2.233,2.1573,0.0,0.0,0.0,0.0,0.0,0.0,0.0,0.0,0.0,0.0,0.0,0.0,0.0,0.0,0.0,0.0,0.0,0.0,0.0,0.0,0.0,0.0,0.0,0.0,0.0,0.0,0.0,0.0,0.0,0.0,0.0,2.0348,2.3697,2.5446,2.9893,3.351,3.4983,3.6581,3.7275,3.654,3.6594,3.6835,3.7167,3.7835,3.857,3.9343,3.9853,4.0361,4.0929,4.1092,4.1345,4.1655,4.1655,4.1644,4.1552,4.131,4.1056,4.0787,4.0588,4.0456,4.0361,4.0361,4.0132,3.9728,3.9386,3.893,3.833,3.6967,3.6313,3.6139,3.6045,3.5618,3.503,0.0,0.0,0.0,0.0,0.0,0.0,0.0,1.0568,1.0953,1.1888,1.3566,1.5192,1.653,1.7995,1.8997,1.929,1.8023,1.7073,1.676,1.5304,1.4444,1.4394,0.0,1.5752,1.6884,2.087,2.4077,2.6378,3.0155,3.3701,3.6975,3.7119,3.8116,3.9758,3.957,3.9169,3.8611,3.825,3.6696,3.4196,3.117,2.8411,2.5885,2.3872,2.3667,2.4209,2.239,2.2112,2.2444,2.1395,0.0,0.0,0.0,0.0,0.0,0.0,0.0,0.0,0.0,0.0,0.0,0.0,0.0,0.0,0.0,0.0,0.0,0.0,0.0,0.0,0.0,0.0,0.0,0.0,2.3677,2.8004,3.1908,3.4492,3.6527,3.8008,3.8676,3.8999,3.8945,3.8651,3.8717,3.9221,3.949,3.989,4.0518,4.0731,4.1096,4.1663,4.1679,4.1842,4.2167,4.2183,4.206,4.1806,4.1452,4.1172,4.0893,4.0615,4.0512,4.0512,4.0512,4.0391,4.0187,3.9893,3.957,0.0,0.0,0.0,0.0,0.0,3.6019,3.5324,0.0,0.0,0.0,0.0,0.0,0.0,0.0,1.0488,1.0936,1.2165,1.397,1.5647,1.6964,1.8423,1.9261,1.9169,1.7948,1.6849,1.6068,1.5216,1.4744,1.4749,1.595,1.7047,1.7963,2.2399,2.6487,3.0109,3.4052,3.7403,4.0144,4.0456,4.0416,4.0089,4.0089,3.9783,3.9261,3.9221,3.8916,3.8428,3.8091,3.5156,3.0653,2.7518,2.7783,2.9438,2.6297,2.4748,2.4064,2.3361,0.0,0.0,0.0,0.0,0.0,0.0,0.0,0.0,0.0,0.0,0.0,0.0,0.0,0.0,0.0,0.0,0.0,0.0,0.0,0.0,0.0,0.0,0.0,0.0,2.7648,3.2132,3.7275,3.8357,3.872,3.897,3.9677,4.0264,4.0563,4.0321,4.0478,4.129,4.1147,4.1147,4.1437,0.0,0.0,0.0,0.0,4.2445,4.2747,4.2707,4.2437,4.1897,4.1492,4.1198,4.0989,4.0659,4.0527,4.0538,4.0512,4.0512,4.0487,4.0187,4.0025,3.985,3.8758,3.7998,3.7436,3.682,3.6246,3.5698,0.0,0.0,0.0,0.0,0.0,0.0,0.0,1.0435,1.0968,1.2291,1.3823,1.5225,1.6348,1.7792,1.8727,1.8874,1.7752,1.6611,1.5608,1.5153,1.5343,1.6235,1.6993,1.9101,2.2771,2.6945,3.0853,3.448,3.8274,4.0451,4.1052,4.1116,4.1,4.0735,4.0735,4.0548,4.0199,3.9945,3.9637,3.932,3.8982,3.7138,3.4503,3.3601,3.2734,3.1874,3.092,3.093,3.1186,2.9872,2.992,3.0185,2.8402,0.0,0.0,0.0,0.0,0.0,0.0,0.0,0.0,0.0,0.0,0.0,0.0,0.0,0.0,0.0,0.0,0.0,0.0,0.0,0.0,2.78,3.1267,3.4565,3.8665,4.0092,4.0746,4.0783,4.0945,4.1076,4.1147,4.1092,4.1223,4.167,4.1659,4.1857,4.2397,4.2437,4.2584,4.2913,4.2929,4.2969,4.302,4.2798,4.264,4.2517,0.0,0.0,4.1603,4.0842,4.0615,4.0817,4.0588,4.0512,4.0496,4.0431,4.0122,3.9614,3.889,3.8411,3.8052,3.745,3.6981,3.6579,0.0,0.0,0.0,0.0,0.0,0.0,0.0,1.029,1.0821,1.1997,1.3461,1.4735,1.5649,1.6735,1.7331,1.7216,1.6362,1.5657,1.5233,1.5695,1.6455,1.7467,1.9908,2.2456,2.5037,3.0593,3.4436,3.6445,4.0007,4.1679,4.1548,4.1695,4.1517,4.1107,4.1269,4.1187,4.0869,4.0588,4.0371,4.0214,3.992,3.8997,3.7728,3.7021,3.6113,3.515,3.487,3.463,3.4349,3.3334,3.2917,3.2503,3.0862,2.9024,2.7243,0.0,0.0,0.0,0.0,0.0,0.0,0.0,0.0,0.0,0.0,0.0,0.0,0.0,0.0,1.787,2.0556,0.0,2.6439,3.1273,3.4559,3.7485,4.0303,4.131,4.169,4.1563,4.1401,4.1425,4.1719,4.1644,4.175,4.2223,4.225,4.2437,4.2878,4.302,4.3233,4.3527,4.3674,4.3698,4.3551,4.3263,4.2969,4.2691,4.1908,4.1644,4.1766,4.1031,4.0762,4.0893,4.0618,4.0512,4.0512,4.0512,4.0214,3.9772,3.9478,3.8997,3.8451,3.801,3.7635,3.7274,0.0,0.0,0.0,0.0,0.0,0.0,0.0,1.0202,1.0651,1.1626,1.2952,1.4042,1.4701,1.5437,1.5704,1.5288,1.4997,1.4947,1.5226,1.6503,1.7684,1.8645,2.2913,2.5893,2.7225,3.3647,3.7465,3.8418,4.1193,4.2445,4.2234,4.2461,4.2253,4.1746,4.1964,4.1868,4.1548,4.1214,4.108,4.1056,4.0762,4.0493,4.0144,3.9159,3.8492,3.8022,3.7742,3.6727,3.5471,3.5163,3.4066,3.2689,3.1769,3.1179,3.052,2.8858,2.6685,0.0,0.0,0.0,0.0,0.0,0.0,0.0,0.0,1.9631,2.0076,2.1241,2.1938,2.3114,2.5655,2.8715,3.175,3.4548,3.7654,4.0251,4.1833,4.2341,4.2472,4.2258,4.1897,4.1842,4.2325,4.2178,4.2274,4.2806,4.2918,4.3076,4.3354,4.3618,4.3901,4.4172,4.4379,4.4369,4.4075,4.3698,4.3257,4.2771,4.2116,4.1833,4.1857,4.1254,4.0989,4.096,4.063,4.0512,4.0512,4.0512,4.0294,3.9997,4.0077,3.964,3.8916,3.8584,3.8223,3.7809,0.0,0.0,0.0,0.0,0.0,0.0,0.0,0.0,1.0617,1.1507,1.2241,1.2823,1.3203,1.39,1.4245,1.4022,1.4812,1.5562,1.6123,1.7412,1.8727,2.0013,2.4262,2.8203,3.1696,3.6112,3.9827,4.2795,4.3468,4.3781,4.3754,4.3781,4.3607,4.3257,4.3044,4.2806,4.2517,4.194,4.1699,4.167,4.1345,4.1183,4.1116,4.0746,3.9915,3.8913,3.8662,3.7128,3.5311,3.5792,3.4963,3.3774,3.3881,3.3186,3.2152,3.1104,2.7826,2.3962,2.1268,1.8115,1.6237,1.9016,1.9353,1.9534,0.0,2.224,2.2674,2.3704,2.4483,2.6046,2.9515,3.1777,3.4412,3.8335,4.0592,4.2111,4.2862,4.3444,4.3781,4.3771,4.3263,4.2929,4.298,4.2963,4.307,4.3388,4.3691,4.3968,4.4246,4.4573,4.4746,4.4803,4.4827,4.469,4.4362,4.3788,4.3348,4.3052,4.2207,4.1908,4.2135,4.1532,4.1263,4.1223,4.0722,4.0512,4.0512,4.0512,4.0294,4.0022,4.0334,4.0199,3.9783,3.9221,3.8691,3.8159,0.0,0.0,0.0,0.0,0.0,0.0,0.0,0.0,0.0,1.111,1.1656,1.2058,1.2277,1.2508,1.2583,1.2417,1.378,1.5084,1.6122,1.7907,2.0531,2.4099,2.8164,3.2253,3.6312,4.006,4.2741,4.4312,4.4466,4.4419,4.4246,4.4419,4.4262,4.3788,4.3845,4.3714,4.342,4.298,4.279,4.275,4.2298,4.2111,4.2031,4.1203,4.0144,3.9034,3.8624,3.7289,0.0,0.0,3.4923,3.4149,3.4256,3.352,3.242,3.1478,2.9048,2.6124,2.3734,2.1549,2.053,2.3056,2.3465,2.4001,2.6906,2.7787,2.8389,2.9812,3.077,3.2168,3.4892,3.642,3.8188,4.0946,4.2151,4.298,4.3748,4.3765,4.3658,4.3487,4.3116,4.298,4.3297,4.3324,4.3461,4.3765,4.4075,4.4369,4.4673,4.4967,4.5131,4.5131,4.527,4.5154,4.469,4.4099,4.3634,4.3308,4.2456,4.2191,4.2477,4.1873,4.1401,4.1056,4.067,4.0512,4.0512,4.0512,4.0416,4.0294,4.0456,4.0294,3.9955,3.9545,3.9251,3.8919,0.0,0.0,0.0,0.0,0.0,0.0,0.0,0.0,0.0,0.0,1.1119,1.1392,1.1484,1.1845,1.1866,1.1389,1.2915,1.4532,1.6,1.9034,2.2704,2.702,3.2076,3.6291,3.9515,4.3154,4.5131,4.5375,4.5375,4.5237,4.5,4.5261,4.5131,4.4713,4.4843,4.4753,4.4443,4.4059,4.3828,4.3708,4.3233,4.2918,4.2544,4.1163,3.9717,3.8314,3.7849,3.642,0.0,0.0,3.3668,3.3041,3.3455,3.3024,3.206,3.0564,2.8179,2.5838,2.4968,2.4133,2.4175,2.693,2.7594,2.8382,3.1482,3.2504,3.3226,3.483,3.5792,3.6873,3.8636,3.9717,4.0878,4.2437,4.3132,4.3754,4.4526,4.4125,4.3567,4.3052,4.2579,4.2445,4.275,4.315,4.3567,4.3968,4.4336,4.4673,4.4984,4.5261,4.5407,4.5407,4.5604,4.5434,4.491,4.4369,4.3872,4.338,4.267,4.2421,4.2544,4.2036,4.1512,4.1,4.0735,4.0563,4.0512,4.0512,4.0512,4.0512,4.0512,4.0349,4.0092,3.9813,3.9559,3.9224,0.0,0.0,0.0,0.0,0.0,0.0,0.0,0.0,0.0,0.0,0.0,0.0,0.0,1.2246,1.2703,1.1334,1.2558,1.4177,1.598,2.12,2.5225,2.738,3.5195,3.9833,4.0536,4.4484,4.6529,4.6552,4.6552,4.6529,4.6529,4.6529,4.6529,4.652,4.6266,4.5972,4.5596,4.5074,4.468,4.4346,4.4075,4.3453,4.2488,4.0706,3.8582,3.654,3.6273,0.0,0.0,0.0,3.0845,2.9896,3.1326,3.1766,3.1168,2.8271,2.4151,2.1012,2.3237,2.3807,2.4899,2.9499,3.1094,3.2071,3.4214,3.5097,3.5832,3.7048,3.7785,3.8506,3.9412,4.0493,4.1588,4.2544,4.3618,4.4573,4.518,4.4753,4.3968,4.2838,4.1897,4.1254,4.1,4.2274,4.337,4.3968,4.4556,4.5,4.5277,4.5537,4.5694,4.5694,4.5694,4.5434,4.491,4.4566,4.3968,4.3116,4.2822,4.2512,4.2202,4.1924,4.1603,4.1279,4.1,4.075,4.0512,4.0512,4.0512,4.0512,4.0512,4.0496,4.0441,4.0117,3.9463,3.8676,0.0,0.0,0.0,0.0,0.0,0.0,0.0,0.0,0.0,0.0,0.0,0.0,0.0,0.0,0.0,0.0,1.285,1.4145,1.7289,2.129,2.6012,3.1571,3.649,4.0457,4.3381,4.5356,4.6422,4.6609,4.6609,4.6609,4.6609,4.6609,4.6609,4.6609,4.652,4.64,4.6276,4.5909,4.5571,4.5187,4.4352,4.3698,4.298,4.0827,3.8181,3.5391,0.0,0.0,0.0,0.0,2.8599,2.8195,2.9088,2.9225,2.8731,2.7163,2.6153,2.5709,2.6505,2.7866,2.9661,3.2226,3.3746,3.511,3.6967,3.7527,3.7821,3.8408,3.8411,3.8399,3.868,3.9533,4.06,4.1889,4.3263,4.4403,4.518,4.478,4.3682,4.175,4.1385,4.0878,3.9808,4.1036,4.2496,4.3888,4.4352,4.486,4.5524,4.5654,4.5694,4.5694,4.5694,4.5434,4.491,4.4566,4.4059,4.3364,4.2918,4.2635,4.2512,4.202,4.1615,4.129,4.1016,4.075,4.0512,4.0512,4.0512,4.0512,4.0512,4.0361,4.0144,4.0037,3.9691,3.9239,0.0,0.0,0.0,0.0,0.0,0.0,0.0,0.0,0.0,0.0,0.0,0.0,0.0,0.0,0.0,0.0,0.0,1.3763,1.732,2.126,2.6213,3.237,3.5868,3.9128,4.2293,4.2699,4.3324,4.4246,4.4459,4.487,4.5497,4.5711,4.58,4.5818,4.5938,4.6039,4.6102,4.5629,4.5171,4.4646,4.3167,4.1948,4.0731,3.8261,3.5458,0.0,0.0,0.0,0.0,0.0,2.648,2.6423,2.6924,2.6579,2.5939,2.5688,2.6403,2.7465,2.8406,3.0602,3.3065,3.4843,3.6179,3.7382,3.8731,3.9022,3.8982,3.8836,3.8357,3.7891,3.7571,3.7863,3.8758,4.0548,4.1735,4.302,4.4753,4.4115,4.2913,4.1401,4.0909,4.0316,3.9368,4.0224,4.1623,4.3527,4.4035,4.4646,4.5514,4.5661,4.5694,4.5694,4.5694,4.5497,4.5041,4.482,4.4362,4.3674,4.3116,4.2782,4.2691,4.229,4.1897,4.1452,4.1172,4.0893,4.063,4.0538,4.0512,4.0512,4.0512,4.0361,4.0187,4.0187,3.9985,3.9651,0.0,0.0,0.0,0.0,0.0,0.0,0.0,0.0,0.0,0.0,0.0,0.0,0.0,0.0,0.0,0.0,0.0,0.0,1.6287,2.1179,2.5813,2.9959,3.3601,3.6206,3.7635,3.7181,3.7888,3.989,4.0453,4.1588,4.3217,4.3799,4.4082,4.4082,4.4409,4.469,4.486,4.4018,4.3314,4.2568,4.0544,3.8368,3.6059,3.3455,0.0,0.0,0.0,0.0,2.1725,2.3752,2.4525,2.4702,2.502,2.4185,2.3288,2.4182,2.5145,2.6492,2.9067,3.2085,3.5057,3.7342,3.8343,3.8916,3.9533,3.9614,3.9291,3.8413,3.7678,3.6928,3.6019,3.5698,3.6312,3.8605,3.9423,4.0853,4.3992,4.3004,4.1924,4.1862,4.0615,3.9761,3.9721,3.997,4.096,4.298,4.3658,4.4369,4.5277,4.5564,4.5694,4.5694,4.5694,4.5564,4.5301,4.5277,4.4837,4.4008,4.338,4.2969,4.2715,4.2691,4.2354,4.1777,4.1452,4.1172,4.0869,4.063,4.0512,4.0512,4.0512,4.0512,4.0512,4.0512,4.0294,3.9945,0.0,0.0,0.0,0.0,0.0,0.0,0.0,0.0,0.0,0.0,0.0,0.0,0.0,0.0,0.0,0.0,0.0,0.0,1.7519,2.0496,2.4241,2.9102,3.2726,3.5017,3.5845,3.6794,3.7635,3.8368,3.853,3.8823,3.9251,3.9666,3.9721,3.949,3.9828,3.9868,3.9677,3.9251,3.8624,3.7771,0.0,3.5351,3.4016,0.0,0.0,0.0,0.0,2.1733,1.9191,2.1451,2.3583,2.5295,2.5375,2.5599,2.6075,2.7386,2.9042,3.0872,3.2833,3.5284,3.7624,3.9077,3.9555,3.9838,4.0441,3.9717,3.8611,3.7487,3.5738,3.4016,3.2693,3.3854,3.5538,3.7193,3.996,4.2584,4.4493,4.4386,4.3691,4.2608,4.2314,4.1953,4.1298,4.1715,4.2488,4.3674,4.3682,4.4205,4.5524,4.5654,4.5694,4.5694,4.5694,4.5564,4.5301,4.486,4.4509,4.4296,4.3471,4.306,4.298,4.2536,4.2135,4.1806,4.171,4.1376,4.0893,4.0842,4.067,4.0512,4.0512,4.0512,4.0512,4.0512,4.0456,4.0309,0.0,0.0,0.0,0.0,0.0,0.0,0.0,0.0,0.0,0.0,0.0,0.0,0.0,0.0,0.0,0.0,0.0,0.0,0.0,1.9048,2.2094,2.7068,2.8943,3.0329,3.1328,3.1891,3.2706,3.3762,3.4028,3.4549,3.5311,3.5631,3.5752,3.5712,3.6006,3.6126,3.6059,3.5645,3.503,0.0,0.0,0.0,0.0,0.0,0.0,2.3532,2.1145,1.9601,1.8979,2.0895,2.3488,2.6069,2.7111,2.7952,2.8927,3.0785,3.2414,3.407,3.6099,3.7929,3.9482,4.0346,4.0478,4.0239,3.9666,3.8809,3.7448,3.5097,3.3455,3.192,3.0205,3.1715,3.3855,3.5818,3.8852,4.1817,4.4329,4.4346,4.3928,4.3501,4.3354,4.307,4.2579,4.298,4.3624,4.4499,4.4149,4.4362,4.5474,4.5644,4.5694,4.5694,4.5694,4.5644,4.5474,4.5017,4.4753,4.4606,4.3962,4.3527,4.3257,4.2806,4.2461,4.2167,0.0,4.1385,4.1052,4.0827,4.063,4.0512,4.0512,4.0512,4.0512,4.0512,4.0512,4.0471,0.0,0.0,0.0,0.0,0.0,0.0,0.0,0.0,0.0,0.0,0.0,0.0,0.0,0.0,0.0,0.0,0.0,0.0,0.0,0.0,1.9897,2.4719,2.4489,2.4877,2.6196,2.5785,2.644,2.8179,2.8711,2.9764,3.1301,3.1619,3.19,3.2142,3.2401,3.268,3.2865,3.2356,3.1782,3.1089,0.0,0.0,0.0,0.0,0.0,2.0648,1.642,1.6702,1.9389,2.1358,2.4223,2.7372,2.9619,3.077,3.1757,3.3989,3.5298,3.6499,3.8689,3.9985,4.0842,4.129,4.1132,4.0321,3.833,3.7382,3.5885,3.2222,3.1061,3.0102,2.8245,2.9644,3.1999,3.475,3.7275,4.0184,4.3952,4.3861,4.3698,4.4549,4.4149,4.3815,4.3895,4.4125,4.4623,4.5407,4.495,4.4877,4.5384,4.5604,4.5694,4.5694,4.5694,4.5694,4.5694,4.5474,4.522,4.495,4.4583,4.4082,4.3495,4.319,4.2889,4.2584,4.175,4.1345,4.1263,4.0762,4.0523,4.0512,4.0512,4.0512,4.0512,4.0512,4.0512,4.0512,0.0,0.0,0.0,0.0,0.0,0.0,0.0,0.0,0.0,0.0,1.6286,0.0,0.0,0.0,0.0,0.0,0.0,0.0,0.0,0.0,0.0,2.3825,2.4346,2.4778,2.531,2.5707,2.5951,2.6042,2.6136,2.649,2.7058,2.7342,2.7492,2.7559,2.7832,2.7859,2.7693,2.7586,2.7198,2.6617,2.631,0.0,0.0,0.0,0.0,0.0,1.4334,1.4144,1.67,2.1916,2.6517,3.0325,3.1943,3.3174,3.4337,3.5965,3.726,3.8475,3.9868,4.1056,4.1924,4.2015,4.1294,4.0162,3.8573,3.63,3.3694,3.0808,2.9016,2.7646,2.6573,2.865,3.1567,3.4683,3.7768,4.0945,4.4329,4.4877,4.5171,4.5808,4.5554,4.5507,4.6005,4.5915,4.5972,4.6356,4.6079,4.5932,4.6039,4.5818,4.5694,4.5694,4.5694,4.5694,4.5694,4.5654,4.5497,4.522,4.4673,4.4082,4.3478,4.298,4.2579,4.2274,4.1882,0.0,4.1279,4.096,4.0695,4.0512,4.0512,4.0512,4.0512,4.0512,4.0512,4.0512,0.0,0.0,0.0,0.0,0.0,0.0,0.0,0.0,0.0,0.0,1.5621,1.7148,0.0,0.0,0.0,0.0,0.0,0.0,0.0,0.0,0.0,0.0,0.0,0.0,2.4168,2.489,2.513,2.4827,0.0,2.5112,2.5264,2.5251,2.5331,2.5468,2.5606,2.5583,2.5459,2.5459,2.5411,2.5287,2.5098,2.4965,0.0,0.0,0.0,0.0,1.3132,1.4063,1.6944,2.1521,2.6503,3.1348,3.4504,3.6086,3.71,3.8714,3.9596,4.0346,4.1695,4.2579,4.306,4.275,4.1579,3.9786,3.7048,3.4389,3.157,2.8286,2.6947,2.6142,2.5407,2.7946,3.09,3.3213,3.5912,3.9062,4.2953,4.3487,4.4172,4.5989,4.6186,4.6281,4.6569,4.6644,4.6711,4.6841,4.6734,4.6537,4.6221,4.5875,4.5694,4.5694,4.5694,4.5694,4.5694,4.5694,4.5564,4.5301,4.5007,4.4549,4.3952,4.338,4.2953,4.2643,4.206,4.171,4.1523,4.108,4.0827,4.0695,4.0548,4.0512,4.0512,4.0512,4.0512,4.0512,0.0,0.0,0.0,0.0,0.0,0.0,0.0,1.273,1.321,1.2577,1.4994,1.6112,1.4371,1.3592,1.2556,0.0,0.0,0.0,0.0,0.0,0.0,0.0,0.0,0.0,2.3403,0.0,0.0,2.4115,2.4333,0.0,0.0,0.0,0.0,0.0,2.4599,2.4599,2.4599,2.4599,2.4791,0.0,0.0,2.4867,0.0,0.0,0.0,0.0,0.0,1.4077,1.6848,2.0965,2.5424,3.0166,3.539,3.7942,3.9251,4.0624,4.129,4.1893,4.3241,4.3888,4.4018,4.3354,4.1777,3.9386,3.5498,3.2642,2.9797,2.6163,2.5308,2.5125,2.4849,2.7234,2.9851,3.1797,3.3869,3.678,4.1198,4.198,4.3076,4.5768,4.6462,4.6734,4.6783,4.6978,4.7112,4.717,4.7143,4.6849,4.6226,4.5875,4.5694,4.5694,4.5694,4.5694,4.5694,4.5694,4.5587,4.539,4.5327,4.499,4.4379,4.3788,4.3308,4.2969,4.2151,4.1806,4.1766,4.1203,4.0945,4.0869,4.067,4.0548,4.0512,4.0512,4.0512,4.0512,0.0,0.0,0.0,0.0,0.0,0.0,0.0,1.2058,1.2778,1.4253,1.4436,1.4177,1.3566,1.3112,1.2267,0.0,0.0,0.0,0.0,0.0,0.0,0.0,0.0,0.0,0.0,0.0,0.0,2.3835,2.3861,0.0,0.0,0.0,0.0,0.0,0.0,2.4599,2.4599,2.4599,0.0,0.0,0.0,0.0,0.0,0.0,0.0,0.0,0.0,1.2514,1.382,2.076,2.3613,2.5473,3.2427,3.7034,3.9915,4.0077,4.1269,4.2771,4.3698,4.4386,4.4599,4.3698,4.1746,3.9034,3.5204,3.1917,2.8802,2.5764,2.469,2.4547,2.5281,2.6326,2.8193,3.1557,3.32,3.5605,4.003,4.2004,4.3674,4.5524,4.652,4.7152,4.7388,4.7232,4.7192,4.7446,4.725,4.6849,4.6226,4.5875,4.5694,4.5694,4.5694,4.5694,4.5694,4.5694,4.5694,4.5654,4.5424,4.499,4.4379,4.3788,4.3217,4.2691,4.2076,4.1806,0.0,4.141,4.1116,4.0893,4.0869,4.071,4.0512,4.0512,4.0512,4.0512,0.0,0.0,0.0,0.0,0.0,0.0,0.0,1.3017,1.4,1.5098,1.6088,1.6261,1.5146,1.4164,1.2853,0.0,0.0,0.0,0.0,0.0,0.0,0.0,0.0,0.0,0.0,0.0,2.432,2.4044,2.4199,0.0,0.0,0.0,0.0,0.0,0.0,2.4599,2.4599,2.4599,0.0,0.0,0.0,0.0,0.0,0.0,0.0,0.0,0.0,0.0,1.3129,1.7021,2.0214,2.3205,2.6738,3.1394,3.6059,3.8689,4.0361,4.1833,4.3974,4.482,4.4934,4.4018,4.1492,3.8316,3.4857,3.1129,2.7733,2.5295,2.4356,2.4227,2.51,2.5669,2.6941,2.976,3.0207,3.1704,3.6153,3.75,3.9423,4.315,4.4713,4.6079,4.7584,4.7642,4.7558,4.7495,4.7241,4.6996,4.6751,4.6266,4.5999,4.5999,4.58,4.5694,4.5694,4.5694,4.5694,4.5694,4.5587,4.5261,4.4673,4.4075,4.3487,4.2918,4.2298,4.2044,0.0,4.1492,4.1239,4.1107,4.0787,4.0588,4.0512,4.0512,4.0512,4.0512,0.0,0.0,0.0,0.0,0.0,0.0,1.2117,1.4034,1.5311,1.5409,1.7275,1.7855,1.5904,1.4453,1.2913,1.115,0.0,0.0,0.0,0.0,0.0,0.0,0.0,0.0,0.0,0.0,2.4502,2.432,2.4502,2.4599,0.0,0.0,2.4599,2.4599,0.0,0.0,0.0,0.0,0.0,0.0,0.0,0.0,0.0,0.0,0.0,0.0,0.0,0.0,0.0,0.0,0.0,2.0538,2.2766,2.6459,3.1004,3.6175,3.889,4.0817,4.3517,4.472,4.4984,4.4199,4.1334,3.7835,3.4509,3.0608,2.7111,2.5035,2.4168,2.4089,2.5046,2.5451,2.6306,2.8292,2.8393,2.9593,3.3482,3.4657,3.6659,4.0783,4.2456,4.4205,4.6619,4.75,4.782,4.7624,4.7366,4.7232,4.7232,4.6644,4.6283,4.6203,4.5964,4.5808,4.5694,4.5694,4.5694,4.5694,4.5614,4.5327,4.4884,4.4165,4.3584,4.3076,4.2456,4.2202,0.0,4.1746,4.1517,4.1401,4.0924,4.0695,4.0618,4.0523,4.0512,4.0512,0.0,0.0,0.0,0.0,0.0,0.0,0.0,1.4814,1.6433,1.5169,1.7394,1.7967,1.5027,1.34,1.2109,1.1088,0.0,0.0,0.0,0.0,0.0,0.0,0.0,0.0,0.0,0.0,0.0,2.4599,2.4599,2.4599,2.4599,2.4599,2.4599,2.4599,0.0,0.0,0.0,0.0,0.0,0.0,0.0,0.0,0.0,0.0,0.0,0.0,0.0,0.0,0.0,0.0,0.0,0.0,0.0,2.347,2.5267,3.2287,3.686,4.0052,4.2158,4.3787,4.4746,4.4155,4.1334,3.7768,3.4216,3.0448,2.7111,2.5035,2.4168,2.4156,2.5281,2.5778,2.6362,2.7532,2.8708,3.0394,3.3043,3.495,3.6834,3.8901,3.996,4.1563,4.4189,4.6552,4.79,4.79,4.7642,4.7495,4.7495,4.6912,4.648,4.6203,4.6203,4.6039,4.5694,4.5694,4.5694,4.5694,4.5417,4.5171,4.4884,4.3928,4.3364,4.3076,4.2456,4.2202,0.0,4.2186,4.2031,4.1766,4.1425,4.1132,4.0853,4.0603,4.0512,4.0512,0.0,0.0,0.0,0.0,0.0,0.0,0.0,1.3346,1.4635,1.3867,1.5724,1.6395,1.4505,1.322,1.241,1.2177,0.0,0.0,0.0,0.0,0.0,0.0,0.0,0.0,0.0,0.0,0.0,0.0,0.0,2.5335,2.555,2.5321,2.5121,2.493,2.4702,2.4599,0.0,0.0,0.0,0.0,0.0,0.0,1.87,0.0,0.0,0.0,0.0,0.0,0.0,0.0,0.0,0.0,0.0,0.0,0.0,2.8365,3.2599,3.6073,3.7744,3.9268,4.011,3.8907,3.6687,3.4135,3.1585,2.897,2.6607,2.4933,2.432,2.4311,2.5086,2.513,2.5905,2.8508,2.8898,2.9729,3.2172,3.4576,3.6861,3.8919,4.3143,4.6293,4.7322,4.7914,4.815,4.7918,4.7664,4.7495,4.7495,4.7152,4.6801,4.648,4.6071,4.58,4.5694,4.5694,4.5694,4.5694,4.5417,4.5171,4.4884,4.3928,4.3348,4.3076,4.2456,4.2202,4.2162,4.1746,4.1532,4.1401,4.0949,4.0695,4.0618,4.0523,4.0512,4.0512,0.0,0.0,0.0,0.0,0.0,0.0,0.0,1.2839,1.3999,1.2812,1.462,1.5439,1.3936,1.2644,1.2107,1.2655,0.0,0.0,0.0,0.0,0.0,0.0,0.0,0.0,0.0,0.0,0.0,0.0,0.0,0.0,0.0,0.0,2.5936,2.5247,2.5031,2.4813,0.0,0.0,0.0,0.0,0.0,0.0,1.8477,0.0,0.0,0.0,0.0,0.0,0.0,0.0,0.0,0.0,0.0,0.0,0.0,0.0,2.9029,3.1981,3.4575,3.634,3.725,3.6327,3.4455,3.2329,3.0343,2.8209,2.627,2.4879,2.4391,2.4382,2.4989,2.5014,2.5686,2.796,2.8283,2.9034,3.1289,3.3814,3.6487,3.9348,4.4065,4.7175,4.7437,4.8052,4.8315,4.8092,4.7722,4.7495,4.7495,4.7143,4.6831,4.6609,4.6129,4.5818,4.5694,4.5694,4.5661,4.5554,4.5277,4.4927,4.4533,4.3714,4.3207,4.2913,4.2416,4.2202,0.0,4.1786,4.1588,4.1441,4.0989,4.075,4.063,4.0538,4.0512,4.0512,0.0,0.0,0.0,0.0,0.0,0.0,0.0,0.0,0.0,0.0,1.3841,1.4759,1.3192,1.1744,1.1354,0.0,0.0,0.0,0.0,0.0,0.0,0.0,0.0,0.0,0.0,0.0,0.0,2.6767,2.6794,2.7124,2.7733,0.0,0.0,2.5562,2.5522,2.5156,0.0,0.0,0.0,0.0,2.493,2.2427,0.0,0.0,0.0,0.0,0.0,0.0,0.0,0.0,0.0,0.0,0.0,0.0,0.0,0.0,0.0,0.0,0.0,3.4402,3.5511,3.5431,3.3772,3.1711,2.9969,2.7909,0.0,2.4835,2.4395,2.4409,2.5016,2.5327,2.5718,2.6453,2.7281,2.8551,3.0633,3.3133,3.6273,4.0376,4.3397,4.5228,4.5434,4.7241,4.8395,4.8395,4.7847,4.7495,4.7469,4.6921,4.6592,4.6569,4.631,4.6005,4.5694,4.5694,4.5564,4.5301,4.5024,4.4583,4.3985,4.338,4.2953,4.2675,4.2354,4.2186,4.2162,4.2146,4.1989,4.1699,4.1361,4.1092,4.0842,4.0588,4.0512,4.0512,0.0,0.0,0.0,0.0,0.0,0.0,0.0,0.0,0.0,0.0,1.1576,1.1835,1.1339,1.0956,1.0958,0.0,0.0,0.0,0.0,0.0,0.0,0.0,0.0,0.0,0.0,0.0,0.0,2.6493,2.6697,2.7241,2.8082,2.7813,0.0,0.0,0.0,0.0,0.0,0.0,0.0,0.0,2.4688,2.3021,0.0,0.0,0.0,0.0,1.2216,1.1762,0.0,0.0,0.0,0.0,0.0,0.0,0.0,0.0,2.5541,2.6209,2.7502,0.0,2.9838,2.8906,2.8264,2.7612,0.0,2.6109,2.5508,2.4746,2.4555,2.4688,2.5295,2.5291,2.5902,2.8035,2.8778,2.9802,3.1886,3.6139,4.0386,4.4042,4.631,4.7424,4.7028,4.7847,4.8395,4.8395,4.7847,4.7406,4.7192,4.6831,4.652,4.6293,4.5982,4.5791,4.5694,4.5694,4.5564,4.5301,4.5024,4.4583,4.3985,4.338,4.2953,4.2675,4.2354,4.208,4.1873,4.1615,4.1345,4.108,4.0802,4.0659,4.0588,4.0523,4.0512,4.0512,0.0,0.0,0.0,0.0,0.0,0.0,0.0,0.0,0.0,0.0,0.0,0.0,0.0,0.0,0.0,0.0,0.0,0.0,0.0,0.0,0.0,0.0,0.0,0.0,0.0,0.0,0.0,0.0,0.0,2.7816,0.0,0.0,0.0,0.0,0.0,0.0,0.0,0.0,0.0,0.0,2.4764,0.0,0.0,0.0,0.0,0.0,1.4597,1.4289,0.0,1.7512,1.7743,1.7699,0.0,0.0,0.0,0.0,2.4965,2.5098,2.5163,2.6443,2.763,2.6978,2.6704,2.6466,2.6012,2.5598,2.5174,2.4702,2.4599,2.4742,2.5224,2.5291,2.5932,2.7909,2.8711,3.0379,3.4054,3.7849,4.1615,4.527,4.6806,4.7709,4.8065,4.8395,4.8542,4.8413,4.7945,4.7513,4.7112,4.6774,4.648,4.6203,4.5875,4.5694,4.5694,4.5581,4.5384,4.5121,4.469,4.4172,4.3567,4.3116,4.2742,4.2461,4.2282,4.206,4.179,4.1603,4.1279,4.0893,4.075,4.0618,4.0512,4.0512,4.0512,4.0512,0.0,0.0,0.0,0.0,0.0,0.0,0.0,0.0,0.0,0.0,0.0,0.0,0.0,0.0,0.0,0.0,0.0,0.0,0.0,0.0,0.0,0.0,0.0,0.0,0.0,0.0,0.0,0.0,0.0,0.0,0.0,0.0,2.8724,0.0,0.0,0.0,0.0,0.0,0.0,2.4613,2.4863,0.0,0.0,0.0,0.0,0.0,0.0,0.0,0.0,2.0941,2.0778,1.9979,2.4307,0.0,0.0,0.0,0.0,0.0,2.4489,2.5858,2.7218,2.6911,2.6707,2.6513,2.6199,2.5545,2.4943,2.4662,2.4639,2.4805,2.522,2.5585,2.6266,2.7566,2.8813,3.1465,3.6766,3.9184,4.1706,4.5227,4.6325,4.7264,4.8426,4.8613,4.8591,4.8413,4.8003,4.7558,4.7045,4.6716,4.6413,4.6136,4.5858,4.5671,4.5644,4.5407,4.5131,4.4827,4.4262,4.3658,4.302,4.2798,4.2488,4.2151,0.0,0.0,4.1659,4.1659,4.135,4.0842,4.0842,4.0695,4.0512,4.0512,4.0512,4.0512,0.0,0.0,0.0,0.0,0.0,0.0,0.0,0.0,0.0,0.0,0.0,0.0,0.0,0.0,0.0,0.0,0.0,0.0,0.0,0.0,0.0,0.0,0.0,0.0,0.0,0.0,0.0,0.0,0.0,0.0,2.9915,3.0612,2.9606,0.0,0.0,0.0,0.0,0.0,2.4648,2.4586,2.4413,0.0,0.0,0.0,0.0,0.0,0.0,0.0,0.0,2.0032,2.0957,2.1524,2.3505,0.0,0.0,0.0,0.0,0.0,2.5453,2.6506,2.6884,2.5113,2.5188,2.5552,2.4995,2.4769,2.4662,2.4613,2.4827,2.526,2.6049,2.6837,2.7923,2.9639,3.2317,3.5605,3.9706,4.1432,4.3052,4.5114,4.6756,4.7607,4.7379,4.7771,4.8132,4.8377,4.766,4.7068,4.6694,4.6413,4.6119,4.5791,4.5734,4.5587,4.5367,4.531,4.5017,4.4469,4.4155,4.3567,4.2771,4.2715,4.2381,4.1857,0.0,4.1552,4.104,4.104,4.0857,4.0563,4.0563,4.0538,4.0512,4.0512,4.0512,4.0512,0.0,0.0,0.0,0.0,0.0,0.0,0.0,0.0,0.0,0.0,0.0,0.0,0.0,0.0,0.0,0.0,0.0,0.0,0.0,0.0,0.0,0.0,2.2697,2.5068,2.5495,0.0,0.0,0.0,0.0,3.0807,3.1772,3.0892,2.9421,2.7476,0.0,0.0,0.0,0.0,2.4599,2.4582,0.0,0.0,0.0,0.0,0.0,0.0,0.0,0.0,0.0,0.0,2.3059,2.3578,2.4086,0.0,0.0,0.0,0.0,0.0,2.4445,2.531,2.5885,2.4926,2.5831,2.6714,2.5775,2.5312,2.5138,2.5317,2.5594,2.6115,2.7178,2.8478,3.0368,3.3414,3.5979,3.8477,4.1031,4.2143,4.3483,4.5531,4.6489,4.7201,4.7758,4.8034,4.8101,4.7932,4.7535,4.7045,4.643,4.6266,4.6039,4.5711,4.5564,4.5417,4.5301,4.482,4.4459,4.4182,4.3725,4.3223,4.2691,4.237,4.206,4.179,0.0,4.1294,4.0893,4.0893,4.075,4.0512,4.0512,4.0512,4.0512,4.0512,4.0512,4.0512,0.0,0.0,0.0,0.0,0.0,0.0,0.0,0.0,0.0,0.0,0.0,0.0,0.0,0.0,0.0,0.0,0.0,0.0,0.0,0.0,1.8081,1.905,2.3088,2.5621,2.63,0.0,2.8233,3.0112,3.1649,3.2879,3.3788,3.168,2.9704,0.0,0.0,0.0,0.0,0.0,2.4599,2.4582,0.0,0.0,0.0,0.0,0.0,0.0,0.0,0.0,0.0,0.0,0.0,0.0,0.0,0.0,0.0,2.4374,2.4053,2.4004,2.4097,2.4703,2.5359,2.5564,2.6653,2.755,2.7024,2.6453,2.6186,2.678,2.7075,2.7529,2.8526,3.0549,3.3213,3.6819,3.9104,4.0909,4.233,4.3092,4.4255,4.6266,4.6497,4.7005,4.8288,4.8257,4.7994,4.7535,4.7371,4.6965,4.6243,4.6136,4.5938,4.5621,4.5407,4.5211,4.5007,4.4329,4.3968,4.3872,4.329,4.2822,4.2477,4.2071,4.1817,4.167,4.141,4.1147,4.0893,4.0842,4.0695,4.0512,4.0512,4.0512,4.0512,4.0512,4.0512,4.0512,0.0,0.0,0.0,0.0,0.0,0.0,0.0,0.0,0.0,0.0,0.0,0.0,0.0,0.0,0.0,0.0,0.0,0.0,0.0,0.0,1.7712,1.8176,2.3179,2.6821,2.8719,2.8812,2.9851,3.1917,3.3642,3.4684,3.5044,3.3749,3.1506,2.8486,0.0,0.0,0.0,0.0,2.4599,2.4582,2.4306,0.0,0.0,0.0,0.0,0.0,0.0,0.0,0.0,0.0,0.0,0.0,0.0,0.0,2.5428,2.51,2.4796,2.4835,2.6183,2.6249,2.6131,2.6938,2.6653,2.656,2.8096,2.7966,0.0,2.9328,2.9624,2.9766,3.0174,3.3238,3.6433,3.8593,4.1147,4.3273,4.4493,4.5401,4.631,4.7299,4.7406,4.766,4.8346,4.7887,4.7553,4.7495,4.6988,4.6529,4.6221,4.5915,4.5604,4.5327,4.5318,4.4917,4.4099,4.4018,4.3845,4.3535,4.298,4.2437,4.1873,4.2071,4.1868,4.133,4.1305,4.1147,4.0869,4.063,4.0523,4.0512,4.0512,4.0512,4.0512,4.0512,4.0512,4.0512,0.0,0.0,0.0,0.0,0.0,0.0,0.0,0.0,0.0,0.0,0.0,0.0,0.0,0.0,0.0,0.0,0.0,0.0,0.0,0.0,1.8073,2.0067,2.3713,2.657,2.8465,3.0461,3.2772,3.5404,3.6606,3.6699,3.5712,3.3413,0.0,0.0,0.0,0.0,0.0,0.0,0.0,2.5085,2.4284,2.3999,0.0,0.0,0.0,0.0,0.0,0.0,0.0,0.0,2.4334,2.4534,2.4106,2.4943,2.5892,2.5041,2.4702,2.4719,2.528,2.5715,2.6118,2.6617,2.7318,0.0,0.0,2.9526,3.0154,3.2011,3.2641,3.3149,3.4028,3.6126,3.8383,4.0453,4.2715,4.4623,4.5785,4.643,4.7005,4.7682,4.7437,4.7469,4.8025,4.7388,4.693,4.693,4.6569,4.6226,4.5915,4.576,4.5581,4.5318,4.4927,4.4499,4.4008,4.3461,4.3132,4.3009,4.2798,4.2477,4.206,4.198,4.171,4.129,4.1116,4.0893,4.063,4.0538,4.0512,4.0512,4.0512,4.0512,4.0512,4.0512,4.0512,4.0512,0.0,0.0,0.0,0.0,0.0,0.0,0.0,0.0,0.0,0.0,0.0,0.0,0.0,0.0,0.0,0.0,0.0,0.0,0.0,1.5661,1.8107,2.0721,2.3754,2.6343,2.8409,3.1702,3.4589,3.6995,3.8518,3.8091,3.5752,0.0,0.0,0.0,0.0,0.0,0.0,0.0,0.0,0.0,2.4351,2.4031,0.0,0.0,0.0,0.0,0.0,0.0,0.0,0.0,2.4303,2.4387,2.4315,2.5121,2.6012,2.5459,2.5169,2.5028,2.4915,2.5214,2.5688,2.6262,0.0,0.0,3.0904,3.169,3.2704,3.495,3.5485,3.5885,3.698,3.8183,3.9599,4.1497,4.3771,4.5611,4.6472,4.6948,4.7388,4.7838,4.7428,4.7277,4.7731,4.7059,4.6569,4.648,4.6293,4.6039,4.5711,4.5614,4.5407,4.5017,4.4526,4.4059,4.3584,4.2889,4.2488,4.2426,4.2426,4.2234,4.1908,4.1833,4.1563,4.1172,4.0989,4.0802,4.0615,4.0523,4.0512,4.0512,4.0512,4.0512,4.0512,4.0512,4.0512,4.0512,0.0,0.0,0.0,0.0,0.0,0.0,0.0,0.0,0.0,0.0,0.0,0.0,0.0,0.0,0.0,0.0,0.0,0.0,0.0,1.5587,1.7637,1.9541,2.3124,2.6273,2.8906,3.2454,3.4883,3.6126,3.904,3.8653,3.5137,3.3667,0.0,0.0,0.0,0.0,0.0,0.0,0.0,0.0,2.4547,2.4199,2.4199,0.0,0.0,0.0,0.0,0.0,0.0,0.0,2.4115,2.3322,2.5648,2.5985,2.5695,2.655,2.6423,2.5921,2.5598,2.5072,2.4902,2.6115,2.7349,2.9316,3.3388,3.4576,3.5565,3.8181,3.8036,3.7702,3.857,3.9224,4.0092,4.1563,4.4279,4.6293,4.6569,4.7117,4.7584,4.786,4.7428,4.7192,4.7469,4.6948,4.648,4.6226,4.6186,4.6039,4.5711,4.5434,4.5024,4.4419,4.4125,4.3567,4.2691,4.2381,4.21,4.1837,4.1869,4.1679,4.1305,4.1675,4.1532,4.0939,4.0983,4.0999,4.0959,4.0664,4.0557,4.0587,4.0557,4.0557,4.0587,4.0557,4.0542,4.0542,0.0,0.0,0.0,0.0,0.0,0.0,0.0,0.0,0.0,0.0,0.0,0.0,0.0,0.0,0.0,0.0,0.0,0.0,0.0,1.602,1.7857,2.0877,2.1877,2.3385,2.5573,2.9891,3.4123,3.8207,3.8276,3.6621,3.3344,0.0,0.0,2.834,0.0,0.0,0.0,0.0,0.0,0.0,2.4845,2.4475,2.4475,0.0,0.0,0.0,0.0,0.0,0.0,0.0,0.0,0.0,2.4987,2.6006,2.6987,2.6627,2.6547,2.6413,2.5686,2.5682,2.6156,2.7352,2.9501,3.2087,3.5151,3.5778,3.6755,4.0397,4.0817,4.0441,4.0279,4.0893,4.1572,4.1999,4.4205,4.6022,4.6529,4.6948,4.725,4.7339,4.6831,4.6577,4.6841,4.6308,4.6022,4.6186,4.5808,4.5514,4.5417,4.495,4.4499,4.4125,4.3453,4.2862,4.2349,4.4035,4.4839,4.4767,4.6996,4.5688,4.1381,4.3934,4.4767,4.4326,4.6553,4.7383,4.6986,4.4683,4.504,4.6817,4.4609,4.51,4.6773,4.4549,4.3743,4.3428,0.0,0.0,0.0,0.0,0.0,0.0,0.0,0.0,0.0,0.0,1.0421,1.0441,0.0,0.0,0.0,0.0,0.0,0.0,0.0,0.0,1.8418,2.0637,2.1456,2.3091,2.5732,2.9245,3.256,3.5631,3.5885,3.4469,3.1527,0.0,3.0887,2.9499,0.0,3.0329,0.0,0.0,2.7302,2.6453,2.5638,2.5321,2.5298,0.0,0.0,0.0,0.0,0.0,0.0,0.0,0.0,0.0,2.4604,2.5552,2.6637,2.645,2.6276,2.6092,2.5905,2.6199,2.6987,2.8783,3.1191,3.3987,3.7329,3.8584,3.9878,4.2817,4.2846,4.2274,4.2151,4.2282,4.2512,4.2857,4.4483,4.5881,4.6373,4.6711,4.6898,4.6898,4.6497,4.6266,4.6422,4.5898,4.5621,4.5825,4.527,4.4927,4.4927,4.4362,4.3872,4.3501,4.2846,4.2888,4.3691,4.5124,4.6466,4.7729,4.9624,4.8489,4.4746,4.6995,4.7745,4.738,4.9284,4.9988,4.9646,4.7745,4.8081,4.9617,4.7715,4.8141,4.9573,4.7655,4.6182,4.4832,0.0,0.0,0.9799,0.9799,0.0,0.0,0.0,0.0,0.0,0.0,1.0264,1.0333,0.0,0.0,0.0,0.0,0.0,0.0,0.0,0.0,1.876,1.9372,2.1795,2.4696,2.8002,2.9617,3.0285,2.9998,3.2356,3.2225,0.0,0.0,3.2584,3.2131,0.0,3.32,3.1447,3.0194,2.8695,2.7098,2.6607,2.6369,2.6289,2.6082,0.0,0.0,0.0,0.0,0.0,0.0,0.0,0.0,2.4475,2.4894,2.5336,2.6089,2.5804,2.5403,2.6209,2.6684,2.7618,3.0354,3.2825,3.5672,3.9828,4.2269,4.3962,4.5007,4.4205,4.3487,4.3992,4.3477,4.3223,4.3968,4.5017,4.5858,4.6146,4.6413,4.6569,4.6569,4.6316,4.6146,4.6146,4.5638,4.5301,4.5277,4.4696,4.4346,4.4306,4.3987,4.3441,4.268,4.2843,4.3898,4.5935,4.6269,4.7847,5.0683,5.0964,5.0954,5.0664,5.0699,5.0695,5.0664,5.0664,5.0664,5.0618,5.0357,5.04,5.0618,5.0342,5.04,5.0618,5.0332,4.8417,4.5915,0.0,0.0,0.9799,0.9799,0.0,0.0,0.0,0.0,0.0,0.0,0.0,0.0,0.0,0.0,0.0,0.0,0.0,0.0,0.0,0.0,1.5985,1.9261,2.2965,2.5625,2.7081,2.7471,2.7439,2.6958,2.9294,2.9911,0.0,0.0,0.0,3.1834,0.0,3.217,3.0169,2.8559,2.7101,2.5919,2.6262,2.6115,2.5718,2.5921,2.5636,0.0,0.0,0.0,0.0,0.0,0.0,0.0,2.4877,2.5363,2.5787,2.5728,2.5902,2.6209,2.6603,2.7445,2.8954,3.2078,3.6299,4.0264,4.2373,4.3912,4.486,4.4646,4.49,4.5057,4.477,4.49,4.4984,4.473,4.5491,4.6119,4.6186,4.6243,4.6293,4.6293,4.5999,4.58,4.58,4.5497,4.5211,4.5,4.4419,4.3962,4.3708,4.5273,4.4989,4.2377,4.637,4.7638,4.5697,5.0281,5.2938,5.3631,5.6107,5.724,5.7094,5.4908,5.5117,5.7188,5.7188,5.7188,5.6991,5.4515,5.4942,5.693,5.4454,5.5003,5.6883,5.4404,5.3065,5.2124,0.0,0.0,0.0,0.0,0.0,0.0,0.0,0.0,0.0,0.0,0.0,0.0,0.0,0.0,0.0,0.0,0.0,0.0,0.0,0.0,0.0,1.9864,2.354,2.5579,2.5743,2.5909,2.5648,2.4954,2.6175,0.0,0.0,0.0,0.0,3.2382,0.0,3.2854,3.045,2.9281,2.7917,2.659,2.7075,2.6901,2.6383,2.656,2.5988,2.5056,2.4715,0.0,0.0,0.0,0.0,0.0,0.0,0.0,2.5344,2.5468,2.5625,2.6049,2.7325,2.874,3.0892,3.5284,3.9291,4.244,4.3495,4.4556,4.5261,4.5057,4.539,4.5604,4.5327,4.5514,4.5604,4.5327,4.5661,4.5972,4.5972,4.5972,4.5972,4.5972,4.5688,4.5514,4.5514,4.5007,4.4623,4.4476,4.3634,4.3709,4.5053,4.5983,4.635,4.6094,4.882,5.0164,4.9867,5.2952,5.5263,5.676,5.8418,5.9194,5.9152,5.7641,5.7783,5.9194,5.9194,5.9194,5.9073,5.7433,5.7719,5.9026,5.7386,5.7751,5.8998,5.7357,5.5799,5.4268,0.0,0.0,0.0,0.0,0.0,0.0,0.0,0.0,0.0,0.0,0.0,0.0,0.0,0.0,0.0,0.0,0.0,0.0,0.0,0.0,0.0,2.0118,2.3237,2.485,2.4759,2.493,2.4641,2.3875,2.3875,0.0,0.0,0.0,0.0,3.3279,0.0,3.3615,3.1066,3.0165,2.8799,2.7281,2.767,2.7493,2.6991,0.0,0.0,2.5056,2.4715,2.4599,2.4572,2.4413,0.0,0.0,0.0,0.0,2.4835,2.5232,2.5264,2.5631,2.7712,3.0049,3.3134,3.8316,4.1405,4.3314,4.3878,4.4713,4.5417,4.5654,4.5694,4.5694,4.5694,4.5694,4.5677,4.5644,4.5644,4.5604,4.5564,4.5604,4.5604,4.5564,4.5407,4.5261,4.5154,4.4459,4.3928,4.3781,4.2806,4.3542,4.6582,4.6736,4.7832,5.022,5.1299,5.2687,5.4482,5.4969,5.6511,5.9076,5.9076,5.9051,5.8993,5.9135,5.9194,5.9194,5.9194,5.9149,5.9076,5.9182,5.9149,5.9076,5.918,5.9194,5.9194,5.9194,5.7554,5.5312,0.0,0.0,0.0,0.0,0.0,0.0,0.0,0.0,0.0,0.0,0.9799,0.9846,0.0,1.018,1.0353,1.0488,1.0843,1.0949,1.0717,0.0,0.0,1.8334,2.1026,2.338,2.5337,2.4902,2.4497,2.4142,0.0,0.0,0.0,0.0,0.0,3.4096,0.0,0.0,3.0688,2.831,2.6573,2.5497,2.6065,2.6068,2.5735,0.0,0.0,0.0,0.0,2.4599,2.4648,2.489,2.5167,0.0,0.0,0.0,2.5298,2.4849,2.5072,2.5682,2.6754,3.077,3.5458,3.8758,4.1548,4.3551,4.3912,4.486,4.5654,4.5694,4.5694,4.5694,4.5694,4.5694,4.5614,4.539,4.535,4.5277,4.5041,4.5211,4.5277,4.5024,4.5188,4.5097,4.4573,4.4205,4.3691,4.2929,4.2461,4.3348,4.5975,4.84,4.9899,5.0292,5.5319,5.6878,5.4529,5.6806,5.8172,5.858,5.858,5.8404,5.81,5.8875,5.9194,5.9194,5.9194,5.8959,5.8625,5.9018,5.8959,5.8625,5.9048,5.9194,5.9194,5.9194,5.8936,5.8572,0.0,0.0,0.0,0.0,0.0,0.0,0.0,0.0,0.0,0.0,0.0,0.9826,0.9886,1.0126,1.0319,1.0379,1.058,1.0701,1.0701,1.367,1.608,1.7525,2.0757,2.2992,2.4022,2.3923,2.3648,2.3198,0.0,0.0,0.0,3.0272,3.2051,0.0,0.0,0.0,0.0,0.0,2.6416,2.5844,2.5948,2.5992,0.0,0.0,0.0,0.0,0.0,0.0,0.0,0.0,2.5041,2.5005,2.5073,0.0,0.0,0.0,2.4671,2.5739,2.9123,3.2571,3.6059,3.9651,4.1802,4.3223,4.3861,4.4663,4.5261,4.5261,4.5261,4.5301,4.5447,4.535,4.5211,4.509,4.6656,4.7173,4.5179,4.8076,4.9736,4.7925,4.8934,4.9764,4.9723,4.7433,4.646,4.77,4.5626,4.6279,5.0748,5.2052,5.3453,5.5229,5.7838,5.8409,5.6759,5.79,5.839,5.8158,5.8158,5.8068,5.7912,5.8289,5.8465,5.8479,5.8711,5.8568,5.817,5.8393,5.8476,5.8507,5.8476,5.8772,5.9182,5.89,5.8959,5.9194,0.0,0.0,0.0,0.0,0.0,0.0,0.0,0.0,0.0,0.0,0.0,0.9813,0.9846,0.0,0.0,0.0,1.056,1.0701,1.0701,1.3782,1.603,1.696,2.0144,2.2154,2.2657,2.2873,2.2789,0.0,0.0,0.0,2.9953,3.0914,3.2853,0.0,3.3202,0.0,0.0,0.0,0.0,0.0,0.0,0.0,0.0,0.0,0.0,0.0,0.0,0.0,0.0,0.0,0.0,2.4862,2.5046,2.4792,0.0,0.0,0.0,2.5512,3.0201,3.2797,3.5124,3.9012,4.1122,4.2488,4.3461,4.4239,4.477,4.477,4.472,4.472,4.482,4.481,4.4746,4.468,4.7405,4.8624,4.6052,5.0557,5.3248,5.0941,5.2225,5.3321,5.3351,5.0468,4.9391,5.1276,4.8736,4.9338,5.4519,5.4501,5.5824,5.9104,5.8993,5.8758,5.8507,5.8273,5.7969,5.7566,5.7664,5.7664,5.758,5.7808,5.7781,5.7605,5.8111,5.8113,5.7722,5.7853,5.7996,5.8142,5.7969,5.8289,5.8828,5.858,5.8711,5.9051,0.0,0.0,0.0,0.0,0.0,0.0,0.0,0.0,0.0,0.0,0.0,0.9846,0.9972,1.0181,1.0353,1.0474,1.0621,1.0701,1.0701,1.2429,1.4348,1.6352,1.8213,0.0,2.2014,2.2061,0.0,0.0,0.0,0.0,3.1132,3.233,3.503,3.874,3.6152,3.4067,3.2326,0.0,0.0,0.0,0.0,0.0,0.0,0.0,0.0,0.0,0.0,0.0,0.0,0.0,0.0,0.0,0.0,2.5082,2.4939,0.0,0.0,0.0,2.7657,2.9896,3.2213,3.5538,3.8705,4.131,4.2488,4.3618,4.4443,4.4443,4.4216,4.3952,4.3658,4.4059,4.4352,4.4092,4.6533,4.8329,4.7887,5.102,5.3209,5.2786,5.3079,5.2926,5.1987,5.1701,5.1242,5.0444,5.0179,5.1374,5.4351,5.4087,5.5477,5.909,5.8406,5.8144,5.8507,5.7682,5.707,5.6673,5.7051,5.7031,5.6706,5.7527,5.7449,5.6712,5.7566,5.7683,5.7285,5.7722,5.765,5.7311,5.7742,5.7926,5.7996,5.8379,5.8521,5.8611,0.0,0.0,0.0,0.0,0.0,0.0,0.0,0.0,0.0,0.0,0.0,0.0,0.0,1.0262,1.0455,1.0503,1.0621,1.1166,1.2298,1.4003,1.5799,1.7668,1.9418,2.0689,2.1408,2.1633,0.0,0.0,0.0,2.6042,2.9826,3.1597,3.4015,3.6766,3.4884,3.3696,3.2867,2.9157,0.0,0.0,0.0,0.0,0.0,0.0,0.0,0.0,0.0,0.0,0.0,0.0,0.0,0.0,0.0,0.0,0.0,2.4066,2.4449,2.5442,2.7369,2.9254,3.1421,3.4495,3.7102,3.9265,4.0655,4.2178,4.3314,4.3314,4.337,4.338,4.3273,4.342,4.3527,4.3437,4.7914,5.0626,4.8309,5.4443,5.8387,5.634,5.7421,5.8262,5.8166,5.5774,5.484,5.6285,5.4446,5.4365,5.6927,5.691,5.7278,5.8334,5.8055,5.7806,5.7682,5.7109,5.6752,5.6595,5.6752,5.6752,5.6615,5.6908,5.6902,5.6615,5.6927,5.6966,5.683,5.6999,5.7123,5.7193,5.7103,5.741,5.7879,5.7721,5.8025,5.8521,0.0,0.0,0.0,0.0,0.0,0.9799,0.0,0.0,0.0,0.0,0.0,0.0,0.0,0.0,1.0522,1.0561,1.0655,1.1439,1.3193,1.4923,1.6673,1.8412,2.0277,2.1272,2.1272,0.0,0.0,0.0,0.0,0.0,0.0,3.0919,3.3268,3.5805,3.3748,3.3429,0.0,0.0,0.0,2.8641,0.0,0.0,2.7558,0.0,0.0,0.0,0.0,0.0,0.0,0.0,0.0,0.0,0.0,0.0,0.0,0.0,2.4538,2.5585,2.656,2.8211,3.0386,3.3438,3.5124,3.6727,3.9276,4.063,4.1488,4.198,4.2472,4.2806,4.2806,4.271,4.308,4.4375,4.9032,5.2085,5.0912,5.709,6.0978,5.8978,5.9991,6.0918,6.1045,5.8603,5.7738,5.9479,5.758,5.6962,5.8416,5.8379,5.8041,5.7468,5.7605,5.7455,5.7012,5.6732,5.6595,5.6595,5.6595,5.6517,5.6367,5.6367,5.6289,5.6172,5.6308,5.6445,5.6595,5.6595,5.6771,5.6973,5.6712,5.6947,5.7468,5.7455,5.7793,5.8332,0.0,0.9907,0.9813,0.9813,0.9813,0.9813,0.0,0.0,0.0,0.0,0.0,0.0,0.0,0.0,0.0,1.0812,1.0869,1.1635,1.3358,1.5047,1.6764,1.8524,2.0525,2.1604,2.1604,0.0,0.0,0.0,0.0,0.0,0.0,0.0,3.3001,3.6219,3.3119,3.3453,3.6273,0.0,3.3493,3.2326,0.0,2.877,2.9199,0.0,0.0,0.0,2.9942,2.923,0.0,2.6927,0.0,0.0,0.0,0.0,0.0,0.0,0.0,2.514,0.0,0.0,0.0,3.2048,3.2675,3.3732,3.833,3.8959,3.8999,4.0508,4.1497,4.2111,4.2178,4.204,4.3164,4.6992,4.9692,5.2429,5.5723,5.8619,6.0387,6.0387,6.0387,6.0245,5.9835,5.979,5.9601,5.9207,5.918,5.8959,5.8494,5.8086,5.7468,5.6634,5.6973,5.6992,5.6595,5.6595,5.6595,5.6595,5.6595,5.6348,5.5898,5.5898,5.5696,5.5338,5.5735,5.6178,5.6595,5.6595,5.6595,5.6595,5.6595,5.6595,5.6693,5.7566,5.7879,5.8029,1.0209,1.0189,1.0162,1.0162,1.0162,1.0162,0.0,0.0,0.0,0.0,0.0,0.0,0.0,0.0,0.0,1.3624,1.4919,1.6247,1.7345,1.7879,1.8924,2.0664,2.1477,2.1895,2.1895,0.0,0.0,0.0,0.0,0.0,0.0,0.0,0.0,0.0,3.2757,3.2892,3.312,3.0143,0.0,3.1371,2.8938,2.9007,0.0,0.0,0.0,0.0,0.0,3.0782,3.0616,0.0,2.8938,2.788,0.0,0.0,0.0,0.0,0.0,0.0,2.5558,0.0,0.0,0.0,0.0,0.0,3.3681,3.487,3.6179,3.8546,3.9213,3.9908,4.1603,4.3515,4.6033,4.9653,5.0682,5.2118,5.5327,5.8435,6.0387,6.0387,6.0142,5.9922,5.9805,5.9545,5.918,5.8742,5.8697,5.8345,5.7603,5.7181,5.6863,5.6615,5.6712,5.6699,5.6595,5.6595,5.6595,5.6595,5.6595,5.6348,5.5898,5.6237,5.6158,5.5755,5.6198,5.6478,5.6595,5.6595,5.6595,5.6595,5.6595,5.6595,5.6654,5.7187,5.7611,5.7984,1.0374,1.034,1.0321,1.0374,1.0545,1.0654,0.0,0.0,0.0,0.0,0.0,0.0,0.0,0.0,0.0,0.0,1.7338,1.8335,1.9475,1.9303,1.9985,2.1853,2.2079,2.2347,0.0,0.0,0.0,0.0,0.0,0.0,0.0,0.0,0.0,0.0,3.0299,3.0568,3.0623,0.0,0.0,0.0,3.0085,0.0,0.0,3.2241,3.2521,0.0,0.0,0.0,3.2849,3.1886,3.0644,0.0,0.0,0.0,0.0,0.0,0.0,0.0,0.0,0.0,2.7802,2.8267,0.0,0.0,3.1944,3.2853,3.3961,3.6634,3.7583,3.8492,4.0334,4.2119,4.4469,4.7975,4.8512,5.056,5.6514,5.8824,5.9893,5.9893,5.9687,5.9545,5.9545,5.9166,5.88,5.8521,5.8332,5.7955,5.7232,5.6627,5.6308,5.6308,5.6152,5.6133,5.6308,5.6308,5.6406,5.6595,5.6595,5.6348,5.5911,5.6178,5.5976,5.5416,5.5859,5.6068,5.6074,5.623,5.6426,5.6595,5.6595,5.6712,5.6894,5.7324,5.7762,5.8217,0.0,1.0435,1.04,1.059,1.0973,0.0,0.0,0.0,0.0,0.0,0.0,0.0,0.0,0.0,0.0,0.0,1.9175,1.942,2.0609,2.0154,0.0,0.0,0.0,2.2979,0.0,0.0,0.0,0.0,0.0,0.0,0.0,0.0,0.0,0.0,2.7004,2.7478,2.8599,0.0,0.0,3.0753,3.1898,3.2863,0.0,0.0,3.5511,3.5458,3.6046,3.5725,3.4802,3.3303,3.1447,0.0,0.0,0.0,0.0,0.0,2.6476,0.0,0.0,0.0,0.0,0.0,2.8657,0.0,3.1687,3.1941,3.2222,3.471,3.6059,3.7235,3.8607,3.9396,4.0802,4.3765,4.4944,4.868,5.7931,5.8912,5.8816,5.9166,5.9194,5.9194,5.9194,5.8814,5.8552,5.8449,5.8014,5.7547,5.7076,5.6321,5.5891,5.582,5.5495,5.5475,5.5833,5.5891,5.6119,5.6517,5.6576,5.6348,5.5898,5.595,5.5534,5.4778,5.5195,5.5338,5.5319,5.5735,5.6178,5.6595,5.6595,5.6849,5.7265,5.7722,5.8158,5.8566,1.0662,1.064,1.0782,1.1299,1.1461,0.0,0.0,0.0,0.0,0.0,0.0,0.0,0.0,0.0,0.0,0.0,0.0,2.3794,2.3168,2.275,0.0,0.0,0.0,2.3834,0.0,0.0,0.0,0.0,0.0,0.0,0.0,0.0,0.0,0.0,2.6627,2.664,2.6961,2.7759,0.0,2.9829,3.0535,0.0,3.491,3.5418,3.6005,3.6619,3.7021,3.686,3.6219,3.4536,3.2919,3.1209,0.0,0.0,0.0,0.0,0.0,0.0,0.0,0.0,0.0,0.0,0.0,0.0,2.8949,2.9526,3.073,3.2426,3.2973,3.3989,3.6806,3.946,4.1276,4.1453,4.5069,4.9642,5.4824,5.547,5.6364,5.8908,5.9194,5.9194,5.9194,5.9121,5.8769,5.8068,5.7279,5.664,5.6184,5.5995,5.5755,5.5436,5.5338,5.5338,5.5416,5.5735,5.595,5.6028,5.6426,5.6348,5.5898,5.6289,5.5996,5.5215,5.5599,5.5599,5.5319,5.5735,5.6178,5.6595,5.6595,5.6849,5.7265,5.7722,5.8158,5.8566,1.0713,1.0745,1.0988,1.1593,0.0,0.0,0.0,0.0,0.0,0.0,0.0,0.0,0.0,0.0,0.0,0.0,0.0,0.0,0.0,0.0,0.0,0.0,2.4209,2.4476,2.5082,0.0,0.0,0.0,0.0,0.0,0.0,0.0,0.0,0.0,0.0,2.5942,2.5588,2.6924,2.8096,2.9232,3.1462,0.0,3.5765,3.6766,3.7607,3.8276,3.8437,3.8103,3.7195,3.4549,3.356,0.0,0.0,2.9336,2.9679,0.0,2.835,2.8676,0.0,0.0,0.0,2.8641,0.0,0.0,0.0,2.8936,2.959,3.1502,3.1423,3.1812,3.4469,3.6143,3.7258,3.7691,4.032,4.3719,4.7743,5.1904,5.5675,5.883,5.9194,5.9194,5.9194,5.8817,5.8186,5.7312,5.6863,5.6406,5.593,5.5716,5.5319,5.4662,5.4655,5.4655,5.4655,5.5267,5.5696,5.5911,5.6387,5.6348,5.593,5.6387,5.6009,5.5019,5.5436,5.5495,5.5332,5.5514,5.5996,5.6595,5.6595,5.6986,5.7572,5.7806,5.8289,5.8873,1.0793,1.0786,1.1054,1.1685,0.0,0.0,0.0,0.0,0.0,0.0,0.0,0.0,0.0,0.0,0.0,0.0,0.0,0.0,0.0,0.0,0.0,0.0,2.4712,2.4966,2.5875,2.4798,0.0,0.0,0.0,0.0,0.0,0.0,0.0,0.0,0.0,0.0,2.5249,2.6052,2.7482,2.9486,0.0,3.4736,3.5725,3.7702,3.8743,3.9213,3.9412,3.9052,3.7958,3.4749,3.4241,3.4308,3.0608,3.0566,0.0,0.0,0.0,0.0,0.0,0.0,0.0,0.0,0.0,2.9149,0.0,0.0,0.0,3.0751,3.0327,3.0236,3.2155,3.2314,3.2527,3.3599,3.4843,3.6956,4.0639,4.7233,5.2948,5.6388,5.6792,5.6859,5.7042,5.6596,5.6393,5.6678,5.6263,5.5931,5.5794,5.5475,5.4883,5.39,5.3881,5.3881,5.3881,5.4746,5.5338,5.5677,5.6289,5.6308,5.5794,5.6269,5.5814,5.472,5.5117,5.5254,5.5195,5.5338,5.584,5.6484,5.6654,5.7201,5.7912,5.7982,5.8524,5.9194,1.1027,1.0706,1.095,1.1665,0.0,0.0,0.0,0.0,0.0,0.0,0.0,0.0,0.0,0.0,0.0,0.0,0.0,0.0,2.8126,0.0,0.0,0.0,2.539,0.0,2.4115,2.5181,0.0,0.0,0.0,0.0,0.0,0.0,0.0,0.0,2.5594,0.0,2.7308,2.6677,2.8307,3.15,3.3239,3.3707,0.0,3.6487,3.7597,3.7782,3.8781,3.91,3.8714,0.0,3.5832,3.5164,0.0,3.2502,3.2353,3.1607,0.0,0.0,0.0,0.0,0.0,0.0,3.2167,0.0,0.0,0.0,2.992,2.9112,0.0,2.9152,3.0455,0.0,0.0,3.0163,3.237,3.4995,3.742,3.9948,4.3188,4.7595,4.8123,4.8448,4.9268,5.0013,5.2306,5.6804,5.5032,5.4225,5.5299,5.5319,5.4726,5.3502,5.3463,5.3463,5.3463,5.4329,5.4798,5.4857,5.6029,5.6165,5.5377,5.5794,5.5514,5.472,5.5117,5.5098,5.4818,5.5553,5.5891,5.6048,5.6822,5.7455,5.7937,5.8287,5.8756,5.9194,1.2363,1.3095,1.3722,1.3372,0.0,0.0,0.0,0.0,0.0,0.0,0.0,0.0,0.0,0.0,0.0,0.0,0.0,2.7765,0.0,0.0,0.0,0.0,0.0,0.0,0.0,2.5944,2.5948,0.0,2.5818,0.0,0.0,0.0,0.0,0.0,2.6159,2.6694,2.7709,2.7845,2.8967,3.0808,3.2638,3.3131,0.0,3.7182,3.8893,3.9239,3.9515,3.9622,3.9276,0.0,3.6433,0.0,0.0,0.0,0.0,0.0,0.0,0.0,0.0,0.0,0.0,0.0,0.0,0.0,2.9501,0.0,2.8893,0.0,0.0,0.0,0.0,0.0,0.0,0.0,3.0662,3.2071,3.3516,3.4544,3.7829,4.5078,4.5364,4.5279,4.6117,4.6687,4.7931,5.0177,5.0518,5.1011,5.1892,5.3577,5.4199,5.3417,5.3397,5.3397,5.3397,5.4264,5.4818,5.5058,5.6107,5.6269,5.5657,5.582,5.5456,5.472,5.5117,5.5195,5.5098,5.5657,5.6048,5.6367,5.6973,5.7494,5.7937,5.8345,5.88,5.9194,1.4862,0.0,0.0,0.0,0.0,0.0,0.0,0.0,0.0,0.0,0.0,0.0,3.3198,3.2638,0.0,0.0,0.0,2.9421,0.0,0.0,2.7403,0.0,0.0,0.0,0.0,0.0,2.6215,2.6396,2.6122,0.0,0.0,0.0,0.0,0.0,0.0,2.7845,2.8855,2.9659,3.065,3.1852,3.3427,3.4295,3.4963,3.7956,3.9694,4.0456,4.0117,3.9997,3.9677,3.7529,3.7235,0.0,3.5698,0.0,0.0,0.0,0.0,0.0,3.2716,0.0,0.0,0.0,0.0,0.0,0.0,0.0,0.0,0.0,0.0,0.0,0.0,0.0,0.0,0.0,0.0,3.0289,3.0677,3.0862,3.3572,4.0676,4.1218,4.1605,4.3123,4.2989,4.3442,4.5051,4.584,4.7114,4.9093,5.1219,5.2612,5.3196,5.3209,5.3267,5.3397,5.4134,5.4707,5.5137,5.5879,5.6015,5.556,5.556,5.5182,5.4544,5.5078,5.5299,5.5338,5.5866,5.6295,5.6634,5.7051,5.7494,5.7937,5.8345,5.88,5.9194,1.8823,1.7508,0.0,0.0,0.0,0.0,0.0,0.0,0.0,0.0,0.0,0.0,0.0,0.0,0.0,0.0,0.0,3.1089,3.1917,0.0,2.7643,0.0,0.0,0.0,0.0,0.0,2.6383,2.6396,2.6122,0.0,0.0,0.0,0.0,0.0,2.8527,2.9671,3.1607,3.2221,3.396,3.6326,3.6646,3.7968,3.9622,0.0,3.8959,4.0456,4.0117,0.0,0.0,3.893,3.8636,0.0,0.0,0.0,0.0,0.0,0.0,0.0,0.0,0.0,0.0,3.2556,0.0,0.0,0.0,0.0,3.0541,0.0,0.0,0.0,0.0,0.0,0.0,0.0,0.0,0.0,0.0,2.9277,2.9731,3.1453,3.3174,3.5572,3.9037,3.7727,3.8898,4.4229,4.1917,4.2653,4.8147,4.8277,4.9579,5.2621,5.2722,5.2942,5.3397,5.3796,5.4264,5.472,5.5137,5.5117,5.4739,5.4739,5.4473,5.4076,5.4928,5.5299,5.5371,5.6211,5.6595,5.6634,5.7051,5.7494,5.7937,5.8345,5.88,5.9194,1.9823,0.0,0.0,0.0,0.0,0.0,0.0,2.7362,0.0,0.0,0.0,0.0,0.0,0.0,3.6514,0.0,0.0,3.4269,3.3601,3.2021,0.0,0.0,0.0,2.9045,0.0,0.0,2.7752,2.7004,2.6677,0.0,0.0,0.0,0.0,0.0,0.0,3.035,3.2367,3.3319,3.4469,3.5725,3.6794,3.8584,4.0518,0.0,3.996,4.0496,4.0361,4.0334,0.0,3.9985,3.9478,3.8916,3.8622,3.7714,3.6712,3.6526,3.6459,0.0,0.0,0.0,3.738,3.4417,0.0,0.0,0.0,0.0,0.0,0.0,0.0,0.0,0.0,0.0,0.0,0.0,0.0,0.0,0.0,2.8775,2.8866,2.994,3.1487,3.2755,3.3555,3.3227,3.3903,3.617,3.6308,3.7759,4.1133,4.5014,4.7968,4.9791,5.1711,5.3054,5.3789,5.392,5.4245,5.47,5.5117,5.5234,5.5078,5.4818,5.4603,5.4492,5.5058,5.5299,5.5371,5.6244,5.6595,5.6615,5.6752,5.724,5.7937,5.8345,5.88,5.9194,2.1375,0.0,0.0,0.0,0.0,0.0,0.0,0.0,0.0,0.0,3.4189,0.0,3.8492,0.0,3.8639,0.0,3.8049,3.674,3.475,3.4215,0.0,3.2074,3.1741,0.0,0.0,0.0,0.0,2.7617,0.0,2.7592,0.0,0.0,0.0,0.0,0.0,3.1204,3.2863,3.487,3.6059,3.6699,3.7998,3.9415,0.0,0.0,4.0563,4.063,0.0,4.0512,4.0512,4.0512,4.0092,3.9585,3.9463,3.862,3.7646,3.746,3.7394,3.7354,3.7141,3.7795,0.0,3.5765,3.4937,0.0,3.1557,0.0,0.0,0.0,0.0,0.0,0.0,0.0,0.0,0.0,0.0,0.0,0.0,2.8422,2.8473,2.9232,3.0341,3.0994,3.082,3.0862,3.0982,3.1156,3.1991,3.3614,3.6241,4.1337,4.5251,4.7569,5.0802,5.2976,5.3998,5.3998,5.4303,5.4915,5.485,5.4928,5.5058,5.4648,5.4453,5.4473,5.5045,5.5299,5.5371,5.6244,5.6595,5.6615,5.6771,5.7273,5.7924,5.8203,5.8666,5.9194,2.3474,0.0,0.0,0.0,2.1882,0.0,0.0,0.0,3.1194,0.0,3.5137,3.7156,3.9507,3.9475,3.9651,4.0523,4.011,0.0,3.5685,3.6259,0.0,0.0,3.3104,3.2797,3.1888,0.0,0.0,0.0,0.0,0.0,0.0,0.0,0.0,0.0,3.1019,3.2169,3.3211,3.6768,3.8624,3.9247,4.0147,4.0512,4.0523,4.0512,4.067,4.0853,4.0603,4.0512,4.0512,4.0512,4.0512,4.0441,4.0117,3.9607,3.9034,3.8506,3.8359,3.8266,3.7664,3.7958,3.8065,3.6607,0.0,0.0,0.0,0.0,3.5431,0.0,0.0,0.0,0.0,0.0,0.0,0.0,0.0,0.0,2.8443,2.8189,2.8395,2.8932,2.9477,3.0036,3.0648,3.0457,3.0054,2.9481,2.9114,3.0337,3.3575,3.7356,4.1464,4.5942,4.9865,5.259,5.4017,5.4017,5.444,5.526,5.4408,5.4225,5.4642,5.4206,5.3998,5.4056,5.4928,5.5299,5.5371,5.6244,5.6595,5.6634,5.7031,5.7474,5.7912,5.7937,5.8479,5.9194,2.4351,2.4503,2.4695,0.0,2.4676,2.5384,2.7518,0.0,0.0,0.0,3.7329,3.9522,4.1675,4.2004,4.2087,4.2127,4.2183,0.0,0.0,0.0,0.0,3.7195,3.658,3.5645,3.4335,3.352,0.0,3.1468,0.0,0.0,2.9637,2.8502,2.8176,2.8631,3.0749,3.205,3.2855,3.6419,3.8783,4.0162,4.0401,4.0615,4.0777,0.0,4.067,4.0853,4.0603,4.0512,4.0512,4.0512,4.0512,4.0441,4.0117,3.989,3.9647,3.9077,3.9209,3.9493,3.9132,3.9482,3.968,3.8596,3.7688,3.6755,0.0,0.0,0.0,0.0,0.0,0.0,0.0,0.0,0.0,0.0,0.0,0.0,0.0,2.8189,2.8395,2.8932,2.8556,2.858,2.9373,2.904,2.8698,2.8551,2.8048,2.8479,3.0193,3.4363,3.8662,4.2977,4.7073,5.0905,5.4479,5.4154,5.4284,5.4857,5.4284,5.4056,5.4186,5.4056,5.3998,5.4056,5.4928,5.5299,5.5371,5.6244,5.6595,5.6615,5.6699,5.722,5.7984,5.8641,5.9004,5.9194,2.5251,0.0,0.0,2.674,2.7345,2.8203,2.9347,3.0763,0.0,3.5712,3.7904,0.0,4.1178,4.229,4.2969,4.3036,4.3076,0.0,4.1198,0.0,0.0,3.9159,3.8624,3.7797,3.6581,3.5297,0.0,3.2769,0.0,0.0,3.0098,2.8807,2.8326,2.8639,3.0595,3.1797,3.2587,3.6393,3.8893,4.0294,4.0441,4.0588,0.0,4.0563,4.0588,4.071,4.0548,4.0512,4.0512,4.0512,4.0512,4.0471,4.0279,4.0214,4.0147,3.9813,3.9945,4.0187,4.004,4.0242,4.0361,3.9838,3.9239,3.8518,3.7621,3.7781,3.7875,0.0,0.0,0.0,0.0,0.0,0.0,0.0,0.0,0.0,0.0,0.0,2.9716,3.0014,3.0783,3.0951,3.0124,2.8562,2.7646,2.7801,2.7606,2.7706,2.8219,3.2824,3.661,3.9168,4.5261,4.9735,5.2299,5.3815,5.4616,5.4681,5.4225,5.3998,5.3998,5.3998,5.3998,5.4056,5.4928,5.5299,5.5371,5.6244,5.6595,5.6634,5.7019,5.7703,5.8524,5.9018,5.9194,5.9194,0.0,0.0,0.0,0.0,0.0,0.0,0.0,3.2225,0.0,3.626,0.0,3.9585,4.0122,4.179,4.3076,4.3561,0.0,4.2726,4.1441,4.1989,4.1655,4.008,3.9893,3.9441,3.8613,3.674,0.0,0.0,0.0,0.0,3.0308,2.8901,2.8519,2.9055,3.0534,3.1718,3.28,3.6541,3.8786,3.9878,4.0269,4.0456,4.0512,4.0512,4.0512,4.0512,4.0512,4.0512,4.0512,4.0512,4.0512,4.0512,4.0512,4.0512,4.0512,4.0512,4.0512,4.0512,4.0512,4.0512,4.0512,4.0512,4.0512,4.0294,3.9478,3.9273,3.9129,3.8573,3.801,3.8302,0.0,0.0,0.0,3.0009,0.0,0.0,0.0,0.0,3.1631,3.1976,3.4345,0.0,3.18,2.9049,2.7409,2.7316,2.7516,2.7556,2.7312,3.1827,3.5001,3.6282,4.3984,4.875,5.0064,5.3432,5.5039,5.4857,5.4284,5.3998,5.3998,5.3998,5.3998,5.4056,5.4928,5.5299,5.5371,5.6244,5.6634,5.6752,5.7586,5.8406,5.9121,5.918,5.9194,5.9194,0.0,0.0,0.0,0.0,0.0,3.2533,3.4523,3.6153,3.7664,3.9132,4.1508,4.311,4.3223,4.3551,4.3901,4.4199,4.4205,0.0,0.0,0.0,0.0,4.2183,4.1416,4.0722,4.0122,3.7849,3.6179,0.0,0.0,0.0,0.0,2.8991,2.87,2.9055,3.0534,3.2614,3.5084,3.6526,3.7835,3.8997,3.9768,4.0254,4.0512,4.0512,4.0512,4.0512,4.0512,4.0512,4.0512,4.0512,4.0512,4.0512,4.0512,4.0512,4.0512,4.0512,4.0512,4.0512,4.0512,4.0512,4.0512,4.0512,4.0512,4.0456,4.0294,4.0254,4.0095,3.9493,3.9077,3.8971,3.9516,0.0,0.0,0.0,0.0,0.0,0.0,0.0,0.0,0.0,3.5871,3.5158,3.2405,3.14,2.9916,2.7479,2.7339,2.7352,2.7299,2.9531,3.35,3.9379,4.2357,4.7204,0.0,0.0,5.472,5.5677,5.4544,5.3998,5.3998,5.3998,5.3998,5.4056,5.4928,5.5299,5.5371,5.6244,5.681,5.7148,5.7683,5.8203,5.8669,5.9062,5.9194,5.9194,0.0,0.0,0.0,0.0,0.0,0.0,0.0,3.8985,4.0202,3.9838,4.104,4.1989,4.2167,4.311,4.3912,4.4362,4.4272,4.4189,4.4189,4.3618,4.3116,4.2715,4.1802,0.0,4.0918,3.8582,3.6939,3.6072,0.0,0.0,0.0,0.0,2.8535,2.8836,2.9862,3.2039,3.4964,3.5712,3.6981,3.8584,3.9585,4.0199,4.0512,4.0512,4.0512,4.0512,4.0512,4.0512,4.0512,4.0512,4.0512,4.0512,4.0512,4.0512,4.0512,4.0512,4.0512,4.0512,4.0512,4.0512,4.0512,4.0512,4.0512,4.0512,4.0512,4.0512,4.0361,3.989,4.0803,4.1288,3.9957,3.9691,0.0,0.0,0.0,0.0,0.0,0.0,3.5735,0.0,0.0,0.0,3.3947,3.3601,3.1908,2.7821,2.7516,2.7516,2.7516,2.9032,3.1657,3.5519,3.9151,0.0,4.7265,0.0,5.107,5.2674,5.1841,5.236,5.3998,5.3998,5.3998,5.4056,5.513,5.5495,5.5377,5.6465,5.7168,5.7611,5.8041,5.8476,5.8887,5.9121,5.9194,5.9194,0.0,3.1423,0.0,0.0,3.5204,0.0,3.8542,4.0838,4.1897,4.0523,4.064,4.0945,4.1218,4.2659,4.3861,4.4459,4.4205,4.4051,4.4182,4.3567,4.3076,4.2798,4.1948,4.1441,4.129,3.9184,3.7474,0.0,0.0,0.0,0.0,0.0,2.8481,2.8716,2.959,3.1448,3.4015,0.0,3.6541,3.8306,3.9504,4.0199,4.0512,4.0512,4.0512,4.0512,4.0512,4.0512,4.0512,4.0512,4.0512,4.0512,4.0512,4.0512,4.0512,4.0512,4.0512,4.0512,4.0512,4.0512,4.0512,4.0512,4.0512,4.0512,4.0512,4.0512,4.0401,4.0077,4.1979,4.3196,4.1469,4.2249,0.0,0.0,0.0,0.0,0.0,0.0,0.0,0.0,0.0,0.0,3.4467,3.4505,3.2855,2.7976,2.7679,2.7696,2.7696,2.8871,3.0236,3.1743,3.638,3.9493,4.084,0.0,4.8216,4.9976,5.0094,5.1492,5.3998,5.3998,5.4056,5.4213,5.5306,5.5748,5.5787,5.6783,5.7519,5.8055,5.8376,5.88,5.9194,5.9194,5.9194,5.9194,0.0,0.0,0.0,0.0,0.0,3.8846,3.902,4.1305,4.2969,4.279,4.3273,4.3634,4.3674,4.3845,4.4199,4.4803,4.4329,4.4222,4.4787,4.3968,4.3354,4.3076,4.2456,4.1853,4.1305,3.9768,3.7781,0.0,0.0,0.0,0.0,0.0,0.0,2.9039,3.074,0.0,0.0,3.5351,3.6941,3.7968,3.9423,4.0199,4.0512,4.0512,4.0512,4.0512,4.0512,4.0512,4.0512,4.0512,4.0512,4.0512,4.0512,4.0512,4.0512,4.0512,4.0512,4.0512,4.0512,4.0512,4.0512,4.0512,4.0512,4.0512,4.0512,4.0512,4.0401,4.0077,4.131,4.2915,4.4361,4.2165,3.9403,0.0,0.0,0.0,0.0,0.0,3.9138,3.7148,0.0,0.0,3.1894,3.2644,3.1783,2.7648,2.7559,2.7696,2.7696,2.8115,3.001,3.3613,3.5893,3.9287,4.392,4.7362,4.967,5.0903,5.268,5.3704,5.3998,5.3998,5.4225,5.4661,5.5156,5.5983,5.7037,5.7154,5.7701,5.8449,5.8494,5.88,5.9194,5.9194,5.9194,5.9194,0.0,0.0,0.0,0.0,0.0,0.0,0.0,4.2314,4.3167,4.3308,4.3725,4.4059,4.4216,4.4099,4.4239,4.4837,4.4346,4.4165,4.4566,4.3765,4.3207,4.31,4.2365,4.1857,4.1603,4.0316,3.8622,0.0,0.0,0.0,0.0,0.0,0.0,0.0,0.0,3.1742,3.3721,3.5284,3.6873,3.8435,3.9555,4.0199,4.0512,4.0512,4.0512,4.0512,4.0512,4.0512,4.0512,4.0512,4.0512,4.0512,4.0512,4.0512,4.0512,4.0512,4.0512,4.0512,4.0512,4.0512,4.0512,4.0512,4.0512,4.0512,4.0512,4.0512,4.0986,4.2704,4.6329,4.8124,4.4611,4.358,4.1946,0.0,0.0,0.0,0.0,0.0,0.0,3.7413,0.0,3.5191,3.138,3.1305,3.0543,2.8248,2.8034,2.7903,2.7709,0.0,0.0,3.147,3.3119,3.6083,4.0457,4.2966,4.6099,4.988,5.0957,5.2503,5.4433,5.4674,5.5176,5.5833,5.5709,5.61,5.6855,5.7096,5.7578,5.8158,5.8404,5.88,5.9194,5.9194,5.9194,5.9194,3.7021,0.0,3.7757,0.0,3.989,4.0361,4.2258,4.2862,4.3167,4.3364,4.3805,4.4189,4.4379,4.4312,4.4476,4.4974,4.4573,4.4329,4.4526,4.3872,4.3364,4.3116,4.2512,0.0,4.1806,4.0869,3.953,3.7782,3.6059,0.0,0.0,0.0,0.0,0.0,3.0929,3.2481,3.4764,3.5992,3.746,3.9037,3.9838,4.0294,4.0512,4.0512,4.0512,4.0512,4.0512,4.0512,4.0512,4.0512,4.0512,4.0512,4.0512,4.0512,4.0512,4.0512,4.0512,4.0512,4.0512,4.0512,4.0512,4.0512,4.0512,4.0512,4.0512,4.0512,4.1649,4.5649,4.8956,4.9843,4.5649,4.4151,4.2174,3.7945,0.0,0.0,0.0,3.7091,0.0,3.6742,3.4882,3.2902,3.1162,3.0111,2.9202,2.84,2.8158,2.8034,0.0,0.0,0.0,0.0,0.0,0.0,3.6814,4.0223,4.3979,4.8077,5.0209,5.2466,5.4733,5.5254,5.5807,5.6387,5.6301,5.6549,5.7006,5.7422,5.7865,5.8303,5.858,5.89,5.9194,5.9194,5.9194,5.9194,3.8383,3.9144,3.992,4.1076,4.1761,4.2162,4.2202,4.271,4.31,4.31,4.3855,4.4403,4.4403,4.469,4.5,4.5277,4.5041,4.4893,4.4893,4.4566,4.4002,0.0,0.0,4.2675,4.1817,4.1452,4.0422,3.8674,0.0,0.0,3.3348,0.0,3.1491,3.2131,3.3601,3.4737,3.5725,3.7781,3.9022,3.964,4.0257,4.0512,4.0512,4.0512,4.0512,4.0512,4.0512,4.0512,4.0512,4.0512,4.0512,4.0512,4.0512,4.0512,4.0512,4.0512,4.0512,4.0512,4.0512,4.0512,4.0512,4.0512,4.0512,4.0512,4.0512,4.0512,4.2255,4.8461,4.7109,4.563,4.8324,4.3318,3.8375,3.7114,0.0,0.0,0.0,3.6383,0.0,3.4351,3.192,3.0605,3.0954,2.9019,2.7727,2.7709,2.7709,2.7963,0.0,0.0,0.0,2.9468,3.0939,0.0,3.4334,4.1139,4.4885,4.5611,5.1723,5.4655,5.4733,5.5534,5.5898,5.597,5.6822,5.7455,5.7926,5.832,5.8756,5.918,5.9194,5.9194,5.9194,5.9194,5.9194,5.9194,3.949,4.0224,4.0878,4.1239,4.1802,4.2282,4.2517,4.2862,4.3167,4.3354,4.3962,4.4403,4.4403,4.469,4.5081,0.0,4.495,4.4663,0.0,4.4018,4.338,4.3116,4.2715,4.2365,4.2071,4.179,4.096,3.9582,0.0,0.0,0.0,3.3522,3.3509,3.3923,3.503,3.634,3.7781,3.885,3.9651,4.0229,4.0416,4.0512,4.0512,4.0512,4.0512,4.0512,4.0512,4.0512,4.0512,4.0512,4.0512,4.0512,4.0512,4.0512,4.0538,4.0722,4.063,4.0538,4.0722,4.063,4.0512,4.0512,4.0512,4.0512,4.0512,4.2135,4.3594,4.3473,4.5973,4.7033,4.3255,4.2353,4.1088,3.7772,3.7565,0.0,3.6482,0.0,3.3658,3.3598,3.0606,2.8607,2.8738,2.8107,2.7869,2.8273,2.8144,0.0,0.0,0.0,0.0,0.0,3.1539,0.0,3.9906,4.3038,4.6855,5.1333,5.3897,5.541,5.6009,5.625,5.6523,5.6789,5.7076,5.7474,5.7912,5.8041,5.8348,5.8728,5.8728,5.8931,5.9194,5.9194,5.9194,5.9194,4.0346,4.096,4.1492,4.1492,4.1989,4.2461,4.268,4.3009,4.3314,4.3471,4.4125,4.4589,4.4589,4.4957,0.0,4.5524,4.5057,4.478,4.4893,4.3985,4.3354,4.3116,4.2635,4.2325,4.2202,4.194,0.0,4.068,3.9463,3.7795,3.5792,3.5578,3.5738,3.6232,3.6927,3.7956,3.9224,3.9721,4.0162,4.0512,4.0618,4.0588,4.0523,4.0722,4.067,4.0512,4.0618,4.0588,4.0512,4.0512,4.0512,4.0512,4.0512,4.0563,4.0655,4.0735,4.063,4.0538,4.0695,4.063,4.0512,4.0512,4.0512,4.0512,4.0512,4.2887,4.4549,4.2617,4.5323,4.6674,4.2198,4.1825,4.1157,3.792,3.6888,3.6622,3.7022,0.0,3.2218,0.0,0.0,0.0,0.0,2.8754,2.8497,2.8454,2.8807,0.0,0.0,0.0,0.0,3.0673,3.3034,3.664,4.1529,4.4769,4.8485,5.2675,5.4609,5.5885,5.6595,5.6595,5.6732,5.6992,5.7324,5.7644,5.7926,5.8244,5.8535,5.8756,5.8756,5.8945,5.9194,5.9194,5.9194,5.9194,4.0918,4.1405,4.1806,0.0,4.2314,4.2707,4.2715,4.3167,4.3495,4.3495,4.4302,4.4884,4.4884,4.535,4.5564,4.531,0.0,0.0,4.4877,4.4302,4.3714,4.315,4.2862,4.2568,4.2269,4.198,4.1806,4.1766,4.0037,3.893,3.8413,3.7823,3.801,3.8836,3.9089,3.953,4.0117,4.0416,4.0538,4.0538,4.0802,4.075,4.0563,4.108,4.096,4.0563,4.0842,4.0762,4.0548,4.0523,4.0523,4.0523,4.0523,4.0695,4.0842,4.0615,4.0538,4.0523,4.0548,4.0523,4.0512,4.0512,4.0665,4.0818,4.0818,4.3204,4.5353,4.5145,4.51,4.4876,4.4117,4.157,3.9077,3.7583,3.6958,3.6632,3.6588,3.3593,3.2503,3.543,0.0,0.0,0.0,3.0455,2.947,0.0,2.9572,0.0,0.0,0.0,3.0371,3.1264,3.5164,3.8213,4.0251,4.6312,4.9823,5.0819,5.429,5.6178,5.6595,5.6595,5.6615,5.6693,5.7507,5.7865,5.7971,5.8817,5.9149,5.9149,5.9194,5.9194,5.9194,5.9194,5.9194,5.9194,0.0,0.0,4.1857,4.2071,4.2437,4.2771,4.2969,4.3297,4.3495,4.3495,4.4099,4.4509,4.4509,4.5047,4.5367,4.5318,4.5121,4.4853,4.4526,4.3952,4.3551,4.3404,4.2953,4.2771,4.2873,4.2365,4.1882,4.1425,4.0588,3.996,3.9585,3.9239,3.9441,4.008,4.0147,4.0468,4.101,4.1076,4.0985,4.0817,4.0869,4.075,4.0538,4.0869,4.0924,4.0842,4.1107,4.1172,4.108,4.0869,4.0817,4.0817,4.0817,4.071,4.0655,4.1,4.096,4.0857,4.1052,4.0817,4.0512,4.0512,4.227,4.4012,4.4012,4.6434,4.7992,4.5605,4.51,4.4209,4.1252,3.9899,3.8676,3.6995,3.7498,3.7493,3.5732,3.4323,3.3532,0.0,3.1298,2.994,3.0576,2.9995,2.9764,0.0,0.0,2.9648,3.0341,3.307,3.3892,3.232,3.6342,4.0291,4.391,4.7852,5.1442,5.4618,5.5853,5.6484,5.6595,5.6595,5.6771,5.707,5.7285,5.7572,5.7937,5.8449,5.8669,5.8697,5.9062,5.9194,5.9194,5.9194,5.9194,5.9194,4.1655,4.198,4.2325,4.2726,4.2953,4.3167,4.3477,4.3618,4.3765,4.3895,4.4336,4.4673,4.4803,4.5204,4.5417,4.5318,4.5171,4.4957,4.4663,4.4059,4.3658,4.3511,4.31,4.2889,4.2918,4.2608,4.2135,4.1523,4.1243,4.0924,4.0584,4.0453,4.0544,4.0869,4.0869,4.104,4.129,4.129,4.1214,4.1092,4.1258,4.1122,4.0909,4.1334,4.1319,4.1092,4.1254,4.1223,4.1092,4.0949,4.0893,4.0918,4.104,4.1096,4.1151,4.1441,4.1243,4.0909,4.0933,4.0817,4.0655,4.0523,4.2813,4.51,4.51,4.6419,4.717,4.5456,4.3983,4.2299,4.0021,3.9239,3.8288,3.6406,3.7121,3.7087,3.4739,3.4029,3.3509,3.2879,3.1338,3.0381,3.0564,3.0898,3.0965,3.0644,3.0864,0.0,3.1194,3.502,3.6519,3.498,4.03,4.4546,4.7365,5.0919,5.389,5.6217,5.6478,5.6595,5.6615,5.6777,5.6894,5.6953,5.7357,5.765,5.7924,5.8332,5.8625,5.8842,5.909,5.9194,5.9194,5.9194,5.9194,5.9194,4.2151,4.2477,4.2862,4.3348,4.3471,4.3601,4.3952,4.4018,4.4125,4.4362,4.473,4.5041,4.5277,4.5537,4.5604,4.5384,4.5367,4.522,4.4917,4.4369,4.3935,4.3658,4.3324,4.306,4.2822,4.2747,4.2397,4.1806,4.1806,4.1644,4.129,4.129,4.133,4.1385,4.1385,4.1401,4.1437,4.1437,4.141,4.1401,4.1686,4.1603,4.137,4.1933,4.1826,4.1385,4.1425,4.1294,4.1096,4.1056,4.104,4.108,4.129,4.1548,4.1726,4.179,4.1432,4.0989,4.0695,4.0762,4.0947,4.1143,4.3606,4.6067,4.6434,4.6567,4.6465,4.5915,4.3354,4.087,3.9794,3.9077,3.8109,3.6518,3.6912,3.6581,3.4111,0.0,3.3457,3.2522,3.1652,3.1167,3.1261,3.2329,3.2436,3.1086,3.241,3.2958,3.2221,3.6571,3.9022,3.8838,4.5031,4.9175,5.0858,5.4294,5.6198,5.6595,5.6654,5.6654,5.6615,5.709,5.707,5.6732,5.7547,5.7912,5.7924,5.8332,5.8742,5.909,5.918,5.9194,5.9194,5.9194,5.9194,5.9207,4.2151,4.2477,4.2798,4.3116,4.3354,4.3601,4.3952,4.4189,4.4346,4.4386,4.49,4.5261,4.5301,4.5537,4.5671,4.5644,4.5644,4.5417,4.4934,4.4556,4.4306,4.4256,4.3725,4.3415,4.338,4.2929,4.2397,4.1806,4.1806,4.1644,4.129,4.129,4.1452,4.1726,4.1726,4.1857,4.2055,4.2055,4.1924,4.1726,4.1782,4.1603,4.1345,4.1726,4.1806,4.175,4.1989,4.2031,4.1964,4.175,4.1659,4.1675,4.171,4.1563,4.1441,4.1726,4.1726,4.1588,4.1254,4.104,4.1457,4.3799,4.7222,5.0534,5.2586,5.3297,5.2701,4.9681,4.6566,4.3406,4.0197,3.8919,3.8559,3.913,3.9083,3.7918,3.494,0.0,3.5151,3.1535,3.2023,3.2852,3.3373,3.3159,3.3199,3.3655,3.3091,3.3184,3.4267,3.9434,4.2874,4.4011,4.7344,5.1007,5.4941,5.5992,5.6537,5.6595,5.6933,5.6933,5.6634,5.7429,5.7533,5.7148,5.7664,5.7912,5.7924,5.8332,5.8552,5.8652,5.9048,5.9194,5.9194,5.9194,5.9194,5.9252,4.2608,4.2806,4.31,4.3698,4.3895,4.4099,4.4419,4.4583,4.4713,4.4877,4.5131,4.5367,4.5497,4.5644,4.5694,4.5694,4.5694,4.5587,4.5344,4.5064,4.4753,4.4403,4.4132,4.3765,4.3297,4.2889,4.2477,4.202,4.202,4.1948,4.1786,4.1786,4.1964,4.2274,4.2274,4.2354,4.2477,4.2477,4.2298,4.202,4.202,4.1908,4.1802,4.1964,4.202,4.2004,4.1989,4.1989,4.1964,4.1833,4.1806,4.1833,4.1964,4.1908,4.1826,4.1964,4.179,4.1548,4.1563,4.2478,4.3796,4.5307,4.9286,5.3189,5.4516,5.3491,5.1781,5.0143,4.5975,4.1999,3.9974,3.9962,4.0201,4.0134,3.9569,0.0,0.0,3.6108,3.4794,3.3636,3.333,3.3521,3.4308,3.4134,3.4134,3.4536,3.4214,3.4986,3.7213,4.1311,4.4881,4.77,5.1075,5.3946,5.6243,5.6484,5.6712,5.6933,5.7115,5.7226,5.7312,5.7937,5.7982,5.7611,5.8041,5.8217,5.8228,5.8418,5.8652,5.89,5.9121,5.9194,5.9194,5.9194,5.9194,5.9252,4.2889,4.306,4.3324,4.4052,4.4312,4.4499,4.473,4.4893,4.5081,4.5277,4.535,4.5474,4.5671,4.5694,4.5694,4.5694,4.5694,4.5694,4.5694,4.5514,4.5137,4.4526,4.4312,4.3872,4.3207,4.2929,4.2675,4.24,4.24,4.24,4.24,4.2349,4.2461,4.2691,4.2624,4.2584,4.2584,4.2584,4.2445,4.2202,4.2202,4.2202,4.2202,4.2202,4.2202,4.2162,4.1964,4.1897,4.1897,4.1897,4.1897,4.1924,4.2151,4.2202,4.2202,4.2202,4.1868,4.1706,4.2582,4.4311,4.6284,4.8006,5.1767,5.5261,5.6017,5.3603,5.0924,4.9999,4.5412,4.1368,4.0763,4.1403,4.2078,4.2147,0.0,0.0,0.0,3.7135,3.5497,3.6241,3.5491,3.5211,3.5996,3.549,3.5097,3.5097,3.5351,3.6811,3.9784,4.2829,4.6599,5.1222,5.4308,5.6139,5.6595,5.6595,5.6738,5.7057,5.7154,5.7383,5.7762,5.817,5.8228,5.8055,5.8379,5.8566,5.8669,5.8669,5.8873,5.9194,5.9194,5.9194,5.9194,5.9194,5.9194,5.9266,4.2651,4.2929,4.3207,4.3511,4.4026,4.4403,4.4443,4.491,4.5277,4.5301,4.5514,4.5671,4.5694,4.5694,4.5694,4.5694,4.5694,4.5694,4.5694,4.5671,4.5417,4.4893,4.4018,4.3551,4.3471,4.3207,4.306,4.302,4.302,4.302,4.302,4.2782,4.268,4.2691,4.2381,4.2242,4.2242,4.2242,4.2226,4.2202,4.2202,4.2202,4.2202,4.2202,4.2202,4.2202,4.2178,4.2162,4.2162,4.2162,4.2162,4.2162,4.2186,4.2202,4.2202,4.2202,4.2162,4.2678,4.5195,4.6249,4.797,5.3681,5.5899,5.7205,5.9053,5.7345,5.4294,5.0565,4.7113,4.455,4.3884,4.3037,4.3601,4.7135,0.0,0.0,4.0305,4.0104,3.9492,3.8082,3.8802,3.9548,3.9854,3.7536,3.6006,3.6006,3.6246,3.7823,4.1089,4.4245,4.8874,5.5254,5.5747,5.6139,5.6595,5.6595,5.6615,5.6654,5.7031,5.7213,5.7285,5.7728,5.8131,5.8463,5.8494,5.8756,5.9149,5.9149,5.918,5.9194,5.9194,5.9194,5.9194,5.9194,5.9194,5.9311,4.2889,4.333,4.3754,4.4002,4.4566,4.4967,4.4967,4.5301,4.5554,4.5554,4.5644,4.5694,4.5694,4.5694,4.5694,4.5694,4.5694,4.5694,4.5694,4.5537,4.5301,4.491,4.4199,4.3708,4.3495,4.3404,4.3273,4.31,4.31,4.31,4.31,4.3009,4.3036,4.319,4.2889,4.2766,4.275,4.2579,4.2389,4.2202,4.2202,4.2202,4.2202,4.2202,4.2202,4.2202,4.2202,4.2202,4.2202,4.2202,4.2202,4.2202,4.2202,4.2202,4.2202,4.2202,4.3646,4.5924,4.8967,4.9677,5.0673,5.533,5.7607,5.8954,5.995,5.5972,5.1656,5.0118,4.7289,4.4966,4.4547,4.6821,4.8572,4.7968,0.0,4.2787,4.2832,3.9458,3.7439,3.8697,3.8219,3.7897,3.8164,3.7223,3.674,3.7128,3.7247,3.9459,4.4355,4.9694,5.3607,5.5832,5.6419,5.6783,5.6973,5.6719,5.6869,5.741,5.7553,5.7748,5.8025,5.8496,5.8783,5.8931,5.8931,5.9051,5.9194,5.9194,5.9194,5.9194,5.9194,5.9194,5.9194,5.9194,5.9194,5.9266,4.3052,4.3584,4.4082,4.4346,4.49,4.5301,4.5301,4.5524,4.5694,4.5694,4.5694,4.5694,4.5694,4.5694,4.5694,4.5694,4.5694,4.5694,4.5694,4.5447,4.5188,4.491,4.4409,4.4018,4.3788,4.3698,4.3567,4.338,4.338,4.338,4.338,4.3273,4.3273,4.3364,4.3183,4.298,4.2822,4.2822,4.2579,4.2202,4.2309,4.2298,4.2202,4.2202,4.2202,4.2202,4.2202,4.2202,4.2202,4.2202,4.2202,4.2202,4.2202,4.2202,4.2202,4.2202,4.4542,4.7831,5.1102,5.2516,5.3932,5.7508,5.9415,6.039,6.0387,5.6632,5.278,5.154,4.9557,4.7956,4.762,5.0414,5.2226,5.0487,4.7164,4.481,4.4758,4.104,3.8765,3.9933,3.9832,3.938,3.8612,3.771,3.7354,3.7768,3.8755,4.2035,4.8219,5.3792,5.6699,5.6529,5.6973,5.733,5.7603,5.707,5.7162,5.7912,5.7912,5.8113,5.8507,5.8697,5.8948,5.9194,5.9048,5.9062,5.9194,5.9194,5.9194,5.9194,5.9194,5.9194,5.9194,5.9194,5.9194,5.9266,4.306,4.3591,4.4099,4.4362,4.49,4.5318,4.5335,4.5571,4.5745,4.5776,4.5776,4.5776,4.5728,4.5776,4.5758,4.5694,4.5728,4.5728,4.5694,4.5447,4.518,4.491,4.4583,4.4403,4.4403,4.4125,4.4008,4.4008,4.4008,4.4008,4.3992,4.3658,4.3364,4.3116,4.31,4.2766,4.2258,4.2846,4.275,4.2226,4.2568,4.2488,4.2202,4.2202,4.2202,4.2202,4.2202,4.2202,4.2202,4.2202,4.2202,4.2202,4.2202,4.2202,4.2202,4.2202,4.4542,4.7846,5.1102,5.4424,5.7703,6.0891,6.1704,6.147,6.0611,6.0372,5.9245,5.5306,5.4497,5.436,5.3902,5.3482,5.3792,5.5562,5.075,4.6475,4.561,4.5824,4.4989,4.2051,4.4591,4.5387,4.2366,3.9476,3.7795,3.7809,4.0871,4.5688,5.2433,5.5603,5.7422,5.7879,5.7455,5.7609,5.8494,5.7643,5.7455,5.7912,5.7912,5.8113,5.8494,5.8086,5.8393,5.918,5.8711,5.8769,5.9194,5.9194,5.9194,5.9194,5.9194,5.9194,5.9194,5.9194,5.9194,5.9311,4.3324,4.4065,4.472,4.4984,4.5327,4.6424,4.8925,4.9371,5.0311,5.2811,5.3143,5.2176,4.9685,5.164,5.1133,4.6143,4.7984,4.8275,4.5591,4.5507,4.5457,4.518,4.4673,4.4403,4.4403,4.4125,4.4008,4.4008,4.4008,4.4008,4.4008,4.3901,4.3805,4.3714,4.329,4.3009,4.2822,4.2563,4.2365,4.2202,4.2309,4.2298,4.2202,4.2202,4.2202,4.2202,4.2202,4.2202,4.2202,4.2202,4.2202,4.2202,4.2202,4.2202,4.2202,4.2202,4.6154,5.0752,5.1727,5.6044,6.0496,6.1466,6.1484,6.1225,6.0942,5.871,5.6355,5.5153,5.4699,5.446,5.4306,5.4183,5.3495,5.1635,4.7799,4.4957,4.4686,4.4317,4.3764,4.2992,4.3475,4.2699,3.9726,3.8659,3.8238,3.8423,4.3218,4.8083,5.2553,5.5603,5.7422,5.7879,5.7762,5.7955,5.8494,5.7643,5.7584,5.832,5.832,5.8376,5.8507,5.8711,5.8945,5.9194,5.9048,5.9062,5.9194,5.9194,5.9194,5.9194,5.9194,5.9194,5.9194,5.9194,5.9383,5.9601,4.3461,4.4262,4.4984,4.5261,4.6679,4.851,5.0662,5.0986,5.1773,5.3911,5.2979,5.1806,5.1068,5.1657,5.0932,4.8049,4.8476,4.793,4.5614,4.5604,4.5644,4.5474,4.5007,4.4713,4.4606,4.4312,4.4115,4.4008,4.4008,4.4008,4.4008,4.4115,4.4018,4.3805,4.3674,4.342,4.31,4.2963,4.276,4.2563,4.267,4.2579,4.2405,4.2405,4.2309,4.2202,4.2202,4.2202,4.2202,4.2202,4.2202,4.2202,4.2202,4.2202,4.2455,4.3754,4.7862,5.2275,5.3595,5.7733,6.1704,6.1704,6.1528,6.1294,6.1133,5.9216,5.7381,5.7025,5.6766,5.656,5.6393,5.5326,5.3822,5.1756,4.7587,4.4999,4.6156,4.5733,4.4858,4.3696,4.4198,4.3,3.887,3.8466,3.9498,4.2033,4.5561,4.9701,5.4545,5.6497,5.7748,5.8393,5.823,5.8348,5.8769,5.8072,5.8072,5.8769,5.8769,5.8769,5.88,5.9062,5.9194,5.9194,5.9194,5.9194,5.9194,5.9194,5.9194,5.9194,5.9194,5.9194,5.9194,5.9194,5.9439,5.978,4.3518,4.4289,4.5088,4.5698,4.8685,5.1204,5.1843,5.1674,5.1591,5.1908,4.9139,4.8238,5.117,4.9156,4.851,5.0799,4.7746,4.5694,4.5694,4.5694,4.5694,4.5694,4.5474,4.5211,4.4934,4.4606,4.4329,4.4075,4.4051,4.4035,4.4035,4.4256,4.4069,4.3561,4.4099,4.3872,4.3167,4.3698,4.3607,4.311,4.3364,4.3167,4.2691,4.2691,4.2488,4.2202,4.2226,4.2226,4.2202,4.2202,4.2202,4.2202,4.2202,4.2202,4.2852,4.6138,4.9418,5.2715,5.6014,5.9253,6.1704,6.1704,6.1704,6.1601,6.1235,6.1122,6.0874,6.0083,5.9883,5.9732,5.9325,5.6448,5.4136,5.4083,4.8801,4.581,4.8983,4.8926,4.7497,4.4634,4.631,4.5358,3.9366,3.9004,4.1518,4.7267,4.7933,5.097,5.7597,5.7926,5.8289,5.918,5.8742,5.8742,5.9194,5.8769,5.8769,5.9194,5.9194,5.9194,5.9194,5.9194,5.9194,5.9194,5.9194,5.9194,5.9194,5.9194,5.9194,5.9194,5.9194,5.9194,5.9194,5.9194,5.9439,5.9805,4.4092,4.4583,4.5923,4.9191,5.0437,5.288,5.8443,5.6936,5.6146,5.8931,5.8622,5.7379,5.537,5.9421,5.9242,5.1657,4.7746,4.5694,4.5694,4.5694,4.5694,4.5694,4.5644,4.5497,4.522,4.4927,4.477,4.469,4.4436,4.4312,4.4312,4.4165,4.4018,4.3888,4.3748,4.3591,4.3404,4.3324,4.3223,4.3116,4.3167,4.298,4.2691,4.2691,4.2488,4.2226,4.2488,4.2421,4.2202,4.2202,4.2202,4.2202,4.2202,4.2202,4.2852,4.6138,4.9418,5.2715,5.6014,5.9253,6.1704,6.1704,6.1704,6.1689,6.1587,6.1342,6.1049,6.0859,6.0518,6.0142,5.9732,5.5117,5.1248,5.0871,4.5575,4.3415,4.8948,4.9334,4.8827,4.8255,4.8344,4.6078,3.999,4.1293,4.4182,4.8157,5.0455,5.3626,5.8122,5.8068,5.8289,5.918,5.8742,5.8742,5.9194,5.909,5.909,5.9194,5.9194,5.9194,5.9194,5.9194,5.9194,5.9194,5.9194,5.9194,5.9194,5.9194,5.9194,5.9194,5.9194,5.9194,5.9194,5.9194,5.9439,5.9893,4.4306,4.4763,4.635,5.0305,5.2393,5.4774,5.8493,5.7493,5.6343,5.6525,5.5073,5.4592,5.6129,5.8099,5.7067,5.1504,4.9294,4.7521,4.5817,4.5694,4.5694,4.5694,4.5694,4.5644,4.5497,4.535,4.5171,4.4893,4.4713,4.4646,4.4646,4.4493,4.4329,4.4189,4.4002,4.3855,4.3725,4.3591,4.3527,4.3527,4.3527,4.3354,4.3076,4.2945,4.2782,4.2603,4.2496,4.2349,4.2202,4.2202,4.2202,4.2202,4.2202,4.2202,4.3152,4.8001,5.0644,5.3047,5.7881,6.0418,6.1704,6.1704,6.1704,6.1704,6.1704,6.1543,6.1342,6.1133,6.0742,6.027,5.9863,5.5759,5.1842,5.0068,4.7053,4.6079,4.9338,4.9451,4.9249,4.9377,4.7686,4.4681,4.0045,4.2234,4.5263,4.846,5.1421,5.4672,5.8297,5.8287,5.851,5.918,5.8959,5.8945,5.9194,5.9194,5.9194,5.9194,5.9194,5.9194,5.9194,5.9194,5.9194,5.9194,5.9194,5.9194,5.9194,5.9194,5.9194,5.9194,5.9194,5.9194,5.9194,5.9194,5.9325,5.9604,4.4493,4.4967,4.6511,5.0332,5.3445,5.5601,5.6212,5.5783,5.4343,5.1389,4.8967,4.9767,5.5667,5.4211,5.2577,5.1974,5.134,4.9497,4.5934,4.5694,4.5694,4.5694,4.5694,4.5694,4.5694,4.5694,4.5474,4.5041,4.4984,4.4974,4.4974,4.4853,4.468,4.4403,4.4346,4.4205,4.4008,4.4008,4.4008,4.4008,4.4008,4.3805,4.3471,4.3257,4.3143,4.3036,4.2579,4.2389,4.2349,4.2226,4.2202,4.2295,4.2868,4.3044,4.4323,5.092,5.2835,5.4136,6.0081,6.1704,6.1704,6.1704,6.1704,6.1704,6.1704,6.1704,6.1601,6.1284,6.0884,6.046,5.998,5.7059,5.381,5.106,5.0153,4.9979,5.0535,4.9846,4.9348,4.9461,4.5933,4.2505,3.9999,4.3021,4.6178,4.87,5.2229,5.5539,5.8461,5.8625,5.88,5.9194,5.9194,5.9194,5.9194,5.9194,5.9194,5.9194,5.9194,5.9194,5.9194,5.9194,5.9194,5.9194,5.9194,5.9194,5.9194,5.9194,5.9194,5.9194,5.9194,5.9194,5.9194,5.9194,5.9194,5.9252,4.5131,4.5244,4.6511,5.0332,5.1405,5.2745,5.5816,5.3678,5.1538,5.1051,5.3261,5.5238,5.6212,5.8606,5.8931,5.5849,5.2762,4.9497,4.5934,4.5694,4.5694,4.5694,4.5694,4.5694,4.5694,4.5694,4.5654,4.5587,4.5367,4.5237,4.522,4.4713,4.4443,4.4386,4.4165,4.4018,4.4008,4.4008,4.4008,4.4008,4.4008,4.3805,4.3495,4.3455,4.3297,4.311,4.3273,4.319,4.2897,4.2389,4.2202,4.2708,4.5531,4.6435,4.7738,5.4317,5.6238,5.7046,6.0701,6.1704,6.1704,6.1704,6.1704,6.1704,6.1704,6.1704,6.1689,6.1631,6.1572,6.1279,6.046,5.7738,5.5254,5.4065,5.1579,5.0753,5.3482,5.1467,4.9722,4.9736,4.4565,4.0829,4.042,4.533,4.8851,4.9614,5.4727,5.8189,5.9062,5.9107,5.9135,5.9194,5.9194,5.9194,5.9194,5.9194,5.9194,5.9194,5.9194,5.9194,5.9194,5.9194,5.9194,5.9194,5.9194,5.9194,5.9194,5.9194,5.9194,5.9194,5.9194,5.9194,5.9194,5.9194,5.9194,5.9252,4.5277,4.5417,4.6679,5.0366,5.0986,5.1538,5.3097,5.201,5.0294,4.8303,5.1133,5.4111,5.608,6.1241,6.2323,5.6771,5.4874,5.162,4.6061,4.5694,4.5694,4.5694,4.5694,4.5694,4.5694,4.5694,4.5694,4.5694,4.5581,4.5447,4.5301,4.4877,4.4583,4.4386,4.4109,4.4008,4.4008,4.4008,4.4008,4.4008,4.4008,4.3912,4.3765,4.3561,4.3551,4.3567,4.337,4.298,4.2563,4.2298,4.341,4.5201,4.6637,4.8356,5.0765,5.5518,5.6897,5.7603,6.0833,6.1704,6.1704,6.1704,6.1704,6.1704,6.1704,6.1704,6.1704,6.1704,6.1528,6.125,6.0859,5.927,5.7329,5.5181,5.3491,5.2297,5.1922,4.9164,4.6551,4.4817,4.2166,4.0512,4.0512,4.4387,4.7701,4.9642,5.3811,5.7112,5.909,5.9194,5.9194,5.9194,5.9194,5.9194,5.9194,5.9194,5.9194,5.9194,5.9194,5.9194,5.9194,5.9194,5.9194,5.9194,5.9194,5.9194,5.9194,5.9194,5.9194,5.9194,5.9194,5.9194,5.9194,5.9194,5.9194,5.9241]}]]